[[{"header":{"parameterUnit":"m.s-1","parameterCategory":1,"la1":31.0,"la2":29.5877,"lo1":-88.7671,"lo2":-86.6584,"dy":0.0162,"dx":0.0185,"nx":115,"ny":88,"refTime":"2023-07-14T00:00:00:Z","depth":0,"parameterNumber":2,"parameterNumberName":"U-component_of_WINDS"},"data":[0.0,0.0,0.0,0.0,0.0,0.0,0.0,0.0,0.0,0.0,0.0,0.0,0.0,0.0,0.0,0.0,0.0,0.0,0.0,0.0,0.0,0.0,0.0,0.0,0.0,0.0,0.0,0.0,0.0,0.0,0.0,0.0,0.0,0.0,0.0,0.0,0.0,0.0,0.0,0.0,0.0,0.0,0.0,0.0,0.0,0.0,0.0,0.0,0.0,0.0,0.0,0.0,0.0,0.0,0.0,0.0,0.0,0.0,0.0,0.0,0.0,0.0,0.0,0.0,0.0,0.0,0.0,0.0,0.0,0.0,0.0,0.0,0.0,0.0,0.0,0.0,0.0,0.0,0.0,0.0,0.0,0.0,0.0,0.0,0.0,0.0,0.0,0.0,0.0,0.0,0.0,0.0,0.0,0.0,0.0,0.0,0.0,0.0,0.0,0.0,0.0,0.0,0.0,0.0,0.0,0.0,0.0,0.0,0.0,0.0,0.0,0.0,0.0,0.0,0.0,0.0,0.0,0.0,0.0,0.0,0.0,0.0,0.0,0.0,0.0,0.0,0.0,0.0,0.0,0.0,0.0,0.0,0.0,0.0,0.0,0.0,0.0,0.0,0.0,0.0,0.0,0.0,0.0,0.0,0.0,0.0,0.0,0.0,0.0,0.0,0.0,0.0,0.0,0.0,0.0,0.0,0.0,0.0,0.0,0.0,0.0,0.0,0.0,0.0,0.0,0.0,0.0,0.0,0.0,0.0,0.0,0.0,0.0,0.0,0.0,0.0,0.0,0.0,0.0,0.0,0.0,0.0,0.0,0.0,0.0,0.0,0.0,0.0,0.0,0.0,0.0,0.0,0.0,0.0,0.0,0.0,0.0,0.0,0.0,0.0,0.0,0.0,0.0,0.0,0.0,0.0,0.0,0.0,0.0,0.0,0.0,0.0,0.0,0.0,0.0,0.0,0.0,0.0,0.0,0.0,0.0,0.0,0.0,0.0,0.0,0.0,0.0,0.0,0.0,0.0,0.0,0.0,0.0,0.0,0.0,0.0,0.0,0.0,0.0,0.0,0.0,0.0,0.0,0.0,0.0,0.0,0.0,0.0,0.0,0.0,0.0,0.0,0.0,0.0,0.0,0.0,0.0,0.0,0.0,0.0,0.0,0.0,0.0,0.0,0.0,0.0,0.0,0.0,0.0,0.0,0.0,0.0,0.0,0.0,0.0,0.0,0.0,0.0,0.0,0.0,0.0,0.0,0.0,0.0,0.0,0.0,0.0,0.0,0.0,0.0,0.0,0.0,0.0,0.0,0.0,0.0,0.0,0.0,0.0,0.0,0.0,0.0,0.0,0.0,0.0,0.0,0.0,0.0,0.0,0.0,0.0,0.0,0.0,0.0,0.0,0.0,0.0,0.0,0.0,0.0,0.0,0.0,0.0,0.0,0.0,0.0,0.0,0.0,0.0,0.0,0.0,0.0,0.0,0.0,0.0,0.0,0.0,0.0,0.0,0.0,0.0,0.0,0.0,0.0,0.0,0.0,0.0,0.0,0.0,0.0,0.0,0.0,0.0,0.0,0.0,0.0,0.0,0.0,0.0,0.0,0.0,0.0,0.0,0.0,0.0,0.0,0.0,0.0,0.0,0.0,0.0,0.0,0.0,0.0,0.0,0.0,0.0,0.0,0.0,0.0,0.0,0.0,0.0,0.0,0.0,0.0,0.0,0.0,0.0,0.0,0.0,0.0,0.0,0.0,0.0,0.0,0.0,0.0,0.0,0.0,0.0,0.0,0.0,0.0,0.0,0.0,0.0,0.0,0.0,0.0,0.0,0.0,0.0,0.0,0.0,0.0,0.0,0.0,0.0,0.0,0.0,0.0,0.0,0.0,0.0,0.0,0.0,0.0,0.0,0.0,0.0,0.0,0.0,0.0,0.0,0.0,0.0,0.0,0.0,0.0,0.0,0.0,0.0,0.0,0.0,0.0,0.0,0.0,0.0,0.0,0.0,0.0,0.0,0.0,0.0,0.0,0.0,0.0,0.0,0.0,0.0,0.0,0.0,0.0,0.0,0.0,0.0,0.0,0.0,0.0,0.0,0.0,0.0,0.0,0.0,0.0,0.0,0.0,0.0,0.0,0.0,0.0,0.0,0.0,0.0,0.0,0.0,0.0,0.0,0.0,0.0,0.0,0.0,0.0,0.0,0.0,0.0,0.0,0.0,0.0,0.0,0.0,0.0,0.0,0.0,0.0,0.0,0.0,0.0,0.0,0.0,0.0,0.0,0.0,0.0,0.0,0.0,0.0,0.0,0.0,0.0,0.0,0.0,0.0,0.0,0.0,0.0,0.0,0.0,0.0,0.0,0.0,0.0,0.0,0.0,0.0,0.0,0.0,0.0,0.0,0.0,0.0,0.0,0.0,0.0,0.0,0.0,0.0,0.0,0.0,0.0,0.0,0.0,0.0,0.0,0.0,0.0,0.0,0.0,0.0,0.0,0.0,0.0,0.0,0.0,0.0,0.0,0.0,0.0,0.0,0.0,0.0,0.0,0.0,0.0,0.0,0.0,0.0,0.0,0.0,0.0,0.0,0.0,0.0,0.0,0.0,0.0,0.0,0.0,0.0,0.0,0.0,0.0,0.0,0.0,0.0,0.0,0.0,0.0,0.0,0.0,0.0,0.0,0.0,0.0,0.0,0.0,0.0,0.0,0.0,0.0,0.0,0.0,0.0,0.0,0.0,0.0,0.0,0.0,0.0,0.0,0.0,0.0,0.0,0.0,0.0,0.0,0.0,0.0,0.0,0.0,0.0,0.0,0.0,0.0,0.0,0.0,0.0,0.0,0.0,0.0,0.0,0.0,0.0,0.0,0.0,0.0,0.0,0.0,0.0,0.0,0.0,0.0,0.0,0.0,0.0,0.0,0.0,0.0,0.0,0.0,0.0,0.0,0.0,0.0,0.0,0.0,0.0,0.0,0.0,0.0,0.0,0.0,0.0,0.0,0.0,0.0,0.0,0.0,0.0,0.0,0.0,0.0,0.0,0.0,0.0,0.0,0.0,0.0,0.0,0.0,0.0,0.0,0.0,0.0,0.0,0.0,0.0,0.0,0.0,0.0,0.0,0.0,0.0,0.0,0.0,0.0,0.0,0.0,0.0,0.0,0.0,0.0,0.0,0.0,0.0,0.0,0.0,0.0,0.0,0.0,0.0,0.0,0.0,0.0,0.0,0.0,0.0,0.0,0.0,0.0,0.0,0.0,0.0,0.0,0.0,0.0,0.0,0.0,0.0,0.0,0.0,0.0,0.0,0.0,0.0,0.0,0.0,0.0,0.0,0.0,0.0,0.0,0.0,0.0,0.0,0.0,0.0,0.0,0.0,0.0,0.0,0.0,0.0,0.0,0.0,0.0,0.0,0.0,0.0,0.0,0.0,0.0,0.0,0.0,0.0,0.0,0.0,0.0,0.0,0.0,0.0,0.0,0.0,0.0,0.0,0.0,0.0,0.0,0.0,0.0,0.0,0.0,0.0,0.0,0.0,0.0,0.0,0.0,0.0,0.0,0.0,0.0,0.0,0.0,0.0,0.0,0.0,0.0,0.0,0.0,0.0,0.0,0.0,0.0,0.0,0.0,0.0,0.0,0.0,0.0,0.0,0.0,0.0,0.0,0.0,0.0,0.0,0.0,0.0,0.0,0.0,0.0,0.0,0.0,0.0,0.0,0.0,0.0,0.0,0.0,0.0,0.0,0.0,0.0,0.0,0.0,0.0,0.0,0.0,0.0,0.0,0.0,0.0,0.0,0.0,0.0,0.0,0.0,0.0,0.0,0.0,0.0,0.0,0.0,0.0,0.0,0.0,0.0,0.0,0.0,0.0,0.0,0.0,0.0,0.0,0.0,0.0,0.0,0.0,0.0,0.0,0.0,0.0,0.0,0.0,0.0,0.0,0.0,0.0,0.0,0.0,0.0,0.0,0.0,0.0,0.0,0.0,0.0,0.0,0.0,0.0,0.0,0.0,0.0,0.0,0.0,0.0,0.0,0.0,0.0,0.0,0.0,0.0,0.0,0.0,0.0,0.0,0.0,0.0,0.0,0.0,0.0,0.0,0.0,0.0,0.0,0.0,0.0,0.0,0.0,0.0,0.0,0.0,0.0,0.0,0.0,0.0,0.0,0.0,0.0,0.0,0.0,0.0,0.0,0.0,0.0,0.0,0.0,0.0,0.0,0.0,0.0,0.0,0.0,0.0,0.0,0.0,0.0,0.0,0.0,0.0,0.0,0.0,0.0,0.0,-1.4225,0.0,0.0,0.0,0.0,0.0,0.0,0.0,0.0,0.0,0.0,0.0,0.0,0.0,0.0,0.0,0.0,0.0,0.0,0.0,0.0,0.0,0.0,0.0,0.0,0.0,0.0,0.0,0.0,0.0,0.0,0.0,0.0,0.0,0.0,0.0,0.0,0.0,0.0,0.0,0.0,0.0,0.0,0.0,0.0,0.0,0.0,0.0,0.0,0.0,0.0,0.0,0.0,0.0,0.0,0.0,0.0,0.0,0.0,0.0,0.0,0.0,0.0,0.0,0.0,0.0,0.0,0.0,0.0,0.0,0.0,0.0,0.0,0.0,0.0,0.0,0.0,0.0,0.0,0.0,0.0,0.0,0.0,0.0,0.0,0.0,0.0,0.0,0.0,0.0,0.0,0.0,0.0,0.0,0.0,0.0,0.0,0.0,0.0,0.0,0.0,0.0,0.0,0.0,0.0,0.0,0.0,0.0,0.0,0.0,0.0,-1.4312,-1.5398,-1.2662,-1.2349,-1.4912,0.0,0.0,0.0,0.0,0.0,0.0,0.0,0.0,0.0,0.0,0.0,0.0,0.0,0.0,0.0,0.0,0.0,0.0,0.0,0.0,0.0,0.0,0.0,0.0,0.0,0.0,0.0,0.0,0.0,0.0,0.0,0.0,0.0,0.0,0.0,0.0,0.0,0.0,0.0,0.0,0.0,0.0,0.0,0.0,0.0,0.0,0.0,0.0,0.0,0.0,0.0,0.0,0.0,0.0,0.0,0.0,0.0,0.0,0.0,0.0,0.0,0.0,0.0,0.0,0.0,0.0,0.0,0.0,0.0,0.0,0.0,0.0,0.0,0.0,0.0,0.0,0.0,0.0,0.0,0.0,0.0,0.0,0.0,0.0,0.0,0.0,0.0,0.0,0.0,0.0,0.0,0.0,0.0,0.0,0.0,0.0,0.0,0.0,0.0,0.0,0.0,0.0,0.0,0.0,0.0,0.0,0.0,0.0,0.0,0.0,0.0,0.0,-1.3363,-1.3167,-1.543,0.0,0.0,0.0,0.0,0.0,0.0,0.0,0.0,0.0,0.0,0.0,0.0,0.0,0.0,0.0,0.0,0.0,0.0,0.0,0.0,0.0,0.0,0.0,0.0,0.0,0.0,0.0,0.0,0.0,0.0,0.0,0.0,0.0,0.0,0.0,0.0,0.0,0.0,0.0,0.0,0.0,0.0,0.0,0.0,0.0,0.0,0.0,0.0,0.0,0.0,0.0,0.0,0.0,0.0,0.0,0.0,0.0,0.0,0.0,0.0,0.0,0.0,0.0,0.0,0.0,0.0,0.0,0.0,0.0,0.0,0.0,0.0,0.0,0.0,0.0,0.0,0.0,0.0,0.0,0.0,0.0,0.0,0.0,0.0,0.0,0.0,0.0,0.0,0.0,0.0,0.0,0.0,0.0,0.0,0.0,0.0,0.0,0.0,0.0,0.0,0.0,0.0,0.0,0.0,0.0,0.0,0.0,0.0,0.0,0.0,-1.5593,-1.6361,-1.5723,0.0,-1.6428,0.0,0.0,0.0,0.0,0.0,0.0,0.0,0.0,0.0,0.0,0.0,0.0,0.0,0.0,0.0,0.0,0.0,0.0,0.0,0.0,0.0,0.0,0.0,0.0,0.0,0.0,0.0,0.0,0.0,0.0,0.0,0.0,0.0,0.0,0.0,0.0,0.0,0.0,0.0,0.0,0.0,0.0,0.0,0.0,0.0,0.0,0.0,0.0,0.0,0.0,0.0,0.0,0.0,0.0,0.0,0.0,0.0,0.0,0.0,0.0,0.0,0.0,0.0,0.0,0.0,0.0,0.0,0.0,0.0,0.0,0.0,0.0,0.0,0.0,0.0,0.0,0.0,0.0,0.0,0.0,0.0,0.0,0.0,0.0,0.0,0.0,0.0,0.0,0.0,0.0,0.0,0.0,0.0,0.0,0.0,0.0,0.0,0.0,0.0,0.0,0.0,0.0,0.0,0.0,0.0,0.0,0.0,0.0,0.0,0.0,-1.6314,-1.7189,-1.6858,-1.6615,0.0,0.0,0.0,0.0,0.0,0.0,0.0,0.0,0.0,0.0,0.0,0.0,0.0,0.0,0.0,0.0,0.0,0.0,0.0,0.0,0.0,0.0,0.0,0.0,0.0,0.0,0.0,0.0,0.0,0.0,0.0,0.0,0.0,0.0,0.0,0.0,0.0,0.0,0.0,0.0,0.0,0.0,0.0,0.0,0.0,0.0,0.0,0.0,0.0,0.0,0.0,0.0,0.0,0.0,0.0,0.0,0.0,0.0,0.0,0.0,0.0,0.0,0.0,0.0,0.0,0.0,0.0,0.0,0.0,0.0,0.0,0.0,0.0,0.0,0.0,0.0,0.0,0.0,0.0,0.0,0.0,0.0,0.0,0.0,0.0,0.0,0.0,0.0,0.0,0.0,0.0,0.0,0.0,0.0,0.0,0.0,0.0,0.0,0.0,0.0,0.0,0.0,0.0,0.0,0.0,0.0,0.0,0.0,0.0,0.0,-1.623,-1.6819,-1.7668,-1.7216,-1.6791,-1.6527,0.0,0.0,0.0,0.0,0.0,0.0,0.0,0.0,0.0,0.0,0.0,0.0,0.0,0.0,0.0,0.0,0.0,0.0,0.0,0.0,0.0,0.0,0.0,0.0,0.0,0.0,0.0,0.0,0.0,0.0,0.0,0.0,0.0,0.0,0.0,0.0,0.0,0.0,0.0,0.0,0.0,0.0,0.0,0.0,0.0,0.0,0.0,0.0,0.0,0.0,0.0,0.0,0.0,0.0,0.0,0.0,0.0,0.0,0.0,0.0,0.0,0.0,0.0,0.0,0.0,0.0,0.0,0.0,0.0,0.0,0.0,0.0,0.0,0.0,0.0,0.0,0.0,0.0,0.0,0.0,0.0,0.0,0.0,0.0,0.0,0.0,0.0,0.0,0.0,0.0,0.0,0.0,0.0,0.0,0.0,0.0,0.0,0.0,0.0,0.0,0.0,0.0,0.0,0.0,0.0,0.0,0.0,0.0,-1.6636,-1.6572,-1.6981,-1.7898,-1.6682,-1.6202,0.0,0.0,0.0,0.0,0.0,0.0,0.0,0.0,0.0,0.0,0.0,0.0,0.0,0.0,0.0,0.0,0.0,0.0,0.0,0.0,0.0,0.0,0.0,0.0,0.0,0.0,0.0,0.0,0.0,0.0,0.0,0.0,0.0,0.0,0.0,0.0,0.0,0.0,0.0,0.0,0.0,0.0,0.0,0.0,0.0,0.0,0.0,0.0,0.0,0.0,0.0,0.0,0.0,0.0,0.0,0.0,0.0,0.0,0.0,0.0,0.0,0.0,0.0,0.0,0.0,0.0,0.0,0.0,0.0,0.0,0.0,0.0,0.0,0.0,0.0,0.0,0.0,0.0,0.0,0.0,0.0,0.0,0.0,0.0,0.0,0.0,0.0,0.0,0.0,0.0,0.0,0.0,0.0,0.0,0.0,0.0,0.0,0.0,0.0,0.0,0.0,0.0,0.0,0.0,0.0,0.0,0.0,0.0,0.0,-1.5303,-1.6048,-1.6599,-1.6932,-1.6315,-1.6089,0.0,0.0,0.0,0.0,0.0,0.0,0.0,0.0,0.0,0.0,0.0,0.0,0.0,0.0,0.0,0.0,0.0,0.0,0.0,0.0,0.0,0.0,0.0,0.0,0.0,0.0,0.0,0.0,0.0,0.0,0.0,0.0,0.0,0.0,0.0,0.0,0.0,0.0,0.0,0.0,0.0,0.0,0.0,0.0,0.0,0.0,0.0,0.0,0.0,0.0,0.0,0.0,0.0,0.0,0.0,0.0,0.0,0.0,0.0,0.0,0.0,0.0,0.0,0.0,0.0,0.0,0.0,0.0,0.0,0.0,0.0,0.0,0.0,0.0,0.0,0.0,0.0,0.0,0.0,0.0,0.0,0.0,0.0,0.0,0.0,0.0,0.0,0.0,0.0,0.0,0.0,0.0,0.0,0.0,0.0,0.0,0.0,0.0,0.0,0.0,0.0,0.0,0.0,0.0,0.0,0.0,0.0,0.0,0.0,-1.4727,0.0,-1.5946,-1.6134,-1.5741,-1.5529,0.0,0.0,0.0,0.0,0.0,0.0,0.0,0.0,0.0,0.0,0.0,0.0,0.0,0.0,0.0,0.0,0.0,0.0,0.0,0.0,0.0,0.0,0.0,0.0,0.0,0.0,0.0,0.0,0.0,0.0,0.0,0.0,0.0,0.0,0.0,0.0,0.0,0.0,0.0,0.0,0.0,0.0,0.0,0.0,0.0,0.0,0.0,0.0,0.0,0.0,0.0,0.0,0.0,0.0,0.0,0.0,0.0,0.0,0.0,0.0,0.0,0.0,0.0,0.0,0.0,0.0,0.0,0.0,0.0,0.0,0.0,0.0,0.0,0.0,0.0,0.0,0.0,0.0,0.0,0.0,0.0,0.0,0.0,0.0,0.0,0.0,0.0,0.0,0.0,0.0,0.0,0.0,0.0,0.0,0.0,0.0,0.0,0.0,0.0,0.0,0.0,0.0,0.0,0.0,0.0,0.0,0.0,0.0,-1.4226,-1.5128,-1.4835,-1.5008,-1.5585,-1.4895,-1.4513,0.0,0.0,0.0,0.0,0.0,0.0,0.0,0.0,0.0,0.0,0.0,0.0,0.0,0.0,0.0,0.0,0.0,0.0,0.0,0.0,0.0,0.0,0.0,0.0,0.0,0.0,0.0,0.0,0.0,0.0,0.0,0.0,0.0,0.0,0.0,0.0,0.0,0.0,0.0,0.0,0.0,0.0,0.0,0.0,0.0,0.0,0.0,0.0,0.0,0.0,0.0,0.0,0.0,0.0,0.0,0.0,0.0,0.0,0.0,0.0,0.0,0.0,0.0,0.0,0.0,0.0,0.0,0.0,0.0,0.0,0.0,0.0,0.0,0.0,0.0,0.0,0.0,0.0,0.0,0.0,0.0,0.0,0.0,0.0,0.0,0.0,0.0,0.0,0.0,0.0,0.0,0.0,0.0,0.0,0.0,0.0,0.0,0.0,0.0,0.0,0.0,0.0,0.0,0.0,0.0,0.0,0.0,0.0,0.0,-1.4309,-1.3771,-1.4366,-1.6116,-1.44,-1.413,0.0,0.0,0.0,0.0,0.0,0.0,0.0,0.0,0.0,0.0,0.0,0.0,0.0,0.0,0.0,0.0,0.0,0.0,0.0,0.0,0.0,0.0,0.0,0.0,0.0,0.0,0.0,0.0,0.0,0.0,0.0,0.0,0.0,0.0,0.0,0.0,0.0,0.0,0.0,0.0,0.0,0.0,0.0,0.0,0.0,0.0,0.0,0.0,0.0,0.0,0.0,0.0,0.0,0.0,0.0,0.0,0.0,0.0,0.0,0.0,0.0,0.0,0.0,0.0,0.0,0.0,0.0,0.0,0.0,0.0,0.0,0.0,0.0,0.0,0.0,0.0,0.0,0.0,0.0,0.0,0.0,0.0,0.0,0.0,0.0,0.0,0.0,0.0,0.0,0.0,0.0,0.0,0.0,0.0,0.0,0.0,0.0,0.0,0.0,0.0,0.0,0.0,0.0,0.0,0.0,0.0,0.0,0.0,0.0,-1.4289,-1.3726,-1.415,-1.5745,-1.4507,-1.4167,-1.4891,0.0,0.0,0.0,0.0,0.0,0.0,0.0,0.0,0.0,0.0,0.0,0.0,0.0,0.0,0.0,0.0,0.0,0.0,0.0,0.0,0.0,0.0,0.0,0.0,0.0,0.0,0.0,0.0,0.0,0.0,0.0,0.0,0.0,0.0,0.0,0.0,0.0,0.0,0.0,0.0,0.0,0.0,0.0,0.0,0.0,0.0,0.0,0.0,0.0,0.0,0.0,0.0,0.0,0.0,0.0,0.0,0.0,0.0,0.0,0.0,0.0,0.0,0.0,0.0,0.0,0.0,0.0,0.0,0.0,0.0,0.0,0.0,0.0,0.0,0.0,0.0,0.0,0.0,0.0,0.0,0.0,0.0,0.0,0.0,0.0,0.0,0.0,0.0,0.0,0.0,0.0,0.0,0.0,0.0,0.0,0.0,0.0,0.0,0.0,0.0,0.0,0.0,0.0,0.0,0.0,0.0,0.0,0.0,-1.4948,-1.4601,-1.4486,-1.4708,-1.5136,-1.458,0.0,0.0,0.0,0.0,0.0,0.0,0.0,0.0,0.0,0.0,0.0,0.0,0.0,0.0,0.0,0.0,0.0,0.0,0.0,0.0,0.0,0.0,0.0,0.0,0.0,0.0,0.0,0.0,0.0,0.0,0.0,0.0,0.0,0.0,0.0,0.0,0.0,0.0,0.0,0.0,0.0,0.0,0.0,0.0,0.0,0.0,0.0,0.0,0.0,0.0,0.0,0.0,0.0,0.0,0.0,0.0,0.0,0.0,0.0,0.0,0.0,0.0,0.0,0.0,0.0,0.0,0.0,0.0,0.0,0.0,0.0,0.0,0.0,0.0,0.0,0.0,0.0,0.0,0.0,0.0,0.0,0.0,0.0,0.0,0.0,0.0,0.0,0.0,0.0,0.0,0.0,0.0,0.0,0.0,0.0,0.0,0.0,0.0,0.0,0.0,0.0,0.0,0.0,0.0,0.0,0.0,0.0,0.0,0.0,-1.469,-1.597,-1.689,-1.7439,-1.5938,-1.4948,0.0,0.0,0.0,0.0,0.0,0.0,0.0,0.0,0.0,0.0,0.0,0.0,0.0,0.0,0.0,0.0,0.0,0.0,0.0,0.0,0.0,0.0,0.0,0.0,0.0,0.0,0.0,0.0,0.0,0.0,0.0,0.0,0.0,0.0,0.0,0.0,0.0,0.0,0.0,0.0,0.0,0.0,0.0,0.0,0.0,0.0,0.0,0.0,0.0,0.0,0.0,0.0,0.0,0.0,0.0,0.0,0.0,0.0,0.0,0.0,0.0,0.0,0.0,0.0,0.0,0.0,0.0,0.0,0.0,0.0,0.0,0.0,0.0,0.0,0.0,0.0,0.0,0.0,0.0,0.0,0.0,0.0,0.0,0.0,0.0,0.0,0.0,0.0,0.0,0.0,0.0,0.0,0.0,0.0,0.0,0.0,0.0,0.0,0.0,0.0,0.0,0.0,0.0,0.0,0.0,0.0,0.0,0.0,-1.413,-1.5272,-1.7535,-1.8917,-1.9343,-1.7443,-1.5782,0.0,0.0,0.0,0.0,0.0,0.0,0.0,0.0,0.0,0.0,0.0,0.0,0.0,0.0,0.0,0.0,0.0,0.0,0.0,0.0,0.0,0.0,0.0,0.0,0.0,0.0,0.0,0.0,0.0,0.0,0.0,0.0,0.0,0.0,0.0,0.0,0.0,0.0,0.0,0.0,0.0,0.0,0.0,0.0,0.0,0.0,0.0,0.0,0.0,0.0,0.0,0.0,0.0,0.0,0.0,0.0,0.0,0.0,0.0,0.0,0.0,0.0,0.0,0.0,0.0,0.0,0.0,0.0,0.0,0.0,0.0,0.0,0.0,0.0,0.0,0.0,0.0,0.0,0.0,0.0,0.0,0.0,0.0,0.0,0.0,0.0,0.0,0.0,0.0,0.0,0.0,0.0,0.0,0.0,0.0,0.0,0.0,0.0,0.0,0.0,0.0,0.0,0.0,0.0,0.0,0.0,0.0,0.0,-1.4777,-1.6056,-1.8775,-2.0286,-2.0326,-1.8998,-1.6782,0.0,0.0,0.0,0.0,0.0,0.0,0.0,0.0,0.0,0.0,0.0,0.0,0.0,0.0,0.0,0.0,0.0,0.0,0.0,0.0,0.0,0.0,0.0,0.0,0.0,0.0,0.0,0.0,0.0,0.0,0.0,0.0,0.0,0.0,0.0,0.0,0.0,0.0,0.0,0.0,0.0,0.0,0.0,0.0,0.0,0.0,0.0,0.0,0.0,0.0,0.0,0.0,0.0,0.0,0.0,0.0,0.0,0.0,0.0,0.0,0.0,0.0,0.0,0.0,0.0,0.0,0.0,0.0,0.0,0.0,0.0,0.0,0.0,0.0,0.0,0.0,0.0,0.0,0.0,0.0,0.0,0.0,0.0,0.0,0.0,0.0,0.0,0.0,0.0,0.0,0.0,0.0,0.0,0.0,0.0,0.0,0.0,0.0,0.0,0.0,0.0,0.0,0.0,0.0,0.0,0.0,0.0,0.0,-1.4305,-1.5275,-1.7751,-1.9456,-2.0273,-1.8697,-1.6799,0.0,0.0,0.0,0.0,0.0,0.0,0.0,0.0,0.0,0.0,0.0,0.0,0.0,0.0,0.0,0.0,0.0,0.0,0.0,0.0,0.0,0.0,0.0,0.0,0.0,0.0,0.0,0.0,0.0,0.0,0.0,0.0,0.0,0.0,0.0,0.0,0.0,0.0,0.0,0.0,0.0,0.0,0.0,0.0,0.0,0.0,0.0,0.0,-1.3689,0.0,0.0,0.0,0.0,0.0,0.0,0.0,0.0,0.0,0.0,0.0,0.0,0.0,0.0,0.0,0.0,0.0,0.0,0.0,0.0,0.0,0.0,0.0,0.0,0.0,0.0,0.0,0.0,0.0,0.0,0.0,0.0,0.0,0.0,0.0,0.0,0.0,0.0,0.0,0.0,0.0,0.0,0.0,0.0,0.0,0.0,0.0,0.0,0.0,0.0,0.0,0.0,0.0,0.0,0.0,0.0,0.0,0.0,0.0,-1.4216,-1.5438,-1.7639,-1.9224,-1.9996,-1.8511,-1.6927,0.0,0.0,0.0,0.0,0.0,0.0,0.0,0.0,0.0,0.0,0.0,0.0,0.0,0.0,0.0,0.0,0.0,0.0,0.0,0.0,0.0,0.0,0.0,0.0,0.0,0.0,0.0,0.0,0.0,0.0,0.0,0.0,0.0,0.0,0.0,0.0,0.0,0.0,0.0,0.0,0.0,0.0,0.0,0.0,0.0,0.0,0.0,0.0,0.0,0.0,0.0,0.0,0.0,0.0,0.0,0.0,0.0,0.0,0.0,0.0,0.0,0.0,0.0,0.0,0.0,0.0,0.0,0.0,0.0,0.0,0.0,0.0,0.0,0.0,0.0,0.0,0.0,0.0,0.0,0.0,0.0,0.0,0.0,0.0,0.0,0.0,0.0,0.0,0.0,0.0,0.0,0.0,0.0,0.0,0.0,0.0,0.0,0.0,0.0,0.0,0.0,0.0,0.0,0.0,0.0,0.0,0.0,-1.2871,-1.4366,-1.5921,-1.78,-1.9041,-1.9609,-1.831,-1.7058,-1.5975,0.0,0.0,0.0,0.0,0.0,0.0,0.0,0.0,0.0,0.0,0.0,0.0,0.0,0.0,0.0,0.0,0.0,0.0,0.0,0.0,0.0,0.0,0.0,0.0,0.0,0.0,0.0,0.0,0.0,0.0,0.0,0.0,0.0,0.0,0.0,0.0,0.0,0.0,-1.0548,-1.0749,0.0,0.0,0.0,0.0,0.0,0.0,0.0,0.0,-1.1523,0.0,0.0,0.0,0.0,0.0,0.0,0.0,0.0,0.0,0.0,0.0,0.0,0.0,0.0,0.0,0.0,0.0,0.0,0.0,0.0,0.0,0.0,0.0,0.0,0.0,0.0,0.0,0.0,0.0,0.0,0.0,0.0,0.0,0.0,0.0,0.0,0.0,0.0,0.0,0.0,0.0,0.0,0.0,0.0,0.0,0.0,0.0,0.0,0.0,0.0,0.0,0.0,0.0,0.0,0.0,0.0,-1.1737,-1.3284,-1.4738,-1.603,-1.7541,-1.838,-1.8454,-1.7848,-1.6952,-1.5687,0.0,0.0,0.0,0.0,0.0,0.0,0.0,0.0,0.0,0.0,0.0,0.0,0.0,0.0,0.0,0.0,0.0,0.0,0.0,0.0,0.0,0.0,0.0,0.0,0.0,0.0,0.0,0.0,0.0,0.0,0.0,0.0,0.0,0.0,0.0,0.0,0.0,0.0,0.0,-1.1027,-1.1196,0.0,0.0,0.0,0.0,0.0,0.0,0.0,0.0,-1.1567,0.0,0.0,0.0,0.0,0.0,0.0,0.0,0.0,0.0,0.0,0.0,0.0,0.0,0.0,0.0,0.0,0.0,0.0,0.0,0.0,0.0,0.0,0.0,0.0,0.0,0.0,0.0,0.0,0.0,0.0,0.0,0.0,0.0,0.0,0.0,0.0,0.0,0.0,0.0,0.0,0.0,0.0,0.0,0.0,0.0,0.0,0.0,0.0,0.0,0.0,0.0,0.0,0.0,0.0,0.0,-1.226,-1.3518,-1.4733,-1.585,-1.6982,-1.7744,-1.8057,-1.7119,-1.6273,0.0,0.0,0.0,0.0,0.0,0.0,0.0,0.0,0.0,0.0,0.0,0.0,0.0,0.0,0.0,0.0,0.0,0.0,0.0,0.0,0.0,0.0,0.0,0.0,0.0,0.0,0.0,0.0,0.0,0.0,0.0,0.0,0.0,0.0,0.0,0.0,0.0,0.0,0.0,0.0,-1.1097,-1.1142,-1.117,0.0,0.0,0.0,0.0,0.0,0.0,-1.1575,-1.1519,0.0,0.0,0.0,0.0,0.0,0.0,0.0,0.0,0.0,0.0,0.0,0.0,0.0,0.0,0.0,0.0,0.0,0.0,0.0,0.0,0.0,0.0,0.0,0.0,0.0,0.0,0.0,0.0,0.0,0.0,0.0,0.0,0.0,0.0,0.0,0.0,0.0,0.0,0.0,0.0,0.0,0.0,0.0,0.0,0.0,0.0,0.0,0.0,0.0,0.0,0.0,0.0,0.0,0.0,0.0,-1.224,-1.3515,-1.4567,-1.5399,-1.6432,-1.7201,-1.7642,-1.6282,-1.5487,0.0,0.0,0.0,0.0,0.0,0.0,0.0,0.0,0.0,0.0,0.0,0.0,0.0,0.0,0.0,0.0,0.0,0.0,0.0,0.0,0.0,0.0,0.0,0.0,0.0,0.0,0.0,0.0,0.0,0.0,0.0,0.0,0.0,0.0,0.0,0.0,0.0,0.0,0.0,0.0,0.0,-1.1134,-1.1543,-1.1444,0.0,0.0,0.0,0.0,-1.0861,-1.1365,0.0,0.0,0.0,0.0,0.0,0.0,0.0,0.0,0.0,0.0,0.0,0.0,0.0,0.0,0.0,0.0,0.0,0.0,0.0,0.0,0.0,0.0,0.0,0.0,0.0,0.0,0.0,0.0,0.0,0.0,0.0,0.0,0.0,0.0,0.0,0.0,0.0,0.0,0.0,0.0,0.0,0.0,0.0,0.0,0.0,0.0,0.0,0.0,0.0,0.0,0.0,0.0,0.0,0.0,0.0,0.0,-1.1024,-1.2966,-1.4118,-1.4436,-1.6095,-1.6851,-1.6568,-1.5495,-1.4848,0.0,0.0,0.0,0.0,0.0,0.0,0.0,0.0,0.0,0.0,0.0,0.0,0.0,0.0,0.0,0.0,0.0,0.0,0.0,0.0,0.0,0.0,0.0,0.0,0.0,0.0,0.0,0.0,0.0,0.0,0.0,0.0,0.0,0.0,0.0,0.0,0.0,0.0,0.0,0.0,0.0,-1.1335,-1.1564,-1.1527,-1.142,0.0,0.0,-1.1522,-1.2226,-1.256,0.0,0.0,0.0,0.0,0.0,0.0,0.0,0.0,0.0,0.0,0.0,0.0,0.0,0.0,0.0,0.0,0.0,0.0,0.0,0.0,0.0,0.0,0.0,0.0,0.0,0.0,0.0,0.0,0.0,0.0,0.0,0.0,0.0,0.0,0.0,0.0,0.0,0.0,0.0,0.0,0.0,0.0,0.0,0.0,0.0,0.0,0.0,0.0,0.0,0.0,0.0,0.0,0.0,0.0,0.0,-1.1664,-1.1447,-1.3197,-1.4128,-1.4221,-1.582,-1.6581,-1.6413,-1.4615,-1.3966,0.0,0.0,0.0,0.0,0.0,0.0,0.0,0.0,0.0,0.0,0.0,0.0,0.0,0.0,0.0,0.0,0.0,0.0,0.0,0.0,0.0,0.0,0.0,0.0,0.0,0.0,0.0,0.0,0.0,0.0,0.0,0.0,0.0,0.0,0.0,0.0,0.0,0.0,0.0,0.0,0.0,0.0,-1.1479,-1.1784,0.0,0.0,0.0,-1.1995,-1.207,0.0,0.0,0.0,0.0,0.0,0.0,0.0,0.0,0.0,0.0,0.0,0.0,0.0,0.0,0.0,0.0,0.0,0.0,0.0,0.0,0.0,0.0,0.0,0.0,0.0,0.0,0.0,0.0,0.0,0.0,0.0,0.0,0.0,0.0,0.0,0.0,0.0,0.0,0.0,0.0,0.0,0.0,0.0,0.0,0.0,0.0,0.0,0.0,0.0,0.0,0.0,0.0,0.0,0.0,0.0,0.0,0.0,-1.1762,-1.3214,-1.4031,-1.4221,-1.5637,-1.6402,-1.6361,-1.429,0.0,0.0,0.0,0.0,0.0,0.0,0.0,0.0,0.0,0.0,0.0,0.0,0.0,0.0,0.0,0.0,0.0,0.0,0.0,0.0,0.0,0.0,0.0,0.0,0.0,0.0,0.0,-1.0791,0.0,0.0,0.0,0.0,0.0,0.0,0.0,0.0,0.0,0.0,0.0,0.0,0.0,0.0,-1.1418,-1.1418,-1.1901,-1.2142,0.0,0.0,-1.2246,-1.1965,-1.2667,-1.2905,0.0,0.0,0.0,0.0,0.0,0.0,0.0,0.0,0.0,0.0,0.0,0.0,0.0,0.0,0.0,0.0,0.0,0.0,0.0,0.0,0.0,0.0,0.0,0.0,0.0,0.0,0.0,0.0,0.0,0.0,0.0,0.0,0.0,0.0,0.0,0.0,0.0,0.0,0.0,0.0,0.0,0.0,0.0,0.0,0.0,0.0,0.0,0.0,0.0,0.0,0.0,0.0,0.0,0.0,0.0,-1.1344,-1.2626,-1.3565,-1.4221,-1.5637,-1.6402,-1.6381,-1.4898,-1.4195,0.0,0.0,0.0,0.0,0.0,0.0,0.0,0.0,0.0,0.0,0.0,0.0,0.0,0.0,0.0,0.0,0.0,0.0,0.0,0.0,0.0,0.0,0.0,0.0,0.0,0.0,0.0,0.0,0.0,0.0,0.0,0.0,0.0,0.0,0.0,0.0,0.0,0.0,0.0,0.0,0.0,-1.1509,-1.1499,-1.17,-1.1879,0.0,0.0,-1.2085,-1.2453,-1.3152,-1.3257,-1.2083,0.0,0.0,0.0,0.0,0.0,0.0,0.0,0.0,0.0,0.0,0.0,0.0,0.0,0.0,0.0,0.0,0.0,0.0,0.0,0.0,0.0,0.0,0.0,0.0,0.0,0.0,0.0,0.0,0.0,0.0,0.0,0.0,0.0,0.0,0.0,0.0,0.0,0.0,0.0,0.0,0.0,0.0,0.0,0.0,0.0,0.0,0.0,0.0,0.0,0.0,0.0,0.0,0.0,-1.1131,-1.1175,-1.2761,-1.3692,-1.4009,-1.5431,-1.6239,-1.621,-1.4949,-1.422,0.0,0.0,0.0,0.0,0.0,0.0,0.0,0.0,0.0,0.0,0.0,0.0,0.0,0.0,0.0,0.0,0.0,0.0,0.0,0.0,0.0,0.0,0.0,0.0,0.0,0.0,0.0,0.0,-1.1688,-1.1785,-1.1415,0.0,0.0,0.0,0.0,0.0,0.0,0.0,0.0,0.0,0.0,-1.1644,-1.1894,-1.229,0.0,0.0,-1.2312,-1.2483,-1.2362,-1.283,-1.286,-1.1763,-1.163,0.0,0.0,0.0,0.0,0.0,0.0,0.0,0.0,0.0,0.0,0.0,0.0,0.0,0.0,0.0,0.0,0.0,0.0,0.0,0.0,0.0,0.0,0.0,0.0,0.0,0.0,0.0,0.0,0.0,0.0,0.0,0.0,0.0,0.0,0.0,0.0,0.0,0.0,0.0,0.0,0.0,0.0,0.0,0.0,0.0,0.0,0.0,0.0,0.0,0.0,0.0,0.0,-1.1269,-1.1258,-1.2743,-1.3632,-1.3909,-1.5294,-1.6038,-1.6007,-1.5073,-1.4486,0.0,0.0,0.0,0.0,0.0,0.0,0.0,0.0,0.0,0.0,0.0,0.0,0.0,0.0,0.0,0.0,0.0,0.0,0.0,0.0,0.0,0.0,0.0,0.0,0.0,0.0,0.0,0.0,-1.1629,-1.172,-1.1335,0.0,0.0,0.0,0.0,0.0,0.0,0.0,0.0,0.0,0.0,-1.183,-1.2008,-1.2436,-1.2668,-1.2449,-1.2554,-1.2666,-1.2603,-1.2706,-1.2531,-1.1763,0.0,0.0,0.0,0.0,0.0,0.0,0.0,0.0,0.0,0.0,0.0,0.0,0.0,0.0,0.0,0.0,0.0,0.0,0.0,0.0,0.0,0.0,0.0,0.0,0.0,0.0,0.0,0.0,0.0,0.0,-1.2031,0.0,0.0,0.0,0.0,0.0,0.0,0.0,0.0,0.0,0.0,0.0,0.0,0.0,0.0,0.0,0.0,0.0,0.0,0.0,0.0,0.0,0.0,-1.0981,-1.1595,-1.2434,-1.3295,-1.4185,-1.531,-1.5924,-1.5914,-1.5433,-1.5071,-1.4784,0.0,0.0,0.0,0.0,0.0,0.0,0.0,0.0,0.0,0.0,0.0,0.0,0.0,0.0,0.0,0.0,0.0,0.0,0.0,0.0,0.0,0.0,0.0,0.0,0.0,0.0,-1.0978,-1.0746,-1.0686,0.0,0.0,0.0,0.0,0.0,0.0,0.0,0.0,0.0,0.0,-1.1604,-1.2031,-1.1663,-1.1966,-1.2377,-1.2807,-1.25,-1.2496,-1.332,-1.2916,-1.2425,0.0,0.0,0.0,0.0,0.0,0.0,0.0,0.0,0.0,0.0,0.0,0.0,0.0,0.0,0.0,0.0,0.0,0.0,0.0,0.0,0.0,0.0,0.0,0.0,0.0,0.0,0.0,-1.4104,-1.4291,0.0,0.0,0.0,0.0,0.0,0.0,0.0,0.0,0.0,0.0,0.0,-1.3614,-1.4147,0.0,0.0,0.0,0.0,0.0,0.0,0.0,0.0,0.0,0.0,0.0,0.0,-1.1676,-1.2125,-1.278,-1.3518,-1.4258,-1.5021,-1.5544,-1.5769,-1.5687,-1.5511,-1.5195,0.0,0.0,0.0,0.0,0.0,0.0,0.0,0.0,0.0,0.0,0.0,0.0,0.0,0.0,0.0,0.0,0.0,0.0,0.0,0.0,0.0,0.0,0.0,0.0,0.0,-1.1196,0.0,0.0,0.0,0.0,0.0,0.0,0.0,0.0,0.0,0.0,0.0,-1.1347,-1.1567,-1.1412,-1.1342,-1.1587,-1.1712,-1.1966,0.0,0.0,0.0,0.0,0.0,0.0,0.0,0.0,0.0,0.0,0.0,0.0,0.0,0.0,-1.218,-1.0989,-1.1169,-1.1404,-1.112,0.0,0.0,0.0,0.0,0.0,0.0,0.0,0.0,0.0,0.0,0.0,0.0,0.0,0.0,-1.5665,0.0,-1.5682,0.0,0.0,0.0,0.0,0.0,0.0,0.0,0.0,-1.4018,-1.4517,-1.4801,-1.5259,-1.5424,0.0,-1.4881,-1.408,0.0,0.0,0.0,0.0,0.0,0.0,0.0,0.0,-1.1874,-1.2097,-1.2833,-1.3481,-1.402,-1.489,-1.5371,-1.5427,-1.5625,-1.5604,-1.541,-1.4481,-1.3978,0.0,0.0,0.0,0.0,0.0,0.0,0.0,0.0,0.0,0.0,0.0,0.0,0.0,0.0,0.0,0.0,0.0,0.0,0.0,0.0,0.0,0.0,0.0,-1.1317,0.0,0.0,0.0,0.0,0.0,0.0,0.0,0.0,0.0,-1.1641,-1.1582,-1.1669,-1.2062,-1.1618,-1.1383,-1.164,0.0,0.0,0.0,0.0,0.0,0.0,0.0,-1.2096,-1.2397,-1.2258,-1.2169,-1.2391,-1.2748,-1.2992,-1.2999,0.0,0.0,-1.1781,-1.1953,-1.2184,-1.195,-1.2199,-1.2483,-1.2467,-1.2421,-1.2316,0.0,0.0,0.0,0.0,0.0,0.0,0.0,0.0,-1.7329,-1.7288,0.0,-1.6978,0.0,0.0,0.0,0.0,0.0,-1.4483,0.0,0.0,-1.5882,-1.6308,-1.5615,-1.5944,-1.6093,-1.6053,-1.5909,-1.5582,-1.5042,-1.3635,0.0,0.0,0.0,0.0,0.0,0.0,-1.1628,-1.1648,-1.2575,-1.3202,-1.3584,-1.4837,-1.5328,-1.4932,-1.5229,-1.541,-1.5381,-1.5264,-1.5003,-1.4628,-1.4346,0.0,0.0,0.0,0.0,0.0,0.0,0.0,0.0,0.0,0.0,0.0,0.0,0.0,0.0,0.0,0.0,0.0,0.0,0.0,0.0,-1.1293,0.0,0.0,0.0,0.0,0.0,0.0,0.0,0.0,0.0,0.0,-1.1687,-1.1911,-1.2174,-1.2253,0.0,0.0,0.0,0.0,-1.2729,-1.2291,-1.2607,-1.3042,-1.3457,-1.3266,-1.3195,-1.3439,0.0,0.0,-1.3801,-1.3093,-1.2701,-1.2992,-1.3287,-1.3199,-1.2632,-1.2796,-1.2902,-1.2559,-1.2815,-1.2905,-1.2607,-1.2691,-1.2563,-1.8863,0.0,0.0,0.0,0.0,-1.8715,-1.9667,-2.0907,-2.0993,-2.0684,-2.0114,-1.9918,0.0,0.0,0.0,0.0,0.0,0.0,-1.525,-1.5529,-1.6486,-1.7001,-1.7157,-1.7751,-1.7858,-1.7613,-1.7031,-1.6525,-1.6141,-1.517,-1.4322,-1.3616,0.0,0.0,0.0,0.0,-1.2508,-1.3046,-1.3269,-1.3633,-1.421,-1.4378,-1.4611,-1.4889,-1.5007,-1.5145,-1.5391,-1.5362,-1.5255,-1.5032,-1.5223,0.0,0.0,0.0,0.0,0.0,0.0,0.0,0.0,0.0,0.0,0.0,0.0,0.0,0.0,0.0,0.0,0.0,0.0,0.0,-1.1509,-1.1712,-1.1576,0.0,0.0,0.0,0.0,0.0,0.0,0.0,0.0,0.0,-1.2419,-1.1586,-1.1183,0.0,0.0,-1.1235,-1.1672,-1.2107,-1.2457,-1.2676,-1.2827,0.0,-1.3821,-1.3546,-1.3372,-1.3784,-1.4127,-1.4351,-1.424,-1.4379,-1.4578,-1.4675,-1.4779,-1.473,-1.4576,-1.4096,-1.3751,-1.3661,-1.3987,-1.4239,-1.416,-1.4138,-1.4099,-2.2115,-2.0906,-1.9293,-1.9278,-2.0348,-2.1002,-2.2044,-2.317,-2.3422,-2.3175,-2.2542,-2.2191,-2.0722,-1.841,-1.733,0.0,0.0,0.0,-1.67,-1.7356,-1.7774,-1.819,-1.8666,-1.9042,-1.9011,-1.8579,-1.7956,-1.7462,-1.7002,-1.5977,-1.5304,-1.4896,0.0,0.0,-1.3334,-1.3098,-1.3185,-1.3666,-1.3822,-1.4037,-1.4292,-1.4108,-1.4454,-1.535,-1.5065,-1.5204,-1.5877,-1.5762,-1.5722,-1.5806,-1.5986,-1.5758,0.0,0.0,0.0,0.0,0.0,0.0,0.0,0.0,0.0,0.0,0.0,-1.1705,0.0,0.0,0.0,0.0,-1.1985,-1.2084,-1.202,-1.2092,0.0,0.0,0.0,0.0,0.0,0.0,0.0,-1.258,-1.2728,-1.2874,-1.2886,-1.2049,-1.1668,-1.2349,-1.1899,-1.1682,-1.2181,0.0,-1.3003,-1.3125,-1.3271,-1.3545,-1.4016,-1.3992,-1.4043,-1.4479,-1.4751,-1.4887,-1.484,-1.5129,-1.541,-1.542,-1.542,-1.542,-1.542,-1.498,-1.4611,-1.4621,-1.4844,-1.4971,-1.4824,-1.4912,-1.499,-2.4807,-2.4736,-2.1944,-2.123,-2.2079,-2.3143,-2.4131,-2.4963,-2.506,-2.4929,-2.4675,-2.3826,-2.251,-2.0749,-1.8712,0.0,-1.8222,-1.8198,-1.8619,-1.9455,-1.9471,-1.9614,-1.9909,-1.9901,-1.9597,-1.9051,-1.8749,-1.8295,-1.7721,-1.6403,-1.5864,-1.6131,-1.4998,-1.412,-1.3572,-1.3744,-1.3864,-1.3836,-1.4316,-1.4418,-1.4132,-1.4109,-1.477,-1.6184,-1.5455,-1.5542,-1.6636,-1.6338,-1.6309,-1.6677,-1.6641,-1.6545,-1.6487,0.0,0.0,0.0,0.0,0.0,0.0,0.0,0.0,0.0,0.0,0.0,0.0,0.0,0.0,0.0,-1.3063,0.0,-1.2748,-1.2595,0.0,0.0,0.0,-1.3244,-1.3763,-1.382,-1.3821,-1.3742,0.0,0.0,-1.3268,-1.3052,-1.3125,-1.3718,-1.3298,-1.2983,-1.316,-1.3707,-1.4016,-1.3682,-1.3938,-1.4211,-1.4299,-1.4552,-1.4912,-1.5235,-1.542,-1.5362,-1.5362,-1.5371,-1.541,-1.542,-1.542,-1.542,-1.542,-1.5371,-1.541,-1.5371,-1.5391,-1.5283,-1.4999,-1.5137,-1.5293,-2.5697,-2.5376,-2.4897,-2.4578,-2.4463,-2.5506,-2.6116,-2.6408,-2.7164,-2.6838,-2.5653,-2.4995,-2.3471,-2.1445,-2.052,-2.0126,-2.0182,-1.997,-1.9979,-2.013,-1.9868,-1.9837,-1.9909,-1.9909,-1.982,-1.9636,-1.8945,-1.8552,-1.8358,-1.7362,-1.6777,-1.6558,-1.624,-1.56,-1.4658,-1.4932,-1.5018,-1.4904,-1.5021,-1.5168,-1.5302,-1.4998,-1.5436,-1.6691,-1.6163,-1.6151,-1.6675,-1.6609,-1.6621,-1.6707,-1.7019,-1.6973,-1.6526,-1.5905,0.0,0.0,0.0,0.0,0.0,0.0,0.0,0.0,0.0,-1.2667,-1.2135,0.0,-1.3095,0.0,-1.338,-1.4003,-1.4504,-1.4514,0.0,0.0,-1.4061,-1.3975,-1.382,-1.415,-1.4271,-1.3973,-1.425,-1.4434,-1.4407,-1.4069,-1.404,-1.4459,-1.3776,-1.3378,-1.3922,-1.4373,-1.46,-1.4531,-1.4805,-1.5069,-1.5078,-1.5186,-1.5283,-1.5391,-1.542,-1.542,-1.542,-1.542,-1.542,-1.542,-1.542,-1.542,-1.542,-1.542,-1.542,-1.542,-1.542,-1.5391,-1.5273,-1.5342,-1.5478,-2.6096,-2.5881,-2.5743,-2.5479,-2.5234,-2.6395,-2.6894,-2.697,-2.7839,-2.7463,-2.6104,-2.5214,-2.3762,-2.2055,-2.1722,-2.1396,-2.1095,-2.0897,-2.0782,-2.0615,-2.0424,-2.0337,-2.0337,-2.0337,-2.0158,-1.9753,-1.9126,-1.8639,-1.824,-1.7635,-1.7196,-1.6942,-1.698,-1.664,-1.6002,-1.5854,-1.5716,-1.5635,-1.541,-1.5378,-1.5564,-1.5247,-1.5544,-1.6439,-1.5887,-1.5979,-1.6754,-1.6063,-1.5934,-1.6503,-1.676,-1.6728,-1.6411,-1.6057,-1.5653,0.0,0.0,0.0,0.0,0.0,0.0,0.0,0.0,0.0,0.0,0.0,-1.3974,-1.3691,-1.4364,-1.4917,-1.5089,-1.5118,-1.5099,-1.508,-1.507,-1.5119,-1.5206,-1.5498,-1.5566,-1.5276,-1.5491,-1.5628,-1.54,-1.5153,-1.501,-1.5191,-1.463,-1.4307,-1.4503,-1.4819,-1.5059,-1.5078,-1.5264,-1.542,-1.542,-1.542,-1.542,-1.542,-1.542,-1.542,-1.542,-1.542,-1.542,-1.542,-1.542,-1.542,-1.542,-1.542,-1.542,-1.542,-1.542,-1.5352,-1.5186,-1.5459,-1.5713,-2.62,-2.6144,-2.5397,-2.5103,-2.5173,-2.6266,-2.6813,-2.6935,-2.7599,-2.7321,-2.6185,-2.4978,-2.3747,-2.2625,-2.2529,-2.2156,-2.1531,-2.1484,-2.127,-2.0945,-2.0988,-2.0913,-2.0814,-2.0873,-2.0409,-1.9666,-1.9273,-1.8716,-1.7981,-1.7567,-1.7369,-1.7333,-1.7289,-1.7252,-1.7146,-1.6523,-1.6202,-1.6156,-1.5609,-1.5416,-1.5609,-1.5342,-1.5467,-1.6037,-1.5378,-1.556,-1.6703,-1.5379,-1.5136,-1.6215,-1.6229,-1.6239,-1.6312,-1.6109,-1.5852,0.0,-1.4961,0.0,0.0,0.0,0.0,0.0,0.0,0.0,0.0,-1.4779,-1.4798,-1.5003,-1.5584,-1.5792,-1.5366,-1.5346,-1.5597,-1.6104,-1.6135,-1.6344,-1.6979,-1.6992,-1.6918,-1.688,-1.6838,-1.6644,-1.6271,-1.6133,-1.6026,-1.587,-1.5655,-1.542,-1.5166,-1.5332,-1.5469,-1.5439,-1.542,-1.5439,-1.5508,-1.5459,-1.542,-1.542,-1.542,-1.542,-1.542,-1.542,-1.542,-1.542,-1.542,-1.542,-1.542,-1.542,-1.542,-1.542,-1.542,-1.5332,-1.5156,-1.5478,-1.5683,-2.62,-2.6144,-2.5397,-2.5103,-2.5111,-2.5357,-2.5778,-2.6319,-2.6935,-2.6661,-2.5702,-2.4804,-2.4016,-2.33,-2.2744,-2.2418,-2.2275,-2.1989,-2.1679,-2.1293,-2.1293,-2.1039,-2.0581,-2.0565,-2.038,-1.9972,-1.9449,-1.9102,-1.8935,-1.8096,-1.7691,-1.7628,-1.736,-1.7153,-1.7061,0.0,0.0,0.0,-1.594,-1.5954,-1.6626,-1.5901,-1.5892,-1.6675,-1.6229,0.0,-1.6296,-1.6034,-1.5974,-1.6213,-1.6198,0.0,0.0,0.0,0.0,0.0,0.0,0.0,0.0,0.0,0.0,0.0,-1.5817,-1.5635,-1.5299,-1.5371,-1.5635,-1.6134,-1.6302,-1.6561,-1.6896,-1.7249,-1.7482,-1.7594,-1.7301,-1.72,-1.7434,-1.6882,-1.6677,-1.7287,-1.7062,-1.6849,-1.6961,-1.698,-1.6847,-1.6529,-1.6484,-1.6414,-1.6307,-1.6084,-1.5811,-1.5498,-1.5439,-1.5547,-1.5889,-1.5625,-1.542,-1.542,-1.542,-1.542,-1.542,-1.542,-1.542,-1.542,-1.542,-1.542,-1.542,-1.542,-1.542,-1.542,-1.542,-1.5498,-1.5782,-1.5575,-1.5505,-2.6112,0.0,-2.5326,-2.5103,0.0,-2.5103,-2.5288,-2.5647,-2.6266,-2.6071,-2.5241,-2.4579,-2.3883,-2.3203,-2.2911,-2.2553,-2.229,-2.2212,-2.1888,-2.1209,-2.1359,-2.1143,-2.0554,-2.0547,-2.0306,-1.9872,-1.9438,-1.9046,-1.8718,-1.8099,-1.7702,-1.7481,-1.7311,-1.724,-1.713,-1.7168,-1.7049,-1.6911,-1.6284,-1.6181,-1.6661,-1.6149,-1.6083,-1.6612,-1.643,0.0,0.0,0.0,0.0,0.0,0.0,0.0,0.0,-1.6002,0.0,-1.6634,-1.6335,-1.6361,-1.693,-1.6859,-1.6935,-1.7336,-1.7615,-1.7307,-1.6322,-1.6584,-1.6925,-1.7203,-1.7232,-1.7352,-1.7676,-1.7891,-1.8042,-1.8124,-1.798,-1.7909,-1.8091,-1.7815,-1.7629,-1.7862,-1.775,-1.7533,-1.7346,-1.7263,-1.7106,-1.6876,-1.676,-1.6707,-1.6687,-1.6512,-1.623,-1.5801,-1.5527,-1.5488,-1.5674,-1.5586,-1.542,-1.542,-1.542,-1.542,-1.542,-1.542,-1.542,-1.542,-1.542,-1.542,-1.542,-1.542,-1.542,-1.542,-1.542,-1.5557,-1.5957,-1.5778,-1.5538,-2.5945,-2.5612,-2.5262,-2.5103,-2.5103,-2.5103,-2.5103,-2.5173,0.0,0.0,0.0,-2.441,-2.3851,-2.3197,-2.307,-2.2664,-2.2139,-2.2292,-2.1931,-2.1091,-2.1402,-2.1179,-2.0544,-2.0544,-2.0212,-1.962,-1.9352,-1.8983,-1.8467,-1.8145,-1.7823,-1.7476,-1.7443,-1.7431,-1.7559,-1.7372,-1.7387,-1.7424,-1.6697,-1.6342,-1.6338,-1.6111,-1.6115,-1.6367,-1.6428,-1.6622,-1.7002,-1.636,-1.6175,-1.6464,-1.59,-1.5846,-1.6492,-1.6319,-1.6483,-1.7141,-1.7287,-1.7509,-1.7924,-1.8021,-1.824,-1.8695,-1.9082,-1.8737,-1.7465,-1.7809,-1.8086,-1.8018,-1.8008,-1.8008,-1.8008,-1.8008,-1.8042,-1.8202,-1.8269,-1.8405,-1.8707,-1.8693,-1.8568,-1.8515,-1.8434,-1.8224,-1.7756,-1.7567,-1.7368,-1.7219,-1.7086,-1.6921,-1.6902,-1.6794,-1.6611,-1.6367,-1.5977,-1.5557,-1.5527,-1.5449,-1.542,-1.542,-1.542,-1.542,-1.542,-1.542,-1.542,-1.542,-1.542,-1.542,-1.542,-1.542,-1.542,-1.542,-1.5381,-1.5459,-1.579,-1.5745,-1.5543,-2.5945,-2.5549,-2.5254,-2.5103,-2.5103,-2.5103,-2.5103,-2.5111,-2.5234,-2.517,-2.5067,-2.4695,-2.4285,-2.3938,-2.3276,-2.2791,-2.2418,-2.2182,-2.1822,-2.1418,-2.154,-2.1091,-2.0294,-2.0226,-1.9956,-1.9383,-1.9332,-1.9236,-1.9103,-1.8803,-1.8489,-1.8152,-1.7889,-1.8015,-1.8496,-1.7746,-1.7716,-1.8525,-1.7294,-1.6504,-1.6251,-1.5813,-1.5807,-1.6266,-1.6297,-1.6611,-1.7381,-1.7301,-1.7258,-1.7338,-1.7213,-1.729,-1.7551,-1.7817,-1.8128,-1.8378,-1.8735,-1.8851,-1.8504,-1.8861,-1.9131,-1.9189,-1.9258,-1.9043,-1.8481,-1.8471,-1.8373,-1.8066,-1.8018,-1.8008,-1.8008,-1.8008,-1.8008,-1.8076,-1.8202,-1.8381,-1.8539,-1.836,-1.8455,-1.8899,-1.8652,-1.8428,-1.8304,-1.8265,-1.8112,-1.7904,-1.7729,-1.7793,-1.7656,-1.7165,-1.6924,-1.7012,-1.6525,-1.6065,-1.585,-1.5635,-1.5449,-1.542,-1.542,-1.542,-1.542,-1.542,-1.542,-1.542,-1.542,-1.542,-1.542,-1.542,-1.542,-1.542,-1.5342,-1.5273,-1.5251,-1.5093,-1.5029,-2.5834,-2.5357,-2.5175,-2.5103,-2.5103,-2.5103,-2.5103,-2.5103,-2.5103,-2.5,-2.4817,-2.4642,-2.4285,-2.3769,-2.3443,-2.2885,-2.2214,-2.2291,-2.1919,-2.1296,-2.1503,-2.114,-2.0271,-2.018,-1.9915,-1.9301,-1.9272,-1.9184,-1.9016,-1.8862,-1.8533,-1.805,-1.7713,-1.7935,-1.8665,-1.7831,-1.7785,-1.8734,-1.75,-1.6743,-1.6581,-1.6022,-1.6164,-1.7098,-1.7178,-1.7593,-1.8463,-1.8691,-1.8711,-1.8479,-1.8078,-1.8114,-1.858,-1.8402,-1.8599,-1.9241,-1.9502,-1.9541,-1.9309,-1.9521,-1.9629,-1.9639,-1.9844,-1.9832,-1.9319,-1.8861,-1.852,-1.8325,-1.8154,-1.8008,-1.8008,-1.8008,-1.8042,-1.8144,-1.8269,-1.8405,-1.8596,-1.8545,-1.8639,-1.898,-1.8922,-1.8705,-1.8519,-1.8482,-1.8381,-1.8076,-1.8008,-1.8008,-1.8008,-1.7695,-1.7305,-1.7041,-1.6475,-1.6036,-1.5752,-1.5566,-1.543,-1.542,-1.542,-1.542,-1.542,-1.542,-1.542,-1.542,-1.542,-1.542,-1.542,-1.542,-1.542,-1.5381,-1.5293,-1.5186,-1.5098,-1.4902,-1.4865,-2.5675,-2.5111,-2.5103,-2.5103,-2.5103,-2.5103,-2.5103,-2.5103,-2.5103,-2.496,-2.4722,-2.4698,-2.4317,-2.3689,-2.3657,-2.3097,-2.2258,-2.2389,-2.2027,-2.1317,-2.1492,-2.1129,-2.0391,-2.0292,-2.0011,-1.9447,-1.9381,-1.922,-1.8935,-1.8899,-1.8613,-1.8043,-1.764,-1.7897,-1.8861,-1.7869,-1.7785,-1.8642,-1.7583,-1.6976,-1.6888,-1.6374,-1.6734,-1.7843,-1.8044,-1.8571,-1.9537,-1.998,-2.0059,-1.9756,-1.9193,-1.9156,-1.9816,-1.9145,-1.9203,-2.007,-2.0117,-2.0059,-2.0049,-1.9961,-1.9961,-2.0059,-2.041,-2.0468,-2.0049,-1.9365,-1.8841,-1.8734,-1.8506,-1.8291,-1.8193,-1.8164,-1.8149,-1.8231,-1.8269,-1.8405,-1.8684,-1.8774,-1.8875,-1.9065,-1.9075,-1.8908,-1.8583,-1.8482,-1.8303,-1.8076,-1.8008,-1.8008,-1.8008,-1.8008,-1.7652,-1.707,-1.6504,-1.6035,-1.5547,-1.542,-1.542,-1.542,-1.542,-1.542,-1.542,-1.542,-1.542,-1.542,-1.542,-1.542,-1.542,-1.5362,-1.5362,-1.5332,-1.5196,-1.5059,-1.498,-1.4926,-1.4944,-2.5461,-2.5135,-2.5103,-2.5103,-2.5103,-2.5103,-2.5103,-2.5103,-2.5103,-2.5095,-2.504,-2.5063,-2.4658,-2.4121,-2.4007,-2.3452,-2.2546,-2.2271,-2.1923,-2.1616,-2.1368,-2.102,-2.0676,-2.0613,-2.034,-1.9777,-1.9757,-1.9528,-1.9242,-1.9206,-1.9038,-1.8657,-1.8079,-1.8236,-1.8949,-1.7943,-1.7792,-1.8742,-1.7755,-1.715,-1.6917,-1.6844,-1.7339,-1.8371,-1.8437,-1.9088,-2.0401,-2.0869,-2.1054,-2.1025,-2.0946,-2.114,-2.1484,-2.0839,-2.0557,-2.0995,-2.0723,-2.0546,-2.0507,-2.0137,-2.0088,-2.0488,-2.0566,-2.0586,-2.0507,-2.0059,-1.9619,-1.9326,-1.9199,-1.8955,-1.8598,-1.8529,-1.8398,-1.8164,-1.8221,-1.8371,-1.8549,-1.8674,-1.8875,-1.9075,-1.8942,-1.8751,-1.8516,-1.8371,-1.8236,-1.8042,-1.8008,-1.8008,-1.8008,-1.8008,-1.7852,-1.7373,-1.6953,-1.6338,-1.5684,-1.542,-1.542,-1.542,-1.54,-1.5391,-1.5381,-1.5391,-1.542,-1.541,-1.542,-1.542,-1.5391,-1.5313,-1.5235,-1.5196,-1.502,-1.4754,-1.4662,-1.4823,-1.5173,-2.5429,-2.5111,-2.5103,-2.5103,-2.5103,-2.5103,-2.5103,-2.5103,-2.5103,-2.5103,-2.5103,-2.5103,-2.4825,-2.4364,-2.4185,-2.3571,-2.2609,-2.2241,-2.1847,-2.1454,-2.1261,-2.1035,-2.075,-2.0664,-2.0472,-2.0047,-1.985,-1.9696,-1.9573,-1.9177,-1.8921,-1.876,-1.8321,-1.82,-1.8336,-1.7867,-1.7712,-1.7878,-1.7512,-1.7267,-1.7128,-1.6998,-1.7609,-1.8945,-1.8973,-1.9674,-2.1175,-2.1533,-2.1621,-2.1621,-2.1621,-2.1699,-2.1865,-2.1299,-2.1005,-2.1151,-2.081,-2.0615,-2.0595,-2.0429,-2.0371,-2.0595,-2.0615,-2.0615,-2.0605,-2.0429,-2.0215,-2.0067,-1.9627,-1.9199,-1.9033,-1.8895,-1.8685,-1.8542,-1.8462,-1.8492,-1.865,-1.8741,-1.8841,-1.8908,-1.8875,-1.8674,-1.8405,-1.8245,-1.811,-1.8008,-1.8008,-1.8008,-1.8008,-1.8008,-1.7822,-1.748,-1.7217,-1.6758,-1.5977,-1.5557,-1.5459,-1.5381,-1.5195,-1.5078,-1.5342,-1.5166,-1.5107,-1.5361,-1.541,-1.542,-1.542,-1.5362,-1.5313,-1.5176,-1.5059,-1.4813,-1.4645,-1.4939,-1.5337,-2.5349,-2.5127,-2.5103,-2.5103,-2.5103,-2.5103,-2.5103,-2.5103,-2.5103,-2.5103,-2.5103,-2.5103,-2.4907,-2.4548,-2.4264,-2.353,-2.2678,-2.2257,-2.1853,-2.1342,-2.1254,-2.1086,-2.0874,-2.0852,-2.0684,-2.0377,-2.015,-1.9991,-1.9793,-1.9316,-1.9008,-1.8891,-1.8599,-1.8321,-1.8086,-1.7933,-1.7699,-1.7479,-1.7337,-1.7419,-1.7662,-1.7506,-1.8149,-1.9455,-1.9644,-2.0359,-2.1802,-2.2002,-2.206,-2.206,-2.2051,-2.2109,-2.2197,-2.157,-2.1132,-2.1045,-2.0762,-2.0615,-2.0615,-2.0615,-2.0615,-2.0615,-2.0615,-2.0615,-2.0615,-2.0615,-2.0615,-2.0537,-2.0075,-1.975,-1.9534,-1.9423,-1.9322,-1.9208,-1.9003,-1.895,-1.8998,-1.8992,-1.8951,-1.8838,-1.8741,-1.8583,-1.8303,-1.8076,-1.8008,-1.8008,-1.8008,-1.8008,-1.8008,-1.7998,-1.7891,-1.7598,-1.7471,-1.7002,-1.6271,-1.587,-1.5586,-1.5381,-1.5166,-1.5137,-1.5352,-1.5107,-1.499,-1.54,-1.541,-1.542,-1.5391,-1.5391,-1.5147,-1.4902,-1.4793,-1.4597,-1.3983,-1.4698,-1.5272,-2.5119,-2.5111,-2.5103,-2.5103,-2.5103,-2.5103,-2.5103,-2.5103,-2.5103,-2.5103,-2.5103,-2.5042,-2.4911,-2.454,-2.4191,-2.3549,-2.2677,-2.2274,-2.1942,-2.162,-2.1379,-2.1218,-2.1196,-2.1189,-2.102,-2.0757,-2.0633,-2.0325,-1.9867,-1.9786,-1.9617,-1.9242,-1.895,-1.8767,-1.8613,-1.8116,-1.7768,-1.7735,-1.7425,-1.7738,-1.8557,-1.868,-1.8998,-1.9752,-2.0516,-2.1267,-2.1896,-2.2285,-2.249,-2.249,-2.248,-2.2613,-2.2867,-2.1873,-2.1084,-2.0723,-2.0625,-2.0615,-2.0615,-2.0615,-2.0615,-2.0615,-2.0615,-2.0615,-2.0615,-2.0615,-2.0615,-2.0605,-2.0691,-2.0551,-2.0252,-2.0242,-2.0219,-1.9903,-1.9823,-1.9697,-1.9492,-1.9496,-1.9247,-1.8937,-1.8731,-1.8464,-1.8095,-1.8008,-1.8008,-1.8008,-1.8008,-1.8008,-1.8008,-1.8008,-1.7969,-1.7891,-1.7607,-1.709,-1.633,-1.6007,-1.5821,-1.5508,-1.5312,-1.5332,-1.5391,-1.54,-1.5391,-1.541,-1.542,-1.5391,-1.5391,-1.5147,-1.4746,-1.4519,-1.4419,-1.4112,-1.3433,-1.4639,-1.5181,-2.5103,-2.5103,-2.5103,-2.5103,-2.5103,-2.5103,-2.5103,-2.5103,-2.5103,-2.5103,-2.505,-2.4857,-2.461,-2.4232,-2.3924,-2.3436,-2.2946,-2.2571,-2.2193,-2.1752,-2.1781,-2.1723,-2.1533,-2.1518,-2.1474,-2.1313,-2.0918,-2.0501,-2.012,-2.0062,-1.9901,-1.9676,-1.9477,-1.922,-1.8789,-1.835,-1.8028,-1.7808,-1.7494,-1.7785,-1.8796,-1.9384,-2.0082,-2.0909,-2.1298,-2.1867,-2.2643,-2.2799,-2.2867,-2.2877,-2.2867,-2.2935,-2.2984,-2.2197,-2.1328,-2.0703,-2.0615,-2.0615,-2.0615,-2.0615,-2.0615,-2.0615,-2.0615,-2.0625,-2.0615,-2.0615,-2.0615,-2.0654,-2.078,-2.0836,-2.0801,-2.0675,-2.0518,-2.0437,-2.021,-2.0078,-2.0057,-2.0087,-1.998,-1.9665,-1.9208,-1.8641,-1.8164,-1.8008,-1.8008,-1.8008,-1.8008,-1.7998,-1.8008,-1.8008,-1.8008,-1.7998,-1.7871,-1.7578,-1.7041,-1.6398,-1.5948,-1.5508,-1.5293,-1.5459,-1.5566,-1.5244,-1.5146,-1.5557,-1.5566,-1.542,-1.5391,-1.5196,-1.4717,-1.4191,-1.411,-1.3902,-1.2978,-1.4244,-1.4711,-2.5103,-2.5103,-2.5103,-2.5103,-2.5103,-2.5103,-2.5103,-2.5103,-2.5103,-2.5103,-2.505,-2.4734,-2.4425,-2.4108,-2.3736,-2.3437,-2.3083,-2.2735,-2.2389,-2.2023,-2.2132,-2.2067,-2.1891,-2.1854,-2.1796,-2.1635,-2.1152,-2.0706,-2.0373,-2.0391,-2.0172,-1.9837,-1.9815,-1.9551,-1.8979,-1.8621,-1.8299,-1.7969,-1.7655,-1.8045,-1.9171,-1.9869,-2.0818,-2.1917,-2.2148,-2.2413,-2.3091,-2.3101,-2.3101,-2.3101,-2.3101,-2.3033,-2.2847,-2.2402,-2.1699,-2.0918,-2.0781,-2.0781,-2.0762,-2.0693,-2.0732,-2.0997,-2.0859,-2.082,-2.0957,-2.0909,-2.083,-2.0889,-2.0907,-2.1051,-2.1193,-2.0999,-2.0903,-2.0975,-2.0804,-2.0585,-2.0561,-2.0576,-2.036,-1.9839,-1.9239,-1.869,-1.8286,-1.7959,-1.7969,-1.8144,-1.8018,-1.7842,-1.7969,-1.8008,-1.8008,-1.8008,-1.7998,-1.7773,-1.7324,-1.676,-1.6437,-1.6025,-1.5518,-1.5654,-1.5635,-1.5273,-1.5204,-1.5635,-1.5684,-1.5498,-1.5332,-1.5167,-1.4712,-1.4064,-1.4055,-1.4082,-1.3805,-1.3872,-1.4285,-2.5103,-2.5103,-2.5103,-2.5103,-2.5103,-2.5103,-2.5103,-2.5103,-2.5103,-2.5103,-2.4988,-2.4734,-2.4355,-2.4046,-2.3673,-2.341,-2.308,-2.2791,-2.2623,-2.252,-2.2352,-2.2235,-2.2184,-2.2184,-2.1993,-2.1693,-2.135,-2.1028,-2.0742,-2.0706,-2.0428,-1.9962,-1.9881,-1.9705,-1.9324,-1.8921,-1.8606,-1.8299,-1.8052,-1.862,-1.9973,-2.0294,-2.1186,-2.2775,-2.3003,-2.3003,-2.3101,-2.3101,-2.3101,-2.3101,-2.3101,-2.2896,-2.2627,-2.248,-2.2109,-2.1387,-2.1181,-2.1181,-2.1151,-2.0859,-2.0996,-2.1564,-2.1455,-2.1346,-2.1602,-2.1387,-2.1202,-2.1332,-2.1251,-2.1244,-2.1425,-2.1423,-2.1403,-2.1482,-2.1473,-2.1288,-2.092,-2.0929,-2.0601,-1.9525,-1.8978,-1.8652,-1.8432,-1.8057,-1.792,-1.8247,-1.8047,-1.7705,-1.7959,-1.8008,-1.8008,-1.8008,-1.7998,-1.7861,-1.7461,-1.7061,-1.6885,-1.6609,-1.6094,-1.587,-1.5831,-1.5557,-1.54,-1.5684,-1.5605,-1.543,-1.5225,-1.5071,-1.4769,-1.4317,-1.4355,-1.4094,-1.3787,-1.365,-1.4024,-2.5103,-2.5103,-2.5103,-2.5103,-2.5103,-2.5103,-2.5103,-2.5103,-2.5103,-2.4988,-2.4734,-2.4425,-2.4053,-2.3728,-2.3425,-2.3238,-2.3098,-2.2988,-2.2835,-2.2674,-2.2747,-2.2689,-2.2513,-2.2484,-2.2213,-2.1715,-2.1364,-2.1167,-2.1086,-2.105,-2.083,-2.0464,-2.0194,-1.993,-1.9586,-1.9074,-1.8716,-1.8692,-1.8809,-1.939,-2.047,-2.1004,-2.1872,-2.2916,-2.3101,-2.3101,-2.3101,-2.3101,-2.3101,-2.3101,-2.3101,-2.2906,-2.2607,-2.251,-2.2246,-2.1748,-2.1346,-2.1356,-2.1592,-2.1299,-2.1269,-2.1738,-2.1758,-2.1738,-2.1816,-2.1473,-2.1319,-2.1451,-2.1203,-2.1128,-2.1425,-2.1502,-2.1502,-2.1693,-2.1512,-2.1096,-2.0524,-2.0418,-2.0007,-1.9304,-1.9298,-1.9276,-1.8858,-1.8331,-1.8281,-1.849,-1.8315,-1.8193,-1.8037,-1.8008,-1.8008,-1.8008,-1.7988,-1.7978,-1.7695,-1.7441,-1.7256,-1.6882,-1.6406,-1.6094,-1.6025,-1.585,-1.5713,-1.5615,-1.5527,-1.5352,-1.5176,-1.5013,-1.48,-1.4401,-1.4137,-1.3746,-1.3213,-1.3378,-1.3925,-2.5103,-2.5103,-2.5103,-2.5103,-2.5103,-2.5103,-2.5103,-2.5103,-2.5103,-2.4926,-2.461,-2.4239,-2.3922,-2.3604,-2.323,-2.3106,-2.3106,-2.3106,-2.2996,-2.2849,-2.2996,-2.2988,-2.2784,-2.2667,-2.2447,-2.203,-2.1598,-2.1393,-2.1386,-2.1254,-2.1042,-2.0664,-2.046,-2.0186,-1.9891,-1.9777,-1.966,-1.9509,-2.0029,-2.0615,-2.1223,-2.1671,-2.2298,-2.2989,-2.3101,-2.3101,-2.3101,-2.3101,-2.3101,-2.3101,-2.3101,-2.2955,-2.2773,-2.2691,-2.2559,-2.2168,-2.1904,-2.1855,-2.2051,-2.1728,-2.1748,-2.2187,-2.2207,-2.2207,-2.2227,-2.1912,-2.1801,-2.1895,-2.1581,-2.1379,-2.1631,-2.1304,-2.1233,-2.129,-2.1069,-2.0634,-2.0051,-1.9777,-1.9362,-1.8826,-1.8974,-1.9043,-1.8724,-1.8596,-1.8566,-1.8635,-1.8496,-1.8334,-1.8086,-1.8008,-1.8008,-1.8008,-1.7998,-1.7998,-1.7988,-1.7812,-1.7627,-1.7158,-1.6631,-1.6445,-1.6338,-1.6025,-1.584,-1.5771,-1.5693,-1.5459,-1.5254,-1.5264,-1.508,-1.4576,-1.4218,-1.4171,-1.4031,-1.3851,-1.4113,-2.5042,-2.505,-2.5103,-2.5103,-2.5103,-2.5103,-2.5103,-2.5103,-2.5103,-2.4857,-2.4541,-2.4239,-2.3922,-2.3549,-2.3238,-2.3106,-2.3106,-2.3106,-2.3098,-2.3131,-2.3293,-2.3387,-2.339,-2.2877,-2.2701,-2.2704,-2.2053,-2.1686,-2.162,-2.135,-2.1057,-2.0801,-2.0706,-2.0442,-2.0182,-2.0877,-2.0949,-2.0575,-2.1452,-2.21,-2.2354,-2.2409,-2.2614,-2.3135,-2.312,-2.3101,-2.3101,-2.296,-2.296,-2.3091,-2.3003,-2.2853,-2.294,-2.3003,-2.2684,-2.2207,-2.2349,-2.231,-2.2304,-2.1939,-2.21,-2.2828,-2.2553,-2.2652,-2.2857,-2.2545,-2.2379,-2.251,-2.2099,-2.1819,-2.1709,-2.1214,-2.0625,-2.0352,-2.0147,-1.9795,-1.9304,-1.8988,-1.8587,-1.8067,-1.8156,-1.8402,-1.8097,-1.8052,-1.8245,-1.8377,-1.8132,-1.7996,-1.7901,-1.7828,-1.7974,-1.8008,-1.8042,-1.8042,-1.8032,-1.792,-1.7715,-1.7353,-1.6904,-1.6768,-1.6512,-1.6201,-1.5977,-1.5928,-1.5742,-1.5518,-1.5371,-1.5352,-1.5362,-1.5099,-1.4963,-1.5049,-1.4832,-1.4506,-1.4203,-2.4734,-2.4795,-2.4988,-2.5103,-2.5103,-2.5103,-2.5103,-2.5103,-2.5103,-2.4741,-2.4293,-2.4108,-2.3798,-2.33,-2.3168,-2.3106,-2.3106,-2.3106,-2.3106,-2.3293,-2.4154,-2.4525,-2.4263,-2.3267,-2.311,-2.3686,-2.2468,-2.1701,-2.1672,-2.1444,-2.1224,-2.1072,-2.0901,-2.0718,-2.06,-2.1147,-2.1301,-2.1377,-2.2464,-2.313,-2.3173,-2.3322,-2.3471,-2.3578,-2.3266,-2.311,-2.3003,-2.2422,-2.2413,-2.3013,-2.2413,-2.2059,-2.2104,-2.2104,-2.1719,-2.1139,-2.1273,-2.1603,-2.1752,-2.1519,-2.1877,-2.2872,-2.2246,-2.2265,-2.3008,-2.2711,-2.2477,-2.2369,-2.2156,-2.1725,-2.1067,-2.0793,-2.0226,-1.9009,-1.8681,-1.8385,-1.8078,-1.7989,-1.7802,-1.7275,-1.7653,-1.7706,-1.7379,-1.7279,-1.7232,-1.7251,-1.7455,-1.757,-1.7502,-1.7862,-1.811,-1.8076,-1.8076,-1.8076,-1.8022,-1.793,-1.7764,-1.748,-1.7207,-1.707,-1.6758,-1.6348,-1.6183,-1.6056,-1.5684,-1.543,-1.541,-1.5391,-1.542,-1.542,-1.5263,-1.5095,-1.4959,-1.4721,-1.4419,-2.4805,-2.4795,-2.5042,-2.5103,-2.5103,-2.5103,-2.5103,-2.505,-2.4926,-2.461,-2.417,-2.3922,-2.3611,-2.3113,-2.3106,-2.3106,-2.3106,-2.3106,-2.3417,-2.4092,-2.471,-2.5018,-2.4832,-2.3978,-2.3795,-2.3741,-2.2676,-2.2104,-2.1987,-2.2019,-2.1802,-2.1417,-2.1515,-2.1574,-2.1536,-2.1995,-2.2482,-2.2937,-2.3881,-2.4342,-2.4193,-2.4071,-2.3894,-2.3769,-2.3335,-2.296,-2.2457,-2.1596,-2.1454,-2.1908,-2.1552,-2.1186,-2.1409,-2.1195,-2.0773,-2.0223,-2.0526,-2.0838,-2.0962,-2.0838,-2.1059,-2.163,-2.1284,-2.1373,-2.1658,-2.1676,-2.1513,-2.1959,-2.1561,-2.1147,-2.0806,-2.0185,-1.9037,-1.7836,-1.7439,-1.7286,-1.7106,-1.7245,-1.7031,-1.6854,-1.709,-1.7336,-1.6734,-1.6823,-1.6754,-1.6677,-1.7162,-1.7174,-1.7146,-1.772,-1.8129,-1.8057,-1.8071,-1.8061,-1.8071,-1.7998,-1.7891,-1.7607,-1.7461,-1.7344,-1.7002,-1.6592,-1.6406,-1.6182,-1.5732,-1.542,-1.542,-1.542,-1.542,-1.5371,-1.5271,-1.5237,-1.5147,-1.506,-1.4763,-2.5055,-2.505,-2.5103,-2.5103,-2.5103,-2.5103,-2.5103,-2.5042,-2.4795,-2.4487,-2.4115,-2.3798,-2.3479,-2.3106,-2.3106,-2.3106,-2.3106,-2.3106,-2.4147,-2.4818,-2.5248,-2.5194,-2.5431,-2.4663,-2.4155,-2.3615,-2.2953,-2.2469,-2.2461,-2.3006,-2.2732,-2.2059,-2.2513,-2.2863,-2.2789,-2.3195,-2.3931,-2.4539,-2.509,-2.5276,-2.4995,-2.469,-2.4375,-2.4062,-2.3258,-2.2463,-2.1579,-2.0647,-2.0367,-2.0908,-2.0367,-2.0367,-2.0737,-2.0322,-1.996,-1.9824,-1.9798,-2.0017,-2.0042,-2.0025,-2.0079,-2.024,-2.0195,-2.0104,-2.0277,-2.0414,-2.0703,-2.1235,-2.0501,-2.0438,-2.0367,-1.9042,-1.7808,-1.7024,-1.6896,-1.676,-1.6716,-1.6704,-1.6561,-1.6237,-1.6735,-1.6706,-1.658,-1.6633,-1.6835,-1.5702,-1.6167,-1.6271,-1.6526,-1.7141,-1.7586,-1.7873,-1.7963,-1.8081,-1.8057,-1.8066,-1.7939,-1.7773,-1.7676,-1.7539,-1.7275,-1.6943,-1.6697,-1.6375,-1.5791,-1.5478,-1.542,-1.542,-1.542,-1.541,-1.5337,-1.5417,-1.5506,-1.5436,-1.5251,-2.4734,-2.4734,-2.4988,-2.5103,-2.5103,-2.5103,-2.5103,-2.5103,-2.498,-2.461,-2.417,-2.4046,-2.3673,-2.3106,-2.3106,-2.3106,-2.3106,-2.3293,-2.4317,-2.6321,-2.5493,-2.5798,-2.5859,-2.4756,-2.4092,-2.407,-2.3199,-2.2654,-2.2766,-2.3352,-2.3368,-2.315,-2.3238,-2.3431,-2.4145,-2.3823,-2.407,-2.5008,-2.5519,-2.5654,-2.5518,-2.5117,-2.4824,-2.4526,-2.3301,-2.1826,-2.0609,-1.9604,-1.9193,-1.9247,-1.9247,-1.9201,-1.9376,-1.9239,-1.8788,-1.8419,-1.8788,-1.9109,-1.9109,-1.9109,-1.9201,-1.9384,-1.9247,-1.9201,-1.9521,-1.9877,-2.0005,-2.0163,-2.0064,-1.9799,-1.9352,-1.8018,-1.7242,-1.698,-1.6671,-1.6483,-1.6619,-1.6749,-1.6495,-1.605,-1.5903,-1.5811,-1.5434,-1.5215,-1.5209,-1.4854,-1.5033,-1.5188,-1.5822,-1.6552,-1.7199,-1.7694,-1.7846,-1.7987,-1.8242,-1.8149,-1.7959,-1.7871,-1.7812,-1.7539,-1.7285,-1.7139,-1.6875,-1.6377,-1.5752,-1.5547,-1.543,-1.542,-1.543,-1.5419,-1.5451,-1.5595,-1.5704,-1.5716,-1.584,-2.5007,-2.4873,-2.505,-2.5103,-2.5103,-2.5103,-2.5103,-2.505,-2.4919,-2.4672,-2.4293,-2.4046,-2.3666,-2.3355,-2.3168,-2.3106,-2.3293,-2.3783,-2.4756,-2.5912,-2.5859,-2.605,-2.5981,-2.5431,-2.5125,-2.504,-2.4293,-2.4001,-2.44,-2.4571,-2.4763,-2.449,-2.471,-2.5193,-2.5364,-2.4686,-2.5023,-2.5769,-2.5766,-2.5684,-2.5664,-2.5312,-2.4582,-2.4098,-2.2963,-2.1719,-1.9911,-1.936,-1.8714,-1.8288,-1.811,-1.8334,-1.8603,-1.8334,-1.7831,-1.7559,-1.7746,-1.811,-1.811,-1.811,-1.8149,-1.8388,-1.8203,-1.8241,-1.8334,-1.8696,-1.8991,-1.9043,-1.898,-1.8549,-1.8133,-1.753,-1.7069,-1.7048,-1.6787,-1.6522,-1.6435,-1.6488,-1.6414,-1.5945,-1.5917,-1.5733,-1.533,-1.4901,-1.4584,-1.4743,-1.5189,-1.5367,-1.5442,-1.6225,-1.7098,-1.7569,-1.7722,-1.7926,-1.8298,-1.8276,-1.7978,-1.791,-1.7881,-1.749,-1.708,-1.7012,-1.6943,-1.6406,-1.5879,-1.5537,-1.542,-1.542,-1.5507,-1.56,-1.5706,-1.5807,-1.5955,-1.6191,-1.6382,-2.5431,-2.5111,-2.5103,-2.5103,-2.5103,-2.5103,-2.5103,-2.5042,-2.4795,-2.4672,-2.4487,-2.3984,-2.386,-2.3604,-2.3362,-2.3168,-2.3355,-2.4023,-2.4695,-2.5309,-2.5981,-2.5867,-2.5623,-2.6042,-2.6042,-2.5194,-2.4917,-2.5299,-2.5474,-2.6245,-2.5829,-2.5755,-2.6518,-2.6838,-2.6672,-2.5748,-2.5661,-2.6589,-2.5766,-2.5528,-2.5548,-2.5179,-2.425,-2.338,-2.236,-2.1354,-1.978,-1.9075,-1.8525,-1.7468,-1.7308,-1.7738,-1.8064,-1.7878,-1.7286,-1.7286,-1.7426,-1.7466,-1.7466,-1.7419,-1.7426,-1.7286,-1.7326,-1.7326,-1.7426,-1.7559,-1.7902,-1.8041,-1.8017,-1.7559,-1.7311,-1.7182,-1.7119,-1.7122,-1.6974,-1.6631,-1.6303,-1.6159,-1.605,-1.5955,-1.5797,-1.5647,-1.5503,-1.5213,-1.4905,-1.4704,-1.5165,-1.5473,-1.5497,-1.5871,-1.6727,-1.7437,-1.7596,-1.7953,-1.836,-1.85,-1.8169,-1.793,-1.792,-1.7529,-1.7009,-1.6882,-1.6836,-1.6533,-1.6103,-1.58,-1.5663,-1.5749,-1.5863,-1.5904,-1.6005,-1.6103,-1.6383,-1.6717,-1.6787,-2.5431,-2.5103,-2.5103,-2.5103,-2.5103,-2.5103,-2.5103,-2.5103,-2.5042,-2.4857,-2.461,-2.4479,-2.4232,-2.3984,-2.3666,-2.3417,-2.3417,-2.3658,-2.4209,-2.5071,-2.5562,-2.5256,-2.5439,-2.6346,-2.6225,-2.5378,-2.5071,-2.4824,-2.4698,-2.5329,-2.6371,-2.6414,-2.701,-2.7604,-2.7592,-2.6542,-2.5881,-2.6493,-2.5434,-2.4958,-2.5107,-2.4604,-2.392,-2.303,-2.181,-2.0614,-1.9724,-1.8639,-1.7923,-1.7713,-1.7472,-1.7448,-1.7552,-1.7419,-1.7326,-1.7286,-1.7286,-1.7286,-1.7286,-1.7286,-1.7286,-1.7286,-1.7286,-1.7286,-1.7286,-1.7286,-1.7466,-1.7466,-1.7512,-1.7286,-1.7286,-1.7238,-1.7245,-1.7211,-1.7022,-1.6765,-1.6411,-1.6153,-1.5893,-1.5757,-1.5641,-1.5567,-1.5502,-1.536,-1.5108,-1.486,-1.5018,-1.513,-1.5025,-1.549,-1.6242,-1.6918,-1.7484,-1.794,-1.8437,-1.8553,-1.8422,-1.8027,-1.7871,-1.7666,-1.7246,-1.6911,-1.6687,-1.6548,-1.6449,-1.6282,-1.6212,-1.6131,-1.6081,-1.6065,-1.6248,-1.6425,-1.6594,-1.675,-1.6851,-2.54,-2.5119,-2.5103,-2.5103,-2.5103,-2.5103,-2.5103,-2.5103,-2.5103,-2.5042,-2.4857,-2.4672,-2.4479,-2.4232,-2.3798,-2.3728,-2.3969,-2.3355,-2.427,-2.5554,-2.5439,-2.5071,-2.5194,-2.6346,-2.5615,-2.4764,-2.4641,-2.5194,-2.5178,-2.6179,-2.6925,-2.7508,-2.806,-2.8653,-2.8523,-2.7405,-2.6489,-2.6295,-2.5182,-2.4327,-2.429,-2.3586,-2.305,-2.219,-2.1327,-2.0255,-1.9277,-1.8828,-1.8138,-1.7867,-1.7669,-1.7454,-1.7344,-1.7286,-1.7286,-1.7286,-1.7286,-1.7286,-1.7286,-1.7286,-1.7286,-1.7286,-1.7286,-1.7286,-1.7286,-1.7286,-1.7286,-1.7286,-1.7286,-1.7286,-1.7286,-1.7286,-1.7286,-1.7274,-1.7055,-1.6866,-1.6653,-1.6375,-1.603,-1.5673,-1.5612,-1.5573,-1.5492,-1.5345,-1.5205,-1.5069,-1.4995,-1.4893,-1.4728,-1.524,-1.596,-1.6852,-1.7585,-1.823,-1.8687,-1.8854,-1.8802,-1.8408,-1.8086,-1.7871,-1.7676,-1.7471,-1.7132,-1.6854,-1.6764,-1.6728,-1.6424,-1.6246,-1.6245,-1.6207,-1.6336,-1.6449,-1.6612,-1.6762,-1.6837,-2.5367,-2.5103,-2.5103,-2.5103,-2.5103,-2.5103,-2.5103,-2.5103,-2.5103,-2.5103,-2.5042,-2.4865,-2.4734,-2.4541,-2.417,-2.4154,-2.4949,-2.372,-2.4448,-2.5798,-2.5562,-2.501,-2.5071,-2.5623,-2.5431,-2.3783,-2.4031,-2.5378,-2.6042,-2.6737,-2.7482,-2.8241,-2.9174,-2.9479,-2.8891,-2.7989,-2.7117,-2.6036,-2.495,-2.3978,-2.298,-2.2425,-2.2026,-2.1338,-2.0861,-1.9985,-1.911,-1.8803,-1.8503,-1.8152,-1.7889,-1.7691,-1.7472,-1.7323,-1.7286,-1.7286,-1.7286,-1.7286,-1.7286,-1.7286,-1.7286,-1.7286,-1.7286,-1.7286,-1.7286,-1.7286,-1.7286,-1.7286,-1.7286,-1.7286,-1.7286,-1.7286,-1.7286,-1.7242,-1.7121,-1.6954,-1.6837,-1.6631,-1.6389,-1.6052,-1.5767,-1.5592,-1.5518,-1.5401,-1.5255,-1.5233,-1.5167,-1.5167,-1.5039,-1.5182,-1.5873,-1.691,-1.7783,-1.8572,-1.9019,-1.9282,-1.9228,-1.8965,-1.8721,-1.8535,-1.833,-1.8135,-1.776,-1.736,-1.7187,-1.7135,-1.6735,-1.636,-1.6326,-1.6334,-1.6352,-1.6496,-1.6681,-1.6749,-1.6806,-2.5367,-2.5103,-2.5103,-2.5103,-2.5103,-2.5103,-2.5103,-2.5103,-2.5103,-2.5103,-2.5103,-2.505,-2.498,-2.4795,-2.4293,-2.4463,-2.4517,-2.3907,-2.3961,-2.5317,-2.5071,-2.4332,-2.372,-2.4702,-2.451,-2.3285,-2.3355,-2.4092,-2.537,-2.6468,-2.7452,-2.8351,-2.8832,-2.9446,-2.8711,-2.7736,-2.7099,-2.5814,-2.4421,-2.3132,-2.2127,-2.1687,-2.147,-2.1076,-2.0307,-1.9517,-1.9199,-1.8972,-1.873,-1.8606,-1.8101,-1.7845,-1.7721,-1.7425,-1.7315,-1.7286,-1.7286,-1.7286,-1.7286,-1.7286,-1.7286,-1.7286,-1.7286,-1.7286,-1.7286,-1.7286,-1.7286,-1.7286,-1.7286,-1.7286,-1.7286,-1.7286,-1.7286,-1.7279,-1.726,-1.7077,-1.6983,-1.6961,-1.6667,-1.6499,-1.6191,-1.5855,-1.5643,-1.5476,-1.5367,-1.536,-1.5345,-1.5338,-1.5413,-1.5533,-1.5801,-1.6847,-1.799,-1.8847,-1.9033,-1.9353,-1.943,-1.9302,-1.9095,-1.8957,-1.8786,-1.8556,-1.8379,-1.8072,-1.7716,-1.7144,-1.6585,-1.6316,-1.6399,-1.6477,-1.6606,-1.6677,-1.6784,-1.6789,-1.6767,-2.5246,-2.5111,-2.5103,-2.5103,-2.5103,-2.5103,-2.5103,-2.5103,-2.5103,-2.5103,-2.5103,-2.5103,-2.498,-2.4734,-2.4293,-2.4595,-2.4887,-2.3845,-2.3845,-2.4579,-2.4394,-2.3658,-2.3417,-2.3658,-2.3472,-2.3347,-2.323,-2.3907,-2.4949,-2.5529,-2.6271,-2.6636,-2.7213,-2.728,-2.7509,-2.6482,-2.5348,-2.4082,-2.281,-2.1752,-2.1229,-2.0908,-2.0765,-2.0688,-1.9962,-1.9536,-1.9301,-1.9169,-1.8957,-1.8818,-1.8452,-1.8174,-1.7904,-1.7669,-1.7498,-1.7286,-1.7286,-1.7286,-1.7286,-1.7286,-1.7286,-1.7286,-1.7286,-1.7286,-1.7286,-1.7286,-1.7286,-1.7286,-1.7286,-1.7286,-1.7286,-1.7286,-1.7286,-1.7286,-1.7286,-1.7267,-1.7143,-1.7143,-1.7026,-1.6821,-1.6653,-1.6287,-1.5994,-1.5855,-1.5666,-1.5498,-1.5447,-1.5396,-1.5658,-1.5974,-1.6306,-1.675,-1.7971,-1.9111,-1.9071,-1.9143,-1.9316,-1.922,-1.892,-1.8863,-1.9022,-1.8887,-1.8632,-1.7815,-1.6929,-1.6455,-1.6233,-1.6272,-1.6325,-1.6562,-1.6828,-1.6652,-1.6536,-1.6708,-1.6542,-2.5103,-2.5103,-2.5103,-2.5103,-2.5103,-2.5103,-2.5103,-2.5103,-2.5103,-2.5103,-2.5103,-2.5103,-2.4919,-2.4726,-2.4664,-2.5087,-2.5456,-2.4216,-2.427,-2.4394,-2.3907,-2.323,-2.3168,-2.3168,-2.3168,-2.3106,-2.323,-2.3728,-2.434,-2.481,-2.4944,-2.5133,-2.6064,-2.601,-2.556,-2.5263,-2.456,-2.3231,-2.1826,-2.107,-2.0828,-2.0476,-2.038,-2.0201,-1.9996,-1.9742,-1.9542,-1.947,-1.9294,-1.9177,-1.8825,-1.8503,-1.8196,-1.7904,-1.7706,-1.7501,-1.7381,-1.7286,-1.7286,-1.7286,-1.7286,-1.7286,-1.7286,-1.7286,-1.7286,-1.7286,-1.7286,-1.7286,-1.7286,-1.7286,-1.7286,-1.7286,-1.7286,-1.7286,-1.7286,-1.7286,-1.7279,-1.7267,-1.723,-1.7106,-1.6916,-1.6822,-1.6506,-1.6294,-1.6052,-1.5752,-1.5606,-1.5533,-1.5865,-1.6306,-1.6451,-1.6764,-1.7374,-1.8585,-1.9076,-1.9077,-1.9201,-1.9107,-1.881,-1.8848,-1.9014,-1.8854,-1.8544,-1.7569,-1.6393,-1.612,-1.61,-1.6163,-1.6227,-1.6146,-1.6122,-1.6156,-1.6171,-1.6388,-1.6371,-2.5103,-2.5103,-2.5103,-2.5103,-2.5103,-2.5103,-2.5103,-2.5103,-2.5103,-2.5103,-2.5103,-2.5042,-2.4926,-2.4849,-2.521,-2.5517,-2.5578,-2.5133,-2.4949,-2.4517,-2.3845,-2.3208,-2.3146,-2.3084,-2.3069,-2.3131,-2.327,-2.3479,-2.3705,-2.3823,-2.4939,-2.6454,-2.5435,-2.5702,-2.5339,-2.4521,-2.4013,-2.2973,-2.1888,-2.1343,-2.1131,-2.0844,-2.0553,-2.0486,-2.015,-1.9872,-2.0113,-1.9835,-1.9698,-1.9595,-1.9118,-1.8803,-1.8525,-1.8189,-1.7933,-1.7706,-1.7516,-1.7413,-1.7308,-1.7286,-1.7286,-1.7286,-1.7286,-1.7286,-1.7286,-1.7286,-1.7286,-1.7286,-1.7286,-1.7286,-1.7286,-1.7286,-1.7286,-1.7286,-1.7286,-1.7286,-1.7286,-1.7279,-1.7296,-1.7296,-1.7194,-1.7033,-1.6952,-1.6726,-1.6396,-1.6089,-1.6007,-1.5926,-1.6151,-1.6525,-1.6482,-1.666,-1.6844,-1.7716,-1.8873,-1.8897,-1.8469,-1.8521,-1.8517,-1.8746,-1.9021,-1.8756,-1.8112,-1.7544,-1.6525,-1.6231,-1.5813,-1.5489,-1.5265,-1.5309,-1.5419,-1.5765,-1.5809,-1.585,-1.5896,-2.5103,-2.5103,-2.5103,-2.5103,-2.5103,-2.5103,-2.5103,-2.5103,-2.5103,-2.5103,-2.5103,-2.5103,-2.505,-2.498,-2.4787,-2.5333,-2.5639,-2.4595,-2.4702,-2.4563,-2.4055,-2.3385,-2.3222,-2.3076,-2.3005,-2.2941,-2.3113,-2.316,-2.2998,-2.3126,-2.3469,-2.4108,-2.4177,-2.3548,-2.3216,-2.3304,-2.2922,-2.3046,-2.2531,-2.2312,-2.2258,-2.2063,-2.1562,-2.0655,-2.0589,-2.0281,-2.0154,-1.9923,-1.9859,-1.9705,-1.9308,-1.906,-1.8833,-1.8503,-1.8203,-1.7896,-1.7677,-1.7523,-1.7308,-1.7286,-1.7286,-1.7286,-1.7286,-1.7286,-1.7286,-1.7286,-1.7286,-1.7286,-1.7286,-1.7286,-1.7286,-1.7286,-1.7286,-1.7286,-1.7286,-1.7286,-1.7286,-1.7286,-1.7286,-1.7264,-1.7257,-1.7238,-1.7194,-1.7143,-1.6784,-1.644,-1.6418,-1.6481,-1.6831,-1.7027,-1.7141,-1.7245,-1.7489,-1.7365,-1.843,-1.8121,-1.7619,-1.7861,-1.8193,-1.8278,-1.8359,-1.7779,-1.7144,-1.682,-1.6404,-1.5667,-1.5014,-1.4514,-1.451,-1.4982,-1.5356,-1.5723,-1.5619,-1.5453,-1.5554,-2.5103,-2.5103,-2.5103,-2.5103,-2.5103,-2.5103,-2.5103,-2.5103,-2.5103,-2.5103,-2.5103,-2.5103,-2.5103,-2.498,-2.5095,-2.5333,-2.5713,-2.509,-2.4931,-2.4668,-2.4253,-2.3588,-2.3363,-2.3323,-2.3249,-2.2951,-2.3177,-2.3284,-2.3027,-2.2899,-2.3224,-2.3256,-2.2581,-2.2282,-2.2024,-2.1488,-2.1653,-2.2256,-2.2482,-2.2482,-2.2361,-2.2166,-2.1997,-2.0886,-2.075,-2.0691,-2.0467,-2.0325,-2.0069,-1.9879,-1.9601,-1.9279,-1.903,-1.8774,-1.8489,-1.8145,-1.7845,-1.7669,-1.7388,-1.7286,-1.7286,-1.7286,-1.7286,-1.7286,-1.7286,-1.7286,-1.7286,-1.7286,-1.7286,-1.7286,-1.7286,-1.7286,-1.7286,-1.7286,-1.7286,-1.7286,-1.7286,-1.7286,-1.7286,-1.7279,-1.7271,-1.7318,-1.7522,-1.7556,-1.7728,-1.7594,-1.7905,-1.7977,-1.8198,-1.8268,-1.8173,-1.8277,-1.8431,-1.822,-1.801,-1.7746,-1.7507,-1.7384,-1.7565,-1.7375,-1.7269,-1.6788,-1.6642,-1.6645,-1.605,-1.4957,-1.4636,-1.4634,-1.4768,-1.4986,-1.5255,-1.5427,-1.5636,-1.5564,-1.5646,-2.5103,-2.5103,-2.5165,-2.5173,-2.5226,-2.5111,-2.5103,-2.5103,-2.5103,-2.5165,-2.5226,-2.5165,-2.5226,-2.5349,-2.5709,-2.5965,-2.604,-2.5556,-2.5427,-2.5343,-2.4403,-2.3757,-2.3654,-2.3707,-2.3579,-2.3373,-2.3527,-2.3698,-2.3437,-2.3375,-2.3504,-2.3254,-2.2693,-2.214,-2.2089,-2.1525,-2.1225,-2.1318,-2.1482,-2.1596,-2.1658,-2.1534,-2.1436,-2.1084,-2.0918,-2.0867,-2.0896,-2.0676,-2.0398,-2.012,-1.9835,-1.9566,-1.928,-1.8972,-1.8672,-1.8343,-1.8043,-1.7743,-1.7366,-1.7323,-1.7315,-1.7293,-1.7286,-1.7286,-1.7286,-1.7286,-1.7286,-1.7286,-1.7286,-1.7286,-1.7286,-1.7286,-1.7286,-1.7286,-1.7286,-1.7286,-1.7286,-1.7286,-1.7286,-1.7286,-1.7286,-1.7372,-1.7738,-1.8056,-1.8498,-1.8803,-1.9312,-1.9582,-1.9721,-1.9367,-1.9184,-1.9341,-1.9402,-1.8715,-1.828,-1.7746,-1.7425,-1.7211,-1.6967,-1.6749,-1.6623,-1.6427,-1.6355,-1.6439,-1.5916,-1.5083,-1.5031,-1.5047,-1.5095,-1.5039,-1.4882,-1.5026,-1.5362,-1.567,-1.585,-2.5103,-2.5165,-2.5998,-2.6355,-2.6241,-2.541,-2.5103,-2.5103,-2.5165,-2.5578,-2.6059,-2.5586,-2.5647,-2.6006,-2.5538,-2.5631,-2.5961,-2.5274,-2.516,-2.5518,-2.4571,-2.4208,-2.4032,-2.3978,-2.3879,-2.3664,-2.3871,-2.3785,-2.326,-2.3484,-2.341,-2.3167,-2.2669,-2.214,-2.1664,-2.1319,-2.1489,-2.2256,-2.2425,-2.2425,-2.2353,-2.2148,-2.1794,-2.1203,-2.1072,-2.1086,-2.1181,-2.0903,-2.0603,-2.0212,-1.9945,-1.9691,-1.9352,-1.9089,-1.8942,-1.8686,-1.8445,-1.8321,-1.7999,-1.7816,-1.7538,-1.7428,-1.7286,-1.7286,-1.7286,-1.7286,-1.7286,-1.7286,-1.7286,-1.7286,-1.7286,-1.7286,-1.7286,-1.7286,-1.7286,-1.7286,-1.7286,-1.7286,-1.7286,-1.7286,-1.7286,-1.7785,-1.8195,-1.8826,-1.9336,-1.9889,-2.0367,-2.1146,-2.1482,-2.0554,-2.0038,-2.0289,-2.0272,-1.9362,-1.8696,-1.831,-1.738,-1.6783,-1.6417,-1.6117,-1.6004,-1.6148,-1.5948,-1.5925,-1.565,-1.534,-1.5541,-1.5616,-1.5249,-1.511,-1.5325,-1.531,-1.5562,-1.5908,-1.6199,-2.5521,-2.5618,-2.626,-2.6559,-2.6551,-2.6428,-2.6181,-2.5806,-2.5647,-2.6108,-2.6572,-2.57,-2.5762,-2.62,-2.5546,-2.5198,-2.5939,-2.4783,-2.498,-2.535,-2.4738,-2.4346,-2.4183,-2.4277,-2.4193,-2.4032,-2.3994,-2.3986,-2.3549,-2.3583,-2.3328,-2.2926,-2.2623,-2.2096,-2.1606,-2.1531,-2.1608,-2.2105,-2.2036,-2.2093,-2.2142,-2.207,-2.1851,-2.1432,-2.1189,-2.1211,-2.1152,-2.0969,-2.0628,-2.0318,-2.0011,-1.9696,-1.9433,-1.9235,-1.9155,-1.8891,-1.8642,-1.8511,-1.8247,-1.7962,-1.7699,-1.756,-1.7374,-1.7293,-1.7286,-1.7286,-1.7286,-1.7286,-1.7286,-1.7286,-1.7286,-1.7286,-1.7286,-1.7286,-1.7286,-1.7286,-1.7286,-1.7286,-1.7286,-1.7286,-1.7466,-1.801,-1.8788,-1.955,-2.0198,-2.0845,-2.1445,-2.2192,-2.2828,-2.1917,-2.1096,-2.1309,-2.1335,-2.0642,-1.9779,-1.8996,-1.7926,-1.6491,-1.6198,-1.6122,-1.6015,-1.6255,-1.5848,-1.5612,-1.5771,-1.6004,-1.6229,-1.6229,-1.6263,-1.6304,-1.6419,-1.6293,-1.5987,-1.6265,-1.6676,-2.6312,-2.6253,-2.6037,-2.6082,-2.631,-2.8061,-2.814,-2.6944,-2.6559,-2.673,-2.7099,-2.5907,-2.5946,-2.655,-2.5362,-2.5131,-2.5746,-2.4311,-2.4753,-2.5127,-2.4628,-2.4368,-2.4464,-2.4684,-2.4608,-2.4432,-2.4355,-2.4402,-2.4085,-2.372,-2.3261,-2.2767,-2.2447,-2.2001,-2.1708,-2.1613,-2.1553,-2.1621,-2.1539,-2.1596,-2.1596,-2.1432,-2.1432,-2.1211,-2.1211,-2.1211,-2.1189,-2.1123,-2.0779,-2.0409,-2.0146,-1.9813,-1.9506,-1.9286,-1.9067,-1.884,-1.8562,-1.8489,-1.8343,-1.8086,-1.786,-1.7713,-1.7432,-1.7337,-1.7286,-1.7286,-1.7286,-1.7286,-1.7286,-1.7286,-1.7286,-1.7286,-1.7286,-1.7286,-1.7286,-1.7286,-1.7286,-1.7286,-1.7286,-1.738,-1.7512,-1.8102,-1.9285,-2.015,-2.0917,-2.1686,-2.2192,-2.2457,-2.3003,-2.3003,-2.2369,-2.2413,-2.2322,-2.1933,-2.1024,-1.9821,-1.8689,-1.7307,-1.7008,-1.6893,-1.6672,-1.6362,-1.6147,-1.6077,-1.6386,-1.6613,-1.6741,-1.7179,-1.7634,-1.7651,-1.7425,-1.7316,-1.7021,-1.7115,-1.742,-2.6377,-2.7226,-2.8031,-2.838,-2.854,-2.9649,-2.8861,-2.6838,-2.7299,-2.8164,-2.9053,-2.6605,-2.6285,-2.724,-2.5491,-2.4711,-2.4405,-2.4322,-2.4421,-2.4461,-2.4453,-2.4639,-2.4788,-2.4939,-2.4903,-2.4857,-2.4857,-2.4734,-2.4417,-2.3922,-2.3351,-2.2714,-2.2517,-2.2082,-2.1723,-2.1576,-2.1423,-2.1298,-2.1218,-2.1211,-2.1211,-2.1211,-2.1211,-2.1211,-2.1211,-2.1211,-2.1211,-2.1181,-2.083,-2.0369,-2.0197,-1.9923,-1.9352,-1.9272,-1.9184,-1.9221,-1.903,-1.8921,-1.865,-1.8343,-1.8057,-1.7801,-1.7468,-1.733,-1.7286,-1.7286,-1.7286,-1.7286,-1.7286,-1.7286,-1.7286,-1.7286,-1.7286,-1.7286,-1.7286,-1.7286,-1.7286,-1.7286,-1.7333,-1.7652,-1.7785,-1.8834,-2.0014,-2.0746,-2.1507,-2.2325,-2.2872,-2.3003,-2.3101,-2.3101,-2.3101,-2.3101,-2.2687,-2.2104,-2.1418,-2.0338,-1.9309,-1.8287,-1.799,-1.7523,-1.6969,-1.6643,-1.6475,-1.6576,-1.6875,-1.7064,-1.7179,-1.7746,-1.8545,-1.84,-1.8209,-1.8154,-1.8151,-1.8259,-1.839,-2.7406,-2.8061,-2.8632,-2.8674,-2.849,-2.948,-2.8942,-2.7735,-2.818,-2.8823,-2.8842,-2.6747,-2.6509,-2.7167,-2.5319,-2.4002,-2.3634,-2.3731,-2.3829,-2.3821,-2.4047,-2.4285,-2.4579,-2.4865,-2.4976,-2.504,-2.5042,-2.498,-2.4672,-2.427,-2.371,-2.3118,-2.2822,-2.223,-2.1825,-2.1562,-2.1379,-2.1269,-2.1211,-2.1211,-2.1211,-2.1211,-2.1211,-2.1211,-2.1211,-2.1211,-2.1181,-2.1145,-2.0742,-2.0281,-2.0179,-1.9901,-1.9484,-1.9529,-1.9477,-1.9492,-1.9338,-1.9118,-1.8767,-1.8452,-1.8152,-1.7845,-1.7523,-1.733,-1.7286,-1.7286,-1.7286,-1.7286,-1.7286,-1.7286,-1.7286,-1.7286,-1.7286,-1.7286,-1.7286,-1.7286,-1.7286,-1.7286,-1.7559,-1.7971,-1.8742,-1.9786,-2.0647,-2.1329,-2.1971,-2.2643,-2.296,-2.3047,-2.3101,-2.3101,-2.3101,-2.3101,-2.2599,-2.2006,-2.1329,-2.0647,-1.9463,-1.8806,-1.9007,-1.8417,-1.7532,-1.7349,-1.7603,-1.753,-1.7448,-1.7673,-1.8012,-1.8742,-1.9387,-1.925,-1.9397,-1.97,-1.972,-1.9539,-1.9628,-2.8783,-2.8873,-2.8506,-2.797,-2.7088,-2.8534,-2.8937,-2.8883,-2.8867,-2.8632,-2.7986,-2.6518,-2.6487,-2.6834,-2.4869,-2.3676,-2.3427,-2.3395,-2.3427,-2.3093,-2.3538,-2.3896,-2.4213,-2.448,-2.4754,-2.4976,-2.5095,-2.5042,-2.4988,-2.4587,-2.4116,-2.3606,-2.3096,-2.2543,-2.2083,-2.1678,-2.148,-2.124,-2.1211,-2.1211,-2.1211,-2.1211,-2.1211,-2.1211,-2.1211,-2.1203,-2.1137,-2.0933,-2.0611,-2.0296,-2.0077,-1.9923,-1.9874,-1.9698,-1.9705,-1.9676,-1.9478,-1.917,-1.8811,-1.8489,-1.816,-1.7838,-1.7523,-1.7337,-1.7286,-1.7286,-1.7286,-1.7286,-1.7286,-1.7286,-1.7286,-1.7286,-1.7286,-1.7286,-1.7286,-1.7286,-1.7286,-1.7606,-1.8203,-1.8703,-1.9559,-2.0602,-2.1561,-2.2236,-2.2325,-2.2916,-2.3101,-2.3101,-2.296,-2.296,-2.2916,-2.2916,-2.2369,-2.1828,-2.1373,-2.0557,-1.9513,-1.9107,-1.931,-1.8873,-1.7614,-1.8039,-1.8938,-1.8282,-1.7631,-1.8498,-1.909,-1.9616,-2.0089,-2.0564,-2.0821,-2.1327,-2.1305,-2.0909,-2.0852,-2.888,-2.9717,-2.9605,-2.9386,-2.9227,-2.955,-2.9219,-2.8496,-2.9379,-2.9758,-2.949,-2.7619,-2.6545,-2.6581,-2.4813,-2.3681,-2.3416,-2.3764,-2.3445,-2.3527,-2.3705,-2.4038,-2.4133,-2.4523,-2.4699,-2.477,-2.4921,-2.5079,-2.505,-2.4772,-2.4409,-2.4008,-2.3504,-2.3044,-2.2334,-2.1918,-2.1734,-2.129,-2.1262,-2.124,-2.1211,-2.1211,-2.1211,-2.1211,-2.1211,-2.1211,-2.1167,-2.1115,-2.0874,-2.064,-2.0559,-2.0377,-2.0142,-1.9681,-1.9625,-1.9698,-1.9514,-1.914,-1.8825,-1.8518,-1.8225,-1.7874,-1.7582,-1.7421,-1.7286,-1.7286,-1.7286,-1.7293,-1.7286,-1.7286,-1.7286,-1.7286,-1.7286,-1.7286,-1.7333,-1.7333,-1.7333,-1.8064,-1.8796,-1.965,-2.0466,-2.1329,-2.229,-2.274,-2.2906,-2.3003,-2.3091,-2.3003,-2.2696,-2.2599,-2.2467,-2.2369,-2.205,-2.1552,-2.1051,-2.0286,-1.9101,-1.8742,-1.8894,-1.8341,-1.7696,-1.7888,-1.8198,-1.8016,-1.7832,-1.8692,-1.938,-1.9901,-2.0463,-2.1159,-2.1668,-2.2002,-2.2285,-2.201,-2.2078,-2.9386,-2.9994,-2.9994,-2.9994,-2.9994,-2.9994,-2.9606,-2.9217,-2.9722,-3.0139,-3.0103,-2.8296,-2.7248,-2.7086,-2.5532,-2.4634,-2.4479,-2.479,-2.4975,-2.4932,-2.4656,-2.4733,-2.487,-2.4802,-2.4537,-2.4611,-2.4759,-2.4905,-2.5018,-2.4972,-2.4662,-2.4352,-2.3992,-2.342,-2.2629,-2.2353,-2.1997,-2.1469,-2.145,-2.1335,-2.1262,-2.1225,-2.1211,-2.1211,-2.1211,-2.1211,-2.1137,-2.1101,-2.0896,-2.0708,-2.0691,-2.0508,-2.0252,-1.9952,-1.9769,-1.9667,-1.9507,-1.914,-1.8847,-1.8599,-1.8357,-1.8043,-1.7728,-1.7604,-1.7541,-1.7534,-1.7457,-1.7443,-1.7301,-1.7286,-1.7286,-1.7286,-1.7286,-1.7286,-1.7372,-1.7466,-1.7831,-1.8473,-1.9513,-2.0737,-2.1329,-2.173,-2.2555,-2.2916,-2.3047,-2.3047,-2.3091,-2.2687,-2.2422,-2.1882,-2.1828,-2.1552,-2.1051,-2.0602,-1.9968,-1.933,-1.8511,-1.8373,-1.8511,-1.8395,-1.808,-1.7615,-1.7382,-1.7533,-1.7933,-1.8732,-1.9428,-2.0121,-2.0848,-2.1535,-2.206,-2.2457,-2.2711,-2.293,-2.29,-2.9829,-2.9901,-2.9973,-2.9994,-2.9994,-2.9942,-2.9942,-2.9942,-2.9879,-2.9889,-2.9868,-2.8857,-2.8392,-2.7839,-2.7077,-2.6698,-2.6345,-2.5971,-2.6218,-2.6354,-2.63,-2.598,-2.5605,-2.5346,-2.487,-2.4553,-2.4575,-2.4833,-2.5103,-2.5034,-2.4887,-2.4655,-2.4268,-2.3865,-2.3183,-2.2634,-2.2193,-2.1857,-2.1698,-2.1547,-2.1393,-2.1262,-2.1262,-2.1247,-2.1211,-2.1211,-2.1108,-2.0991,-2.0808,-2.0764,-2.0757,-2.0567,-2.034,-2.0098,-1.9916,-1.974,-1.9507,-1.9169,-1.8935,-1.8796,-1.8599,-1.8364,-1.805,-1.7889,-1.7882,-1.7816,-1.7691,-1.7552,-1.7457,-1.7323,-1.733,-1.7286,-1.7286,-1.7419,-1.7559,-1.7831,-1.838,-1.9063,-2.0376,-2.1695,-2.2006,-2.2325,-2.2599,-2.3003,-2.3047,-2.3047,-2.2775,-2.2369,-2.1828,-2.106,-2.0602,-2.015,-1.955,-1.9101,-1.9155,-1.8511,-1.7963,-1.8288,-1.8473,-1.8557,-1.8419,-1.7692,-1.7365,-1.7515,-1.8025,-1.8851,-1.9748,-2.0499,-2.1212,-2.1931,-2.234,-2.2803,-2.2987,-2.3221,-2.3337,-2.9094,-2.9466,-2.9839,-2.9994,-2.9994,-2.9774,-2.9774,-2.9879,-2.9501,-2.9396,-2.9586,-2.9491,-2.8943,-2.8116,-2.6969,-2.6698,-2.7086,-2.6924,-2.6902,-2.6976,-2.709,-2.6875,-2.629,-2.5469,-2.5028,-2.4711,-2.4523,-2.4778,-2.5056,-2.5103,-2.5042,-2.4956,-2.4648,-2.418,-2.3582,-2.3052,-2.2612,-2.2216,-2.2013,-2.1891,-2.1715,-2.154,-2.1415,-2.1335,-2.1211,-2.1211,-2.1181,-2.1152,-2.113,-2.105,-2.0874,-2.0684,-2.0457,-2.0201,-1.9974,-1.9769,-1.9529,-1.9353,-1.917,-1.895,-1.8767,-1.8708,-1.8423,-1.8218,-1.8211,-1.8211,-1.8043,-1.7823,-1.7699,-1.7505,-1.7454,-1.7323,-1.7333,-1.7738,-1.7971,-1.8511,-1.9063,-2.015,-2.1418,-2.2094,-2.2501,-2.2633,-2.2731,-2.2916,-2.2828,-2.2643,-2.2094,-2.1686,-2.1195,-2.0331,-1.9476,-1.8872,-1.828,-1.9001,-1.955,-1.8195,-1.7645,-1.8056,-1.8288,-1.8102,-1.7878,-1.7559,-1.7365,-1.7483,-1.8164,-1.9032,-1.9918,-2.0775,-2.1588,-2.2272,-2.2687,-2.3076,-2.3266,-2.356,-2.3767]},{"header":{"parameterUnit":"m.s-1","parameterCategory":1,"la1":31.0,"la2":29.5877,"lo1":-88.7671,"lo2":-86.6584,"dy":0.0162,"dx":0.0185,"nx":115,"ny":88,"refTime":"2023-07-14T00:00:00:Z","depth":0,"parameterNumber":3,"parameterNumberName":"V-component_of_WINDS"},"data":[0.0,0.0,0.0,0.0,0.0,0.0,0.0,0.0,0.0,0.0,0.0,0.0,0.0,0.0,0.0,0.0,0.0,0.0,0.0,0.0,0.0,0.0,0.0,0.0,0.0,0.0,0.0,0.0,0.0,0.0,0.0,0.0,0.0,0.0,0.0,0.0,0.0,0.0,0.0,0.0,0.0,0.0,0.0,0.0,0.0,0.0,0.0,0.0,0.0,0.0,0.0,0.0,0.0,0.0,0.0,0.0,0.0,0.0,0.0,0.0,0.0,0.0,0.0,0.0,0.0,0.0,0.0,0.0,0.0,0.0,0.0,0.0,0.0,0.0,0.0,0.0,0.0,0.0,0.0,0.0,0.0,0.0,0.0,0.0,0.0,0.0,0.0,0.0,0.0,0.0,0.0,0.0,0.0,0.0,0.0,0.0,0.0,0.0,0.0,0.0,0.0,0.0,0.0,0.0,0.0,0.0,0.0,0.0,0.0,0.0,0.0,0.0,0.0,0.0,0.0,0.0,0.0,0.0,0.0,0.0,0.0,0.0,0.0,0.0,0.0,0.0,0.0,0.0,0.0,0.0,0.0,0.0,0.0,0.0,0.0,0.0,0.0,0.0,0.0,0.0,0.0,0.0,0.0,0.0,0.0,0.0,0.0,0.0,0.0,0.0,0.0,0.0,0.0,0.0,0.0,0.0,0.0,0.0,0.0,0.0,0.0,0.0,0.0,0.0,0.0,0.0,0.0,0.0,0.0,0.0,0.0,0.0,0.0,0.0,0.0,0.0,0.0,0.0,0.0,0.0,0.0,0.0,0.0,0.0,0.0,0.0,0.0,0.0,0.0,0.0,0.0,0.0,0.0,0.0,0.0,0.0,0.0,0.0,0.0,0.0,0.0,0.0,0.0,0.0,0.0,0.0,0.0,0.0,0.0,0.0,0.0,0.0,0.0,0.0,0.0,0.0,0.0,0.0,0.0,0.0,0.0,0.0,0.0,0.0,0.0,0.0,0.0,0.0,0.0,0.0,0.0,0.0,0.0,0.0,0.0,0.0,0.0,0.0,0.0,0.0,0.0,0.0,0.0,0.0,0.0,0.0,0.0,0.0,0.0,0.0,0.0,0.0,0.0,0.0,0.0,0.0,0.0,0.0,0.0,0.0,0.0,0.0,0.0,0.0,0.0,0.0,0.0,0.0,0.0,0.0,0.0,0.0,0.0,0.0,0.0,0.0,0.0,0.0,0.0,0.0,0.0,0.0,0.0,0.0,0.0,0.0,0.0,0.0,0.0,0.0,0.0,0.0,0.0,0.0,0.0,0.0,0.0,0.0,0.0,0.0,0.0,0.0,0.0,0.0,0.0,0.0,0.0,0.0,0.0,0.0,0.0,0.0,0.0,0.0,0.0,0.0,0.0,0.0,0.0,0.0,0.0,0.0,0.0,0.0,0.0,0.0,0.0,0.0,0.0,0.0,0.0,0.0,0.0,0.0,0.0,0.0,0.0,0.0,0.0,0.0,0.0,0.0,0.0,0.0,0.0,0.0,0.0,0.0,0.0,0.0,0.0,0.0,0.0,0.0,0.0,0.0,0.0,0.0,0.0,0.0,0.0,0.0,0.0,0.0,0.0,0.0,0.0,0.0,0.0,0.0,0.0,0.0,0.0,0.0,0.0,0.0,0.0,0.0,0.0,0.0,0.0,0.0,0.0,0.0,0.0,0.0,0.0,0.0,0.0,0.0,0.0,0.0,0.0,0.0,0.0,0.0,0.0,0.0,0.0,0.0,0.0,0.0,0.0,0.0,0.0,0.0,0.0,0.0,0.0,0.0,0.0,0.0,0.0,0.0,0.0,0.0,0.0,0.0,0.0,0.0,0.0,0.0,0.0,0.0,0.0,0.0,0.0,0.0,0.0,0.0,0.0,0.0,0.0,0.0,0.0,0.0,0.0,0.0,0.0,0.0,0.0,0.0,0.0,0.0,0.0,0.0,0.0,0.0,0.0,0.0,0.0,0.0,0.0,0.0,0.0,0.0,0.0,0.0,0.0,0.0,0.0,0.0,0.0,0.0,0.0,0.0,0.0,0.0,0.0,0.0,0.0,0.0,0.0,0.0,0.0,0.0,0.0,0.0,0.0,0.0,0.0,0.0,0.0,0.0,0.0,0.0,0.0,0.0,0.0,0.0,0.0,0.0,0.0,0.0,0.0,0.0,0.0,0.0,0.0,0.0,0.0,0.0,0.0,0.0,0.0,0.0,0.0,0.0,0.0,0.0,0.0,0.0,0.0,0.0,0.0,0.0,0.0,0.0,0.0,0.0,0.0,0.0,0.0,0.0,0.0,0.0,0.0,0.0,0.0,0.0,0.0,0.0,0.0,0.0,0.0,0.0,0.0,0.0,0.0,0.0,0.0,0.0,0.0,0.0,0.0,0.0,0.0,0.0,0.0,0.0,0.0,0.0,0.0,0.0,0.0,0.0,0.0,0.0,0.0,0.0,0.0,0.0,0.0,0.0,0.0,0.0,0.0,0.0,0.0,0.0,0.0,0.0,0.0,0.0,0.0,0.0,0.0,0.0,0.0,0.0,0.0,0.0,0.0,0.0,0.0,0.0,0.0,0.0,0.0,0.0,0.0,0.0,0.0,0.0,0.0,0.0,0.0,0.0,0.0,0.0,0.0,0.0,0.0,0.0,0.0,0.0,0.0,0.0,0.0,0.0,0.0,0.0,0.0,0.0,0.0,0.0,0.0,0.0,0.0,0.0,0.0,0.0,0.0,0.0,0.0,0.0,0.0,0.0,0.0,0.0,0.0,0.0,0.0,0.0,0.0,0.0,0.0,0.0,0.0,0.0,0.0,0.0,0.0,0.0,0.0,0.0,0.0,0.0,0.0,0.0,0.0,0.0,0.0,0.0,0.0,0.0,0.0,0.0,0.0,0.0,0.0,0.0,0.0,0.0,0.0,0.0,0.0,0.0,0.0,0.0,0.0,0.0,0.0,0.0,0.0,0.0,0.0,0.0,0.0,0.0,0.0,0.0,0.0,0.0,0.0,0.0,0.0,0.0,0.0,0.0,0.0,0.0,0.0,0.0,0.0,0.0,0.0,0.0,0.0,0.0,0.0,0.0,0.0,0.0,0.0,0.0,0.0,0.0,0.0,0.0,0.0,0.0,0.0,0.0,0.0,0.0,0.0,0.0,0.0,0.0,0.0,0.0,0.0,0.0,0.0,0.0,0.0,0.0,0.0,0.0,0.0,0.0,0.0,0.0,0.0,0.0,0.0,0.0,0.0,0.0,0.0,0.0,0.0,0.0,0.0,0.0,0.0,0.0,0.0,0.0,0.0,0.0,0.0,0.0,0.0,0.0,0.0,0.0,0.0,0.0,0.0,0.0,0.0,0.0,0.0,0.0,0.0,0.0,0.0,0.0,0.0,0.0,0.0,0.0,0.0,0.0,0.0,0.0,0.0,0.0,0.0,0.0,0.0,0.0,0.0,0.0,0.0,0.0,0.0,0.0,0.0,0.0,0.0,0.0,0.0,0.0,0.0,0.0,0.0,0.0,0.0,0.0,0.0,0.0,0.0,0.0,0.0,0.0,0.0,0.0,0.0,0.0,0.0,0.0,0.0,0.0,0.0,0.0,0.0,0.0,0.0,0.0,0.0,0.0,0.0,0.0,0.0,0.0,0.0,0.0,0.0,0.0,0.0,0.0,0.0,0.0,0.0,0.0,0.0,0.0,0.0,0.0,0.0,0.0,0.0,0.0,0.0,0.0,0.0,0.0,0.0,0.0,0.0,0.0,0.0,0.0,0.0,0.0,0.0,0.0,0.0,0.0,0.0,0.0,0.0,0.0,0.0,0.0,0.0,0.0,0.0,0.0,0.0,0.0,0.0,0.0,0.0,0.0,0.0,0.0,0.0,0.0,0.0,0.0,0.0,0.0,0.0,0.0,0.0,0.0,0.0,0.0,0.0,0.0,0.0,0.0,0.0,0.0,0.0,0.0,0.0,0.0,0.0,0.0,0.0,0.0,0.0,0.0,0.0,0.0,0.0,0.0,0.0,0.0,0.0,0.0,0.0,0.0,0.0,0.0,0.0,0.0,0.0,0.0,0.0,0.0,0.0,0.0,0.0,0.0,0.0,0.0,0.0,0.0,0.0,0.0,0.0,0.0,0.0,0.0,0.0,0.0,0.0,0.0,0.0,0.0,0.0,0.0,0.0,0.0,0.0,0.0,0.0,0.0,0.0,0.0,0.0,0.0,0.0,0.0,0.0,0.0,0.0,0.0,0.0,0.0,-0.7484,0.0,0.0,0.0,0.0,0.0,0.0,0.0,0.0,0.0,0.0,0.0,0.0,0.0,0.0,0.0,0.0,0.0,0.0,0.0,0.0,0.0,0.0,0.0,0.0,0.0,0.0,0.0,0.0,0.0,0.0,0.0,0.0,0.0,0.0,0.0,0.0,0.0,0.0,0.0,0.0,0.0,0.0,0.0,0.0,0.0,0.0,0.0,0.0,0.0,0.0,0.0,0.0,0.0,0.0,0.0,0.0,0.0,0.0,0.0,0.0,0.0,0.0,0.0,0.0,0.0,0.0,0.0,0.0,0.0,0.0,0.0,0.0,0.0,0.0,0.0,0.0,0.0,0.0,0.0,0.0,0.0,0.0,0.0,0.0,0.0,0.0,0.0,0.0,0.0,0.0,0.0,0.0,0.0,0.0,0.0,0.0,0.0,0.0,0.0,0.0,0.0,0.0,0.0,0.0,0.0,0.0,0.0,0.0,0.0,0.0,-0.8642,-0.907,-0.7366,-0.7166,-0.874,0.0,0.0,0.0,0.0,0.0,0.0,0.0,0.0,0.0,0.0,0.0,0.0,0.0,0.0,0.0,0.0,0.0,0.0,0.0,0.0,0.0,0.0,0.0,0.0,0.0,0.0,0.0,0.0,0.0,0.0,0.0,0.0,0.0,0.0,0.0,0.0,0.0,0.0,0.0,0.0,0.0,0.0,0.0,0.0,0.0,0.0,0.0,0.0,0.0,0.0,0.0,0.0,0.0,0.0,0.0,0.0,0.0,0.0,0.0,0.0,0.0,0.0,0.0,0.0,0.0,0.0,0.0,0.0,0.0,0.0,0.0,0.0,0.0,0.0,0.0,0.0,0.0,0.0,0.0,0.0,0.0,0.0,0.0,0.0,0.0,0.0,0.0,0.0,0.0,0.0,0.0,0.0,0.0,0.0,0.0,0.0,0.0,0.0,0.0,0.0,0.0,0.0,0.0,0.0,0.0,0.0,0.0,0.0,0.0,0.0,0.0,0.0,-0.8432,-0.8449,-1.0092,0.0,0.0,0.0,0.0,0.0,0.0,0.0,0.0,0.0,0.0,0.0,0.0,0.0,0.0,0.0,0.0,0.0,0.0,0.0,0.0,0.0,0.0,0.0,0.0,0.0,0.0,0.0,0.0,0.0,0.0,0.0,0.0,0.0,0.0,0.0,0.0,0.0,0.0,0.0,0.0,0.0,0.0,0.0,0.0,0.0,0.0,0.0,0.0,0.0,0.0,0.0,0.0,0.0,0.0,0.0,0.0,0.0,0.0,0.0,0.0,0.0,0.0,0.0,0.0,0.0,0.0,0.0,0.0,0.0,0.0,0.0,0.0,0.0,0.0,0.0,0.0,0.0,0.0,0.0,0.0,0.0,0.0,0.0,0.0,0.0,0.0,0.0,0.0,0.0,0.0,0.0,0.0,0.0,0.0,0.0,0.0,0.0,0.0,0.0,0.0,0.0,0.0,0.0,0.0,0.0,0.0,0.0,0.0,0.0,0.0,-1.1565,-1.1806,-1.1086,0.0,-1.1745,0.0,0.0,0.0,0.0,0.0,0.0,0.0,0.0,0.0,0.0,0.0,0.0,0.0,0.0,0.0,0.0,0.0,0.0,0.0,0.0,0.0,0.0,0.0,0.0,0.0,0.0,0.0,0.0,0.0,0.0,0.0,0.0,0.0,0.0,0.0,0.0,0.0,0.0,0.0,0.0,0.0,0.0,0.0,0.0,0.0,0.0,0.0,0.0,0.0,0.0,0.0,0.0,0.0,0.0,0.0,0.0,0.0,0.0,0.0,0.0,0.0,0.0,0.0,0.0,0.0,0.0,0.0,0.0,0.0,0.0,0.0,0.0,0.0,0.0,0.0,0.0,0.0,0.0,0.0,0.0,0.0,0.0,0.0,0.0,0.0,0.0,0.0,0.0,0.0,0.0,0.0,0.0,0.0,0.0,0.0,0.0,0.0,0.0,0.0,0.0,0.0,0.0,0.0,0.0,0.0,0.0,0.0,0.0,0.0,0.0,-1.2265,-1.246,-1.2417,-1.2351,0.0,0.0,0.0,0.0,0.0,0.0,0.0,0.0,0.0,0.0,0.0,0.0,0.0,0.0,0.0,0.0,0.0,0.0,0.0,0.0,0.0,0.0,0.0,0.0,0.0,0.0,0.0,0.0,0.0,0.0,0.0,0.0,0.0,0.0,0.0,0.0,0.0,0.0,0.0,0.0,0.0,0.0,0.0,0.0,0.0,0.0,0.0,0.0,0.0,0.0,0.0,0.0,0.0,0.0,0.0,0.0,0.0,0.0,0.0,0.0,0.0,0.0,0.0,0.0,0.0,0.0,0.0,0.0,0.0,0.0,0.0,0.0,0.0,0.0,0.0,0.0,0.0,0.0,0.0,0.0,0.0,0.0,0.0,0.0,0.0,0.0,0.0,0.0,0.0,0.0,0.0,0.0,0.0,0.0,0.0,0.0,0.0,0.0,0.0,0.0,0.0,0.0,0.0,0.0,0.0,0.0,0.0,0.0,0.0,0.0,-1.329,-1.3052,-1.3193,-1.324,-1.3119,-1.2854,0.0,0.0,0.0,0.0,0.0,0.0,0.0,0.0,0.0,0.0,0.0,0.0,0.0,0.0,0.0,0.0,0.0,0.0,0.0,0.0,0.0,0.0,0.0,0.0,0.0,0.0,0.0,0.0,0.0,0.0,0.0,0.0,0.0,0.0,0.0,0.0,0.0,0.0,0.0,0.0,0.0,0.0,0.0,0.0,0.0,0.0,0.0,0.0,0.0,0.0,0.0,0.0,0.0,0.0,0.0,0.0,0.0,0.0,0.0,0.0,0.0,0.0,0.0,0.0,0.0,0.0,0.0,0.0,0.0,0.0,0.0,0.0,0.0,0.0,0.0,0.0,0.0,0.0,0.0,0.0,0.0,0.0,0.0,0.0,0.0,0.0,0.0,0.0,0.0,0.0,0.0,0.0,0.0,0.0,0.0,0.0,0.0,0.0,0.0,0.0,0.0,0.0,0.0,0.0,0.0,0.0,0.0,0.0,-1.5581,-1.4694,-1.428,-1.4364,-1.3569,-1.3385,0.0,0.0,0.0,0.0,0.0,0.0,0.0,0.0,0.0,0.0,0.0,0.0,0.0,0.0,0.0,0.0,0.0,0.0,0.0,0.0,0.0,0.0,0.0,0.0,0.0,0.0,0.0,0.0,0.0,0.0,0.0,0.0,0.0,0.0,0.0,0.0,0.0,0.0,0.0,0.0,0.0,0.0,0.0,0.0,0.0,0.0,0.0,0.0,0.0,0.0,0.0,0.0,0.0,0.0,0.0,0.0,0.0,0.0,0.0,0.0,0.0,0.0,0.0,0.0,0.0,0.0,0.0,0.0,0.0,0.0,0.0,0.0,0.0,0.0,0.0,0.0,0.0,0.0,0.0,0.0,0.0,0.0,0.0,0.0,0.0,0.0,0.0,0.0,0.0,0.0,0.0,0.0,0.0,0.0,0.0,0.0,0.0,0.0,0.0,0.0,0.0,0.0,0.0,0.0,0.0,0.0,0.0,0.0,0.0,-1.494,-1.4577,-1.4397,-1.4429,-1.4277,-1.4297,0.0,0.0,0.0,0.0,0.0,0.0,0.0,0.0,0.0,0.0,0.0,0.0,0.0,0.0,0.0,0.0,0.0,0.0,0.0,0.0,0.0,0.0,0.0,0.0,0.0,0.0,0.0,0.0,0.0,0.0,0.0,0.0,0.0,0.0,0.0,0.0,0.0,0.0,0.0,0.0,0.0,0.0,0.0,0.0,0.0,0.0,0.0,0.0,0.0,0.0,0.0,0.0,0.0,0.0,0.0,0.0,0.0,0.0,0.0,0.0,0.0,0.0,0.0,0.0,0.0,0.0,0.0,0.0,0.0,0.0,0.0,0.0,0.0,0.0,0.0,0.0,0.0,0.0,0.0,0.0,0.0,0.0,0.0,0.0,0.0,0.0,0.0,0.0,0.0,0.0,0.0,0.0,0.0,0.0,0.0,0.0,0.0,0.0,0.0,0.0,0.0,0.0,0.0,0.0,0.0,0.0,0.0,0.0,0.0,-1.4856,0.0,-1.4485,-1.4655,-1.4679,-1.4705,0.0,0.0,0.0,0.0,0.0,0.0,0.0,0.0,0.0,0.0,0.0,0.0,0.0,0.0,0.0,0.0,0.0,0.0,0.0,0.0,0.0,0.0,0.0,0.0,0.0,0.0,0.0,0.0,0.0,0.0,0.0,0.0,0.0,0.0,0.0,0.0,0.0,0.0,0.0,0.0,0.0,0.0,0.0,0.0,0.0,0.0,0.0,0.0,0.0,0.0,0.0,0.0,0.0,0.0,0.0,0.0,0.0,0.0,0.0,0.0,0.0,0.0,0.0,0.0,0.0,0.0,0.0,0.0,0.0,0.0,0.0,0.0,0.0,0.0,0.0,0.0,0.0,0.0,0.0,0.0,0.0,0.0,0.0,0.0,0.0,0.0,0.0,0.0,0.0,0.0,0.0,0.0,0.0,0.0,0.0,0.0,0.0,0.0,0.0,0.0,0.0,0.0,0.0,0.0,0.0,0.0,0.0,0.0,-1.5389,-1.5529,-1.4803,-1.4684,-1.5182,-1.4798,-1.4545,0.0,0.0,0.0,0.0,0.0,0.0,0.0,0.0,0.0,0.0,0.0,0.0,0.0,0.0,0.0,0.0,0.0,0.0,0.0,0.0,0.0,0.0,0.0,0.0,0.0,0.0,0.0,0.0,0.0,0.0,0.0,0.0,0.0,0.0,0.0,0.0,0.0,0.0,0.0,0.0,0.0,0.0,0.0,0.0,0.0,0.0,0.0,0.0,0.0,0.0,0.0,0.0,0.0,0.0,0.0,0.0,0.0,0.0,0.0,0.0,0.0,0.0,0.0,0.0,0.0,0.0,0.0,0.0,0.0,0.0,0.0,0.0,0.0,0.0,0.0,0.0,0.0,0.0,0.0,0.0,0.0,0.0,0.0,0.0,0.0,0.0,0.0,0.0,0.0,0.0,0.0,0.0,0.0,0.0,0.0,0.0,0.0,0.0,0.0,0.0,0.0,0.0,0.0,0.0,0.0,0.0,0.0,0.0,0.0,-1.5178,-1.4639,-1.5205,-1.6909,-1.5307,-1.5185,0.0,0.0,0.0,0.0,0.0,0.0,0.0,0.0,0.0,0.0,0.0,0.0,0.0,0.0,0.0,0.0,0.0,0.0,0.0,0.0,0.0,0.0,0.0,0.0,0.0,0.0,0.0,0.0,0.0,0.0,0.0,0.0,0.0,0.0,0.0,0.0,0.0,0.0,0.0,0.0,0.0,0.0,0.0,0.0,0.0,0.0,0.0,0.0,0.0,0.0,0.0,0.0,0.0,0.0,0.0,0.0,0.0,0.0,0.0,0.0,0.0,0.0,0.0,0.0,0.0,0.0,0.0,0.0,0.0,0.0,0.0,0.0,0.0,0.0,0.0,0.0,0.0,0.0,0.0,0.0,0.0,0.0,0.0,0.0,0.0,0.0,0.0,0.0,0.0,0.0,0.0,0.0,0.0,0.0,0.0,0.0,0.0,0.0,0.0,0.0,0.0,0.0,0.0,0.0,0.0,0.0,0.0,0.0,0.0,-1.5939,-1.5447,-1.5854,-1.7334,-1.6111,-1.5838,-1.6684,0.0,0.0,0.0,0.0,0.0,0.0,0.0,0.0,0.0,0.0,0.0,0.0,0.0,0.0,0.0,0.0,0.0,0.0,0.0,0.0,0.0,0.0,0.0,0.0,0.0,0.0,0.0,0.0,0.0,0.0,0.0,0.0,0.0,0.0,0.0,0.0,0.0,0.0,0.0,0.0,0.0,0.0,0.0,0.0,0.0,0.0,0.0,0.0,0.0,0.0,0.0,0.0,0.0,0.0,0.0,0.0,0.0,0.0,0.0,0.0,0.0,0.0,0.0,0.0,0.0,0.0,0.0,0.0,0.0,0.0,0.0,0.0,0.0,0.0,0.0,0.0,0.0,0.0,0.0,0.0,0.0,0.0,0.0,0.0,0.0,0.0,0.0,0.0,0.0,0.0,0.0,0.0,0.0,0.0,0.0,0.0,0.0,0.0,0.0,0.0,0.0,0.0,0.0,0.0,0.0,0.0,0.0,0.0,-1.7696,-1.7247,-1.6961,-1.6846,-1.7146,-1.6516,0.0,0.0,0.0,0.0,0.0,0.0,0.0,0.0,0.0,0.0,0.0,0.0,0.0,0.0,0.0,0.0,0.0,0.0,0.0,0.0,0.0,0.0,0.0,0.0,0.0,0.0,0.0,0.0,0.0,0.0,0.0,0.0,0.0,0.0,0.0,0.0,0.0,0.0,0.0,0.0,0.0,0.0,0.0,0.0,0.0,0.0,0.0,0.0,0.0,0.0,0.0,0.0,0.0,0.0,0.0,0.0,0.0,0.0,0.0,0.0,0.0,0.0,0.0,0.0,0.0,0.0,0.0,0.0,0.0,0.0,0.0,0.0,0.0,0.0,0.0,0.0,0.0,0.0,0.0,0.0,0.0,0.0,0.0,0.0,0.0,0.0,0.0,0.0,0.0,0.0,0.0,0.0,0.0,0.0,0.0,0.0,0.0,0.0,0.0,0.0,0.0,0.0,0.0,0.0,0.0,0.0,0.0,0.0,0.0,-1.9058,-2.0907,-2.1329,-2.0062,-1.8416,-1.7619,0.0,0.0,0.0,0.0,0.0,0.0,0.0,0.0,0.0,0.0,0.0,0.0,0.0,0.0,0.0,0.0,0.0,0.0,0.0,0.0,0.0,0.0,0.0,0.0,0.0,0.0,0.0,0.0,0.0,0.0,0.0,0.0,0.0,0.0,0.0,0.0,0.0,0.0,0.0,0.0,0.0,0.0,0.0,0.0,0.0,0.0,0.0,0.0,0.0,0.0,0.0,0.0,0.0,0.0,0.0,0.0,0.0,0.0,0.0,0.0,0.0,0.0,0.0,0.0,0.0,0.0,0.0,0.0,0.0,0.0,0.0,0.0,0.0,0.0,0.0,0.0,0.0,0.0,0.0,0.0,0.0,0.0,0.0,0.0,0.0,0.0,0.0,0.0,0.0,0.0,0.0,0.0,0.0,0.0,0.0,0.0,0.0,0.0,0.0,0.0,0.0,0.0,0.0,0.0,0.0,0.0,0.0,0.0,-1.9718,-2.0406,-2.3323,-2.4431,-2.3465,-2.1637,-1.984,0.0,0.0,0.0,0.0,0.0,0.0,0.0,0.0,0.0,0.0,0.0,0.0,0.0,0.0,0.0,0.0,0.0,0.0,0.0,0.0,0.0,0.0,0.0,0.0,0.0,0.0,0.0,0.0,0.0,0.0,0.0,0.0,0.0,0.0,0.0,0.0,0.0,0.0,0.0,0.0,0.0,0.0,0.0,0.0,0.0,0.0,0.0,0.0,0.0,0.0,0.0,0.0,0.0,0.0,0.0,0.0,0.0,0.0,0.0,0.0,0.0,0.0,0.0,0.0,0.0,0.0,0.0,0.0,0.0,0.0,0.0,0.0,0.0,0.0,0.0,0.0,0.0,0.0,0.0,0.0,0.0,0.0,0.0,0.0,0.0,0.0,0.0,0.0,0.0,0.0,0.0,0.0,0.0,0.0,0.0,0.0,0.0,0.0,0.0,0.0,0.0,0.0,0.0,0.0,0.0,0.0,0.0,0.0,-2.0527,-2.1698,-2.4859,-2.6557,-2.655,-2.5326,-2.2423,0.0,0.0,0.0,0.0,0.0,0.0,0.0,0.0,0.0,0.0,0.0,0.0,0.0,0.0,0.0,0.0,0.0,0.0,0.0,0.0,0.0,0.0,0.0,0.0,0.0,0.0,0.0,0.0,0.0,0.0,0.0,0.0,0.0,0.0,0.0,0.0,0.0,0.0,0.0,0.0,0.0,0.0,0.0,0.0,0.0,0.0,0.0,0.0,0.0,0.0,0.0,0.0,0.0,0.0,0.0,0.0,0.0,0.0,0.0,0.0,0.0,0.0,0.0,0.0,0.0,0.0,0.0,0.0,0.0,0.0,0.0,0.0,0.0,0.0,0.0,0.0,0.0,0.0,0.0,0.0,0.0,0.0,0.0,0.0,0.0,0.0,0.0,0.0,0.0,0.0,0.0,0.0,0.0,0.0,0.0,0.0,0.0,0.0,0.0,0.0,0.0,0.0,0.0,0.0,0.0,0.0,0.0,0.0,-2.1613,-2.2278,-2.5648,-2.753,-2.7712,-2.521,-2.2703,0.0,0.0,0.0,0.0,0.0,0.0,0.0,0.0,0.0,0.0,0.0,0.0,0.0,0.0,0.0,0.0,0.0,0.0,0.0,0.0,0.0,0.0,0.0,0.0,0.0,0.0,0.0,0.0,0.0,0.0,0.0,0.0,0.0,0.0,0.0,0.0,0.0,0.0,0.0,0.0,0.0,0.0,0.0,0.0,0.0,0.0,0.0,0.0,-1.527,0.0,0.0,0.0,0.0,0.0,0.0,0.0,0.0,0.0,0.0,0.0,0.0,0.0,0.0,0.0,0.0,0.0,0.0,0.0,0.0,0.0,0.0,0.0,0.0,0.0,0.0,0.0,0.0,0.0,0.0,0.0,0.0,0.0,0.0,0.0,0.0,0.0,0.0,0.0,0.0,0.0,0.0,0.0,0.0,0.0,0.0,0.0,0.0,0.0,0.0,0.0,0.0,0.0,0.0,0.0,0.0,0.0,0.0,0.0,-2.2369,-2.3603,-2.6713,-2.8568,-2.8892,-2.6499,-2.4175,0.0,0.0,0.0,0.0,0.0,0.0,0.0,0.0,0.0,0.0,0.0,0.0,0.0,0.0,0.0,0.0,0.0,0.0,0.0,0.0,0.0,0.0,0.0,0.0,0.0,0.0,0.0,0.0,0.0,0.0,0.0,0.0,0.0,0.0,0.0,0.0,0.0,0.0,0.0,0.0,0.0,0.0,0.0,0.0,0.0,0.0,0.0,0.0,0.0,0.0,0.0,0.0,0.0,0.0,0.0,0.0,0.0,0.0,0.0,0.0,0.0,0.0,0.0,0.0,0.0,0.0,0.0,0.0,0.0,0.0,0.0,0.0,0.0,0.0,0.0,0.0,0.0,0.0,0.0,0.0,0.0,0.0,0.0,0.0,0.0,0.0,0.0,0.0,0.0,0.0,0.0,0.0,0.0,0.0,0.0,0.0,0.0,0.0,0.0,0.0,0.0,0.0,0.0,0.0,0.0,0.0,0.0,-2.0952,-2.299,-2.4872,-2.7541,-2.9181,-2.9626,-2.7862,-2.5833,-2.3573,0.0,0.0,0.0,0.0,0.0,0.0,0.0,0.0,0.0,0.0,0.0,0.0,0.0,0.0,0.0,0.0,0.0,0.0,0.0,0.0,0.0,0.0,0.0,0.0,0.0,0.0,0.0,0.0,0.0,0.0,0.0,0.0,0.0,0.0,0.0,0.0,0.0,0.0,-1.6089,-1.6912,0.0,0.0,0.0,0.0,0.0,0.0,0.0,0.0,-1.4041,0.0,0.0,0.0,0.0,0.0,0.0,0.0,0.0,0.0,0.0,0.0,0.0,0.0,0.0,0.0,0.0,0.0,0.0,0.0,0.0,0.0,0.0,0.0,0.0,0.0,0.0,0.0,0.0,0.0,0.0,0.0,0.0,0.0,0.0,0.0,0.0,0.0,0.0,0.0,0.0,0.0,0.0,0.0,0.0,0.0,0.0,0.0,0.0,0.0,0.0,0.0,0.0,0.0,0.0,0.0,0.0,-1.963,-2.173,-2.3471,-2.4802,-2.7011,-2.8236,-2.8281,-2.7417,-2.6229,-2.4743,0.0,0.0,0.0,0.0,0.0,0.0,0.0,0.0,0.0,0.0,0.0,0.0,0.0,0.0,0.0,0.0,0.0,0.0,0.0,0.0,0.0,0.0,0.0,0.0,0.0,0.0,0.0,0.0,0.0,0.0,0.0,0.0,0.0,0.0,0.0,0.0,0.0,0.0,0.0,-1.6779,-1.6995,0.0,0.0,0.0,0.0,0.0,0.0,0.0,0.0,-1.4157,0.0,0.0,0.0,0.0,0.0,0.0,0.0,0.0,0.0,0.0,0.0,0.0,0.0,0.0,0.0,0.0,0.0,0.0,0.0,0.0,0.0,0.0,0.0,0.0,0.0,0.0,0.0,0.0,0.0,0.0,0.0,0.0,0.0,0.0,0.0,0.0,0.0,0.0,0.0,0.0,0.0,0.0,0.0,0.0,0.0,0.0,0.0,0.0,0.0,0.0,0.0,0.0,0.0,0.0,0.0,-2.0455,-2.2113,-2.3635,-2.494,-2.672,-2.7786,-2.8073,-2.6679,-2.5667,0.0,0.0,0.0,0.0,0.0,0.0,0.0,0.0,0.0,0.0,0.0,0.0,0.0,0.0,0.0,0.0,0.0,0.0,0.0,0.0,0.0,0.0,0.0,0.0,0.0,0.0,0.0,0.0,0.0,0.0,0.0,0.0,0.0,0.0,0.0,0.0,0.0,0.0,0.0,0.0,-1.6686,-1.6914,-1.5879,0.0,0.0,0.0,0.0,0.0,0.0,-1.4949,-1.4844,0.0,0.0,0.0,0.0,0.0,0.0,0.0,0.0,0.0,0.0,0.0,0.0,0.0,0.0,0.0,0.0,0.0,0.0,0.0,0.0,0.0,0.0,0.0,0.0,0.0,0.0,0.0,0.0,0.0,0.0,0.0,0.0,0.0,0.0,0.0,0.0,0.0,0.0,0.0,0.0,0.0,0.0,0.0,0.0,0.0,0.0,0.0,0.0,0.0,0.0,0.0,0.0,0.0,0.0,0.0,-2.1147,-2.2549,-2.383,-2.4946,-2.6489,-2.746,-2.7759,-2.5869,-2.4845,0.0,0.0,0.0,0.0,0.0,0.0,0.0,0.0,0.0,0.0,0.0,0.0,0.0,0.0,0.0,0.0,0.0,0.0,0.0,0.0,0.0,0.0,0.0,0.0,0.0,0.0,0.0,0.0,0.0,0.0,0.0,0.0,0.0,0.0,0.0,0.0,0.0,0.0,0.0,0.0,0.0,-1.6942,-1.5852,-1.6497,0.0,0.0,0.0,0.0,-1.5332,-1.5788,0.0,0.0,0.0,0.0,0.0,0.0,0.0,0.0,0.0,0.0,0.0,0.0,0.0,0.0,0.0,0.0,0.0,0.0,0.0,0.0,0.0,0.0,0.0,0.0,0.0,0.0,0.0,0.0,0.0,0.0,0.0,0.0,0.0,0.0,0.0,0.0,0.0,0.0,0.0,0.0,0.0,0.0,0.0,0.0,0.0,0.0,0.0,0.0,0.0,0.0,0.0,0.0,0.0,0.0,0.0,0.0,-2.1871,-2.3451,-2.4392,-2.4569,-2.6329,-2.7033,-2.645,-2.4979,-2.423,0.0,0.0,0.0,0.0,0.0,0.0,0.0,0.0,0.0,0.0,0.0,0.0,0.0,0.0,0.0,0.0,0.0,0.0,0.0,0.0,0.0,0.0,0.0,0.0,0.0,0.0,0.0,0.0,0.0,0.0,0.0,0.0,0.0,0.0,0.0,0.0,0.0,0.0,0.0,0.0,0.0,-1.7044,-1.6747,-1.6891,-1.701,0.0,0.0,-1.7083,-1.738,-1.8148,0.0,0.0,0.0,0.0,0.0,0.0,0.0,0.0,0.0,0.0,0.0,0.0,0.0,0.0,0.0,0.0,0.0,0.0,0.0,0.0,0.0,0.0,0.0,0.0,0.0,0.0,0.0,0.0,0.0,0.0,0.0,0.0,0.0,0.0,0.0,0.0,0.0,0.0,0.0,0.0,0.0,0.0,0.0,0.0,0.0,0.0,0.0,0.0,0.0,0.0,0.0,0.0,0.0,0.0,0.0,-2.2707,-2.2467,-2.3747,-2.4409,-2.4446,-2.588,-2.6535,-2.6202,-2.3617,-2.2847,0.0,0.0,0.0,0.0,0.0,0.0,0.0,0.0,0.0,0.0,0.0,0.0,0.0,0.0,0.0,0.0,0.0,0.0,0.0,0.0,0.0,0.0,0.0,0.0,0.0,0.0,0.0,0.0,0.0,0.0,0.0,0.0,0.0,0.0,0.0,0.0,0.0,0.0,0.0,0.0,0.0,0.0,-1.7018,-1.7307,0.0,0.0,0.0,-1.8339,-1.815,0.0,0.0,0.0,0.0,0.0,0.0,0.0,0.0,0.0,0.0,0.0,0.0,0.0,0.0,0.0,0.0,0.0,0.0,0.0,0.0,0.0,0.0,0.0,0.0,0.0,0.0,0.0,0.0,0.0,0.0,0.0,0.0,0.0,0.0,0.0,0.0,0.0,0.0,0.0,0.0,0.0,0.0,0.0,0.0,0.0,0.0,0.0,0.0,0.0,0.0,0.0,0.0,0.0,0.0,0.0,0.0,0.0,-2.2898,-2.3961,-2.4488,-2.4446,-2.558,-2.6185,-2.6119,-2.3037,0.0,0.0,0.0,0.0,0.0,0.0,0.0,0.0,0.0,0.0,0.0,0.0,0.0,0.0,0.0,0.0,0.0,0.0,0.0,0.0,0.0,0.0,0.0,0.0,0.0,0.0,0.0,-1.5094,0.0,0.0,0.0,0.0,0.0,0.0,0.0,0.0,0.0,0.0,0.0,0.0,0.0,0.0,-1.7457,-1.7457,-1.7769,-1.8172,0.0,0.0,-1.9409,-1.9101,-2.0321,-2.0702,0.0,0.0,0.0,0.0,0.0,0.0,0.0,0.0,0.0,0.0,0.0,0.0,0.0,0.0,0.0,0.0,0.0,0.0,0.0,0.0,0.0,0.0,0.0,0.0,0.0,0.0,0.0,0.0,0.0,0.0,0.0,0.0,0.0,0.0,0.0,0.0,0.0,0.0,0.0,0.0,0.0,0.0,0.0,0.0,0.0,0.0,0.0,0.0,0.0,0.0,0.0,0.0,0.0,0.0,0.0,-2.313,-2.4254,-2.4726,-2.4446,-2.558,-2.6185,-2.6152,-2.4016,-2.3279,0.0,0.0,0.0,0.0,0.0,0.0,0.0,0.0,0.0,0.0,0.0,0.0,0.0,0.0,0.0,0.0,0.0,0.0,0.0,0.0,0.0,0.0,0.0,0.0,0.0,0.0,0.0,0.0,0.0,0.0,0.0,0.0,0.0,0.0,0.0,0.0,0.0,0.0,0.0,0.0,0.0,-1.8419,-1.8402,-1.8321,-1.8647,0.0,0.0,-2.0013,-2.0726,-2.2106,-2.2339,-2.006,0.0,0.0,0.0,0.0,0.0,0.0,0.0,0.0,0.0,0.0,0.0,0.0,0.0,0.0,0.0,0.0,0.0,0.0,0.0,0.0,0.0,0.0,0.0,0.0,0.0,0.0,0.0,0.0,0.0,0.0,0.0,0.0,0.0,0.0,0.0,0.0,0.0,0.0,0.0,0.0,0.0,0.0,0.0,0.0,0.0,0.0,0.0,0.0,0.0,0.0,0.0,0.0,0.0,-2.4075,-2.4033,-2.4514,-2.4701,-2.4635,-2.5681,-2.6241,-2.6259,-2.4099,-2.3149,0.0,0.0,0.0,0.0,0.0,0.0,0.0,0.0,0.0,0.0,0.0,0.0,0.0,0.0,0.0,0.0,0.0,0.0,0.0,0.0,0.0,0.0,0.0,0.0,0.0,0.0,0.0,0.0,-1.7206,-1.7471,-1.7084,0.0,0.0,0.0,0.0,0.0,0.0,0.0,0.0,0.0,0.0,-1.8909,-1.9991,-1.9957,0.0,0.0,-2.1059,-2.1299,-2.1144,-2.2001,-2.2051,-2.0272,-2.0348,0.0,0.0,0.0,0.0,0.0,0.0,0.0,0.0,0.0,0.0,0.0,0.0,0.0,0.0,0.0,0.0,0.0,0.0,0.0,0.0,0.0,0.0,0.0,0.0,0.0,0.0,0.0,0.0,0.0,0.0,0.0,0.0,0.0,0.0,0.0,0.0,0.0,0.0,0.0,0.0,0.0,0.0,0.0,0.0,0.0,0.0,0.0,0.0,0.0,0.0,0.0,0.0,-2.4656,-2.4919,-2.4875,-2.4912,-2.5028,-2.5899,-2.6365,-2.6314,-2.4597,-2.3697,0.0,0.0,0.0,0.0,0.0,0.0,0.0,0.0,0.0,0.0,0.0,0.0,0.0,0.0,0.0,0.0,0.0,0.0,0.0,0.0,0.0,0.0,0.0,0.0,0.0,0.0,0.0,0.0,-1.7528,-1.7749,-1.758,0.0,0.0,0.0,0.0,0.0,0.0,0.0,0.0,0.0,0.0,-1.9688,-2.0694,-2.0851,-2.103,-2.1454,-2.18,-2.1938,-2.1884,-2.2118,-2.1925,-2.0633,0.0,0.0,0.0,0.0,0.0,0.0,0.0,0.0,0.0,0.0,0.0,0.0,0.0,0.0,0.0,0.0,0.0,0.0,0.0,0.0,0.0,0.0,0.0,0.0,0.0,0.0,0.0,0.0,0.0,0.0,-2.5508,0.0,0.0,0.0,0.0,0.0,0.0,0.0,0.0,0.0,0.0,0.0,0.0,0.0,0.0,0.0,0.0,0.0,0.0,0.0,0.0,0.0,0.0,-2.5106,-2.5666,-2.5423,-2.5403,-2.579,-2.6252,-2.6502,-2.6485,-2.5749,-2.5396,-2.5542,0.0,0.0,0.0,0.0,0.0,0.0,0.0,0.0,0.0,0.0,0.0,0.0,0.0,0.0,0.0,0.0,0.0,0.0,0.0,0.0,0.0,0.0,0.0,0.0,0.0,0.0,-1.7484,-1.7536,-1.8005,0.0,0.0,0.0,0.0,0.0,0.0,0.0,0.0,0.0,0.0,-2.0251,-2.0839,-2.0149,-2.0673,-2.1383,-2.2127,-2.1651,-2.1698,-2.3071,-2.283,-2.2187,0.0,0.0,0.0,0.0,0.0,0.0,0.0,0.0,0.0,0.0,0.0,0.0,0.0,0.0,0.0,0.0,0.0,0.0,0.0,0.0,0.0,0.0,0.0,0.0,0.0,0.0,0.0,-2.9821,-2.971,0.0,0.0,0.0,0.0,0.0,0.0,0.0,0.0,0.0,0.0,0.0,-3.1032,-3.2056,0.0,0.0,0.0,0.0,0.0,0.0,0.0,0.0,0.0,0.0,0.0,0.0,-2.6614,-2.7312,-2.7098,-2.6891,-2.6816,-2.7381,-2.7335,-2.6571,-2.6302,-2.6202,-2.6319,0.0,0.0,0.0,0.0,0.0,0.0,0.0,0.0,0.0,0.0,0.0,0.0,0.0,0.0,0.0,0.0,0.0,0.0,0.0,0.0,0.0,0.0,0.0,0.0,0.0,-1.8588,0.0,0.0,0.0,0.0,0.0,0.0,0.0,0.0,0.0,0.0,0.0,-2.0262,-2.0497,-2.0068,-1.9793,-1.9968,-2.0234,-2.0673,0.0,0.0,0.0,0.0,0.0,0.0,0.0,0.0,0.0,0.0,0.0,0.0,0.0,0.0,-2.1204,-1.8937,-1.9104,-1.9554,-1.9358,0.0,0.0,0.0,0.0,0.0,0.0,0.0,0.0,0.0,0.0,0.0,0.0,0.0,0.0,-3.2842,0.0,-3.2422,0.0,0.0,0.0,0.0,0.0,0.0,0.0,0.0,-3.2432,-3.3387,-3.3838,-3.4576,-3.4951,0.0,-3.4846,-3.317,0.0,0.0,0.0,0.0,0.0,0.0,0.0,0.0,-2.7805,-2.8326,-2.8322,-2.8344,-2.843,-2.8603,-2.8236,-2.7267,-2.6792,-2.6623,-2.6691,-2.54,-2.4832,0.0,0.0,0.0,0.0,0.0,0.0,0.0,0.0,0.0,0.0,0.0,0.0,0.0,0.0,0.0,0.0,0.0,0.0,0.0,0.0,0.0,0.0,0.0,-1.9356,0.0,0.0,0.0,0.0,0.0,0.0,0.0,0.0,0.0,-2.0947,-2.0734,-2.073,-2.1159,-2.0378,-1.9815,-1.9959,0.0,0.0,0.0,0.0,0.0,0.0,0.0,-2.1544,-2.2024,-2.2459,-2.2706,-2.2586,-2.288,-2.3258,-2.3633,0.0,0.0,-2.0509,-2.0703,-2.1156,-2.0908,-2.1508,-2.2177,-2.2433,-2.2525,-2.2449,0.0,0.0,0.0,0.0,0.0,0.0,0.0,0.0,-3.5335,-3.5941,0.0,-3.4811,0.0,0.0,0.0,0.0,0.0,-3.3508,0.0,0.0,-3.6201,-3.6845,-3.5593,-3.6344,-3.6684,-3.6701,-3.7593,-3.7158,-3.5436,-3.2616,0.0,0.0,0.0,0.0,0.0,0.0,-2.869,-2.883,-2.9268,-2.9826,-3.0511,-2.9922,-2.9211,-2.8382,-2.7333,-2.6759,-2.6708,-2.6775,-2.6519,-2.5789,-2.5947,0.0,0.0,0.0,0.0,0.0,0.0,0.0,0.0,0.0,0.0,0.0,0.0,0.0,0.0,0.0,0.0,0.0,0.0,0.0,0.0,-2.0269,0.0,0.0,0.0,0.0,0.0,0.0,0.0,0.0,0.0,0.0,-2.0293,-2.0683,-2.114,-2.1116,0.0,0.0,0.0,0.0,-2.1992,-2.1343,-2.1837,-2.2533,-2.3308,-2.3507,-2.3502,-2.3454,0.0,0.0,-2.4707,-2.3559,-2.2973,-2.3682,-2.3787,-2.3388,-2.2788,-2.3144,-2.3397,-2.2716,-2.3178,-2.3462,-2.2802,-2.2777,-2.2491,-4.3253,0.0,0.0,0.0,0.0,-3.9458,-4.0323,-4.1255,-4.1649,-4.1148,-4.0014,-3.9303,0.0,0.0,0.0,0.0,0.0,0.0,-3.5283,-3.5609,-3.7578,-3.8525,-3.8648,-3.9987,-4.0346,-3.9792,-3.9641,-3.905,-3.8025,-3.6737,-3.5227,-3.349,0.0,0.0,0.0,0.0,-3.0862,-3.1888,-3.2134,-3.2215,-3.2199,-3.146,-3.0207,-2.8449,-2.8077,-2.7535,-2.6725,-2.6742,-2.669,-2.657,-2.7113,0.0,0.0,0.0,0.0,0.0,0.0,0.0,0.0,0.0,0.0,0.0,0.0,0.0,0.0,0.0,0.0,0.0,0.0,0.0,-2.1087,-2.102,-2.0671,0.0,0.0,0.0,0.0,0.0,0.0,0.0,0.0,0.0,-2.1674,-2.0531,-2.0174,0.0,0.0,-2.0011,-2.0841,-2.1291,-2.163,-2.1955,-2.2161,0.0,-2.4,-2.382,-2.3694,-2.4179,-2.4905,-2.5429,-2.5492,-2.548,-2.557,-2.5807,-2.5792,-2.5708,-2.5503,-2.4788,-2.4243,-2.4024,-2.4535,-2.4976,-2.4774,-2.4674,-2.4606,-4.9525,-4.5742,-4.2334,-4.146,-4.2423,-4.3061,-4.3853,-4.4748,-4.5233,-4.4877,-4.3885,-4.3319,-4.1675,-3.9257,-3.8249,0.0,0.0,0.0,-3.8294,-3.9329,-4.0276,-4.1096,-4.1803,-4.2769,-4.2825,-4.2098,-4.1794,-4.1262,-4.0544,-3.9298,-3.8117,-3.687,0.0,0.0,-3.2593,-3.252,-3.2737,-3.3301,-3.3997,-3.4099,-3.3568,-3.235,-3.0908,-2.9331,-2.8709,-2.8148,-2.7639,-2.73,-2.73,-2.7725,-2.8184,-2.8066,0.0,0.0,0.0,0.0,0.0,0.0,0.0,0.0,0.0,0.0,0.0,-2.1225,0.0,0.0,0.0,0.0,-2.2073,-2.2198,-2.1854,-2.1814,0.0,0.0,0.0,0.0,0.0,0.0,0.0,-2.2235,-2.2555,-2.2697,-2.2262,-2.1189,-2.0888,-2.2051,-2.1139,-2.0701,-2.1585,0.0,-2.2578,-2.2733,-2.2987,-2.346,-2.4338,-2.442,-2.4571,-2.5334,-2.5809,-2.6113,-2.6162,-2.647,-2.6691,-2.6708,-2.6708,-2.6708,-2.6708,-2.5947,-2.5371,-2.5388,-2.571,-2.593,-2.5676,-2.5828,-2.5964,-5.491,-5.3504,-4.7737,-4.5528,-4.5774,-4.6164,-4.6603,-4.7072,-4.7131,-4.7509,-4.8037,-4.676,-4.552,-4.4243,-4.1782,0.0,-4.1658,-4.1604,-4.2315,-4.3697,-4.3604,-4.3925,-4.4585,-4.4567,-4.4275,-4.3683,-4.3771,-4.3496,-4.2783,-4.0727,-4.0017,-4.0562,-3.7713,-3.5393,-3.3803,-3.4449,-3.4422,-3.3611,-3.5103,-3.5462,-3.4651,-3.284,-3.1494,-3.068,-2.9298,-2.8699,-2.896,-2.8298,-2.8247,-2.8959,-2.9115,-2.9169,-2.9067,0.0,0.0,0.0,0.0,0.0,0.0,0.0,0.0,0.0,0.0,0.0,0.0,0.0,0.0,0.0,-2.3688,0.0,-2.288,-2.2898,0.0,0.0,0.0,-2.4078,-2.4639,-2.4741,-2.4428,-2.3504,0.0,0.0,-2.2469,-2.2437,-2.2733,-2.3405,-2.2859,-2.2431,-2.2509,-2.3682,-2.4338,-2.3697,-2.4203,-2.4677,-2.4829,-2.5269,-2.5828,-2.6454,-2.6708,-2.6674,-2.6674,-2.6691,-2.6691,-2.6708,-2.6708,-2.6708,-2.6708,-2.6623,-2.6691,-2.6623,-2.6657,-2.6471,-2.5914,-2.6218,-2.6488,-5.738,-5.6496,-5.4161,-5.2112,-5.0435,-5.0879,-5.1117,-5.1275,-5.163,-5.0609,-4.8629,-4.8531,-4.7594,-4.5988,-4.5552,-4.5471,-4.5596,-4.4985,-4.4874,-4.5213,-4.4624,-4.4424,-4.4585,-4.4585,-4.4517,-4.4364,-4.3963,-4.3706,-4.3512,-4.2572,-4.1524,-4.0474,-3.9697,-3.825,-3.6166,-3.6159,-3.6145,-3.5981,-3.6376,-3.6061,-3.4983,-3.3986,-3.2821,-3.1473,-3.0559,-2.9746,-2.9028,-2.884,-2.8789,-2.901,-2.9551,-2.9622,-2.9135,-2.899,0.0,0.0,0.0,0.0,0.0,0.0,0.0,0.0,0.0,-2.4012,-2.3562,0.0,-2.4956,0.0,-2.4137,-2.4751,-2.5701,-2.5785,0.0,0.0,-2.5301,-2.5147,-2.4741,-2.5139,-2.516,-2.4386,-2.4745,-2.5,-2.4767,-2.4308,-2.4257,-2.4917,-2.3981,-2.3646,-2.4796,-2.5147,-2.5287,-2.5169,-2.5642,-2.6166,-2.6116,-2.6302,-2.6471,-2.6657,-2.6708,-2.6708,-2.6708,-2.6708,-2.6708,-2.6708,-2.6708,-2.6708,-2.6708,-2.6708,-2.6708,-2.6708,-2.6708,-2.6657,-2.6454,-2.6573,-2.681,-5.8442,-5.796,-5.6652,-5.5269,-5.3961,-5.3969,-5.3941,-5.3946,-5.4053,-5.3038,-5.1233,-5.085,-4.9818,-4.8395,-4.8503,-4.8199,-4.752,-4.7074,-4.6676,-4.6302,-4.5873,-4.5677,-4.5677,-4.5677,-4.5543,-4.5294,-4.465,-4.4178,-4.39,-4.3241,-4.2429,-4.1541,-4.1505,-4.0673,-3.8993,-3.7807,-3.725,-3.7284,-3.6976,-3.6672,-3.6445,-3.4858,-3.3525,-3.2527,-3.0682,-2.9661,-2.9612,-2.832,-2.8236,-2.9619,-2.9699,-2.9717,-2.9759,-2.9574,-2.8905,0.0,0.0,0.0,0.0,0.0,0.0,0.0,0.0,0.0,0.0,0.0,-2.6281,-2.5347,-2.578,-2.6298,-2.6807,-2.6858,-2.6824,-2.679,-2.6773,-2.6723,-2.6538,-2.6843,-2.6759,-2.5933,-2.6168,-2.6269,-2.595,-2.5597,-2.5545,-2.5983,-2.5405,-2.5095,-2.5635,-2.5927,-2.6082,-2.6116,-2.6437,-2.6708,-2.6708,-2.6708,-2.6708,-2.6708,-2.6708,-2.6708,-2.6708,-2.6708,-2.6708,-2.6708,-2.6708,-2.6708,-2.6708,-2.6708,-2.6708,-2.6708,-2.6708,-2.659,-2.6302,-2.6708,-2.7215,-5.8674,-5.8549,-5.7043,-5.6383,-5.6373,-5.585,-5.559,-5.5531,-5.5204,-5.4797,-5.4288,-5.296,-5.1809,-5.0816,-5.0602,-4.9763,-4.8502,-4.8395,-4.7913,-4.7181,-4.714,-4.711,-4.7025,-4.702,-4.6798,-4.6331,-4.5543,-4.4908,-4.4366,-4.348,-4.2991,-4.29,-4.2792,-4.2301,-4.1394,-3.9284,-3.8169,-3.8061,-3.7337,-3.7333,-3.8035,-3.5285,-3.3646,-3.3248,-3.0262,-2.911,-3.0133,-2.7674,-2.7518,-3.0177,-2.9659,-2.9676,-3.0679,-2.9902,-2.9197,0.0,-2.7991,0.0,0.0,0.0,0.0,0.0,0.0,0.0,0.0,-2.729,-2.7325,-2.7346,-2.7828,-2.7913,-2.7368,-2.7402,-2.7709,-2.8319,-2.8302,-2.8452,-2.8897,-2.8775,-2.8365,-2.7613,-2.7478,-2.7161,-2.6748,-2.6718,-2.6805,-2.6943,-2.6978,-2.6776,-2.6268,-2.6556,-2.6793,-2.6742,-2.6708,-2.6742,-2.686,-2.6776,-2.6708,-2.6708,-2.6708,-2.6708,-2.6708,-2.6708,-2.6708,-2.6708,-2.6708,-2.6708,-2.6708,-2.6708,-2.6708,-2.6708,-2.6708,-2.6556,-2.6251,-2.681,-2.73,-5.8674,-5.8549,-5.7043,-5.6383,-5.6401,-5.629,-5.6077,-5.5804,-5.5531,-5.5121,-5.4497,-5.3041,-5.2395,-5.2332,-5.1083,-5.0352,-5.0031,-4.9388,-4.8693,-4.7966,-4.7966,-4.7673,-4.7192,-4.7156,-4.7151,-4.705,-4.638,-4.5975,-4.5854,-4.4509,-4.3514,-4.2822,-4.2172,-4.1412,-4.0562,0.0,0.0,0.0,-3.813,-3.7701,-3.7452,-3.4393,-3.2494,-3.2033,-3.0125,0.0,-2.9399,-2.8852,-2.8818,-2.94,-2.9297,0.0,0.0,0.0,0.0,0.0,0.0,0.0,0.0,0.0,0.0,0.0,-2.8682,-2.8425,-2.803,-2.7946,-2.8135,-2.8662,-2.8813,-2.9048,-2.9487,-3.0027,-3.0434,-3.055,-3.0042,-2.9717,-2.9671,-2.8659,-2.7963,-2.8279,-2.7775,-2.7631,-2.8089,-2.826,-2.8317,-2.8413,-2.8552,-2.8502,-2.8316,-2.7858,-2.7385,-2.6843,-2.6742,-2.6928,-2.752,-2.7063,-2.6708,-2.6708,-2.6708,-2.6708,-2.6708,-2.6708,-2.6708,-2.6708,-2.6708,-2.6708,-2.6708,-2.6708,-2.6708,-2.6708,-2.6708,-2.6843,-2.7266,-2.7182,-2.7335,-5.8478,0.0,-5.6882,-5.6383,0.0,-5.6383,-5.63,-5.6116,-5.585,-5.5122,-5.4131,-5.3469,-5.2863,-5.2269,-5.1458,-5.0655,-4.9917,-4.9888,-4.9305,-4.8345,-4.8685,-4.8481,-4.7842,-4.7824,-4.7693,-4.7389,-4.6639,-4.6124,-4.5753,-4.4655,-4.3678,-4.2861,-4.2445,-4.201,-4.1612,-4.1575,-4.1159,-4.0328,-3.9193,-3.8707,-3.8779,-3.5954,-3.4005,-3.3227,-3.1478,0.0,0.0,0.0,0.0,0.0,0.0,0.0,0.0,-3.0577,0.0,-3.1039,-3.0401,-3.0054,-3.0231,-3.0337,-3.0474,-3.0719,-3.1055,-3.0668,-2.9295,-2.9462,-2.9763,-3.0099,-3.0149,-3.0283,-3.0615,-3.0987,-3.1171,-3.1078,-3.0754,-3.0479,-3.0258,-2.9649,-2.9123,-2.8935,-2.8614,-2.8472,-2.8586,-2.8659,-2.8753,-2.8866,-2.8956,-2.901,-2.8976,-2.8671,-2.8112,-2.7368,-2.6894,-2.6826,-2.7148,-2.6996,-2.6708,-2.6708,-2.6708,-2.6708,-2.6708,-2.6708,-2.6708,-2.6708,-2.6708,-2.6708,-2.6708,-2.6708,-2.6708,-2.6708,-2.6708,-2.6945,-2.7638,-2.7606,-2.7675,-5.8274,-5.7525,-5.674,-5.6383,-5.6383,-5.6383,-5.6383,-5.6373,0.0,0.0,0.0,-5.4189,-5.3413,-5.2101,-5.1815,-5.0905,-4.9578,-5.0216,-4.9841,-4.8652,-4.9369,-4.9295,-4.8547,-4.8547,-4.8199,-4.7515,-4.6865,-4.6256,-4.5707,-4.491,-4.4114,-4.339,-4.3172,-4.3008,-4.2787,-4.2863,-4.2499,-4.168,-4.0185,-3.9698,-4.0185,-3.7613,-3.5669,-3.4606,-3.286,-3.1509,-3.0593,-2.9363,-2.9332,-3.0642,-3.03,-3.0439,-3.1181,-3.1183,-3.1163,-3.1163,-3.0948,-3.1025,-3.1441,-3.1611,-3.1913,-3.2462,-3.3051,-3.2618,-3.0713,-3.108,-3.1326,-3.1207,-3.119,-3.119,-3.119,-3.119,-3.1171,-3.1055,-3.1015,-3.0935,-3.0753,-3.0579,-3.0152,-2.9702,-2.943,-2.9307,-2.9046,-2.9092,-2.912,-2.9231,-2.9445,-2.9382,-2.9348,-2.9162,-2.8772,-2.8349,-2.7604,-2.6945,-2.6894,-2.6759,-2.6708,-2.6708,-2.6708,-2.6708,-2.6708,-2.6708,-2.6708,-2.6708,-2.6708,-2.6708,-2.6708,-2.6708,-2.6708,-2.6708,-2.6708,-2.6911,-2.7487,-2.7759,-2.7896,-5.8274,-5.7553,-5.6722,-5.6383,-5.6383,-5.6383,-5.6383,-5.6401,-5.6346,-5.6203,-5.5971,-5.5303,-5.4545,-5.3609,-5.2279,-5.1191,-5.0352,-5.0563,-5.0187,-4.9405,-5.0288,-4.9991,-4.8694,-4.868,-4.8327,-4.7675,-4.7548,-4.7461,-4.7283,-4.654,-4.5761,-4.4928,-4.4277,-4.3359,-4.2412,-4.271,-4.2638,-4.2101,-4.0866,-3.9969,-3.9355,-3.6805,-3.4887,-3.3723,-3.2686,-3.1824,-3.1276,-3.1052,-3.1054,-3.1278,-3.1213,-3.1927,-3.3536,-3.273,-3.2872,-3.4292,-3.354,-3.2733,-3.2212,-3.275,-3.3136,-3.3237,-3.3355,-3.2983,-3.209,-3.2073,-3.1904,-3.1292,-3.1207,-3.119,-3.119,-3.119,-3.119,-3.1151,-3.1055,-3.0972,-3.0855,-3.0256,-2.9969,-3.0245,-2.9777,-2.9779,-3.0312,-3.0473,-3.0519,-3.0777,-3.063,-3.0818,-3.0581,-2.9805,-2.9313,-2.9465,-2.8551,-2.7756,-2.7452,-2.708,-2.6759,-2.6708,-2.6708,-2.6708,-2.6708,-2.6708,-2.6708,-2.6708,-2.6708,-2.6708,-2.6708,-2.6708,-2.6708,-2.6708,-2.6775,-2.6927,-2.7164,-2.7229,-2.7465,-5.8024,-5.6954,-5.6543,-5.6383,-5.6383,-5.6383,-5.6383,-5.6383,-5.6383,-5.6151,-5.574,-5.5348,-5.4545,-5.3385,-5.2654,-5.1705,-5.0634,-5.1112,-5.1018,-5.0476,-5.1279,-5.088,-4.9549,-4.948,-4.8829,-4.7772,-4.7699,-4.7482,-4.7065,-4.6685,-4.587,-4.4675,-4.3842,-4.3033,-4.2295,-4.2653,-4.2673,-4.22,-4.1479,-4.0926,-4.0528,-3.8562,-3.6845,-3.5447,-3.493,-3.3977,-3.255,-3.287,-3.2904,-3.2496,-3.2698,-3.3102,-3.3693,-3.3456,-3.3727,-3.4711,-3.4296,-3.3846,-3.3529,-3.3812,-3.3998,-3.4015,-3.437,-3.4264,-3.3546,-3.275,-3.2158,-3.1819,-3.1444,-3.119,-3.119,-3.119,-3.1171,-3.1112,-3.1015,-3.0935,-3.0797,-3.0486,-3.0268,-3.0448,-3.0208,-3.0227,-3.0821,-3.0912,-3.0972,-3.1151,-3.119,-3.119,-3.119,-3.0649,-2.9973,-2.9516,-2.8535,-2.7705,-2.7283,-2.6962,-2.6725,-2.6708,-2.6708,-2.6708,-2.6708,-2.6708,-2.6708,-2.6708,-2.6708,-2.6708,-2.6708,-2.6708,-2.6708,-2.6708,-2.6826,-2.6909,-2.6959,-2.7023,-2.7377,-5.7667,-5.6401,-5.6383,-5.6383,-5.6383,-5.6383,-5.6383,-5.6383,-5.6383,-5.6062,-5.5526,-5.5473,-5.4616,-5.3207,-5.3135,-5.2337,-5.119,-5.1645,-5.1736,-5.1463,-5.2046,-5.1646,-5.047,-5.0383,-4.9528,-4.8134,-4.7971,-4.7572,-4.6866,-4.6776,-4.6069,-4.4657,-4.3661,-4.2943,-4.2486,-4.2743,-4.2673,-4.2241,-4.2059,-4.1886,-4.1669,-4.0528,-3.9067,-3.7408,-3.7202,-3.6154,-3.4096,-3.4607,-3.4742,-3.4218,-3.4448,-3.4558,-3.4409,-3.4362,-3.4554,-3.4939,-3.4844,-3.4742,-3.4726,-3.4573,-3.4573,-3.4742,-3.5261,-3.5363,-3.4726,-3.3541,-3.2716,-3.253,-3.2053,-3.1681,-3.1512,-3.1461,-3.1357,-3.1106,-3.1015,-3.0935,-3.079,-3.0712,-3.0651,-3.051,-3.0526,-3.063,-3.0851,-3.0912,-3.0995,-3.1151,-3.119,-3.119,-3.119,-3.119,-3.0651,-2.9567,-2.8586,-2.7774,-2.6928,-2.6708,-2.6708,-2.6708,-2.6708,-2.6708,-2.6708,-2.6708,-2.6708,-2.6708,-2.6708,-2.6708,-2.6708,-2.6742,-2.6742,-2.6758,-2.6859,-2.6958,-2.7024,-2.7277,-2.7667,-5.7186,-5.6454,-5.6383,-5.6383,-5.6383,-5.6383,-5.6383,-5.6383,-5.6383,-5.6365,-5.624,-5.6294,-5.5384,-5.4019,-5.392,-5.3141,-5.1853,-5.1993,-5.212,-5.2185,-5.2392,-5.2027,-5.1176,-5.118,-5.0343,-4.8949,-4.8746,-4.8333,-4.7627,-4.7536,-4.712,-4.6178,-4.4747,-4.3754,-4.3322,-4.3051,-4.2691,-4.2218,-4.26,-4.2448,-4.1741,-4.156,-4.0359,-3.8086,-3.8011,-3.7162,-3.5514,-3.6146,-3.6558,-3.6508,-3.6463,-3.6801,-3.7212,-3.6186,-3.5785,-3.6457,-3.5893,-3.5498,-3.543,-3.4878,-3.4793,-3.5397,-3.5532,-3.5566,-3.543,-3.4742,-3.3981,-3.3474,-3.3254,-3.2831,-3.2293,-3.2175,-3.1867,-3.1303,-3.1089,-3.0955,-3.0871,-3.0773,-3.0651,-3.0526,-3.0609,-3.0749,-3.0892,-3.0955,-3.1035,-3.1171,-3.119,-3.119,-3.119,-3.119,-3.092,-3.0091,-2.9364,-2.8298,-2.7165,-2.6708,-2.6708,-2.6708,-2.6674,-2.6657,-2.664,-2.6657,-2.6708,-2.6691,-2.6708,-2.6708,-2.6725,-2.6792,-2.6859,-2.6859,-2.6957,-2.7104,-2.7287,-2.7732,-2.8387,-5.7114,-5.6401,-5.6383,-5.6383,-5.6383,-5.6383,-5.6383,-5.6383,-5.6383,-5.6383,-5.6383,-5.6383,-5.5758,-5.4723,-5.4803,-5.4048,-5.2783,-5.2876,-5.2744,-5.2441,-5.2457,-5.2063,-5.1357,-5.1307,-5.0669,-4.9619,-4.913,-4.8749,-4.8294,-4.7464,-4.683,-4.6432,-4.5345,-4.4487,-4.386,-4.3674,-4.3294,-4.2634,-4.2806,-4.2737,-4.2393,-4.194,-4.0987,-3.9608,-3.9009,-3.82,-3.7142,-3.7297,-3.7449,-3.7449,-3.7449,-3.7584,-3.7872,-3.6891,-3.6474,-3.6728,-3.6045,-3.5616,-3.5583,-3.5295,-3.5284,-3.5583,-3.5616,-3.5616,-3.56,-3.5295,-3.5013,-3.467,-3.3909,-3.3254,-3.2966,-3.2482,-3.2039,-3.1716,-3.1264,-3.0929,-3.081,-3.0733,-3.0671,-3.063,-3.0651,-3.0773,-3.0935,-3.1052,-3.1131,-3.119,-3.119,-3.119,-3.119,-3.119,-3.0869,-3.0277,-2.982,-2.9025,-2.7672,-2.6945,-2.6776,-2.664,-2.6319,-2.6116,-2.6573,-2.6268,-2.6167,-2.6607,-2.6691,-2.6708,-2.6708,-2.6742,-2.6792,-2.6892,-2.6958,-2.7071,-2.7185,-2.7803,-2.8543,-5.6936,-5.6436,-5.6383,-5.6383,-5.6383,-5.6383,-5.6383,-5.6383,-5.6383,-5.6383,-5.6383,-5.6383,-5.6107,-5.5625,-5.5472,-5.4768,-5.3752,-5.3568,-5.3249,-5.2824,-5.2607,-5.219,-5.1665,-5.1611,-5.1194,-5.0434,-4.9872,-4.9325,-4.8837,-4.7808,-4.7047,-4.6757,-4.6033,-4.5345,-4.4765,-4.4385,-4.3806,-4.3262,-4.3046,-4.2844,-4.2639,-4.2133,-4.137,-4.0447,-3.9725,-3.8901,-3.7953,-3.8108,-3.821,-3.821,-3.8193,-3.8294,-3.8447,-3.7455,-3.6694,-3.6451,-3.596,-3.5616,-3.5616,-3.5616,-3.5616,-3.5616,-3.5616,-3.5616,-3.5616,-3.5616,-3.5616,-3.5481,-3.4597,-3.3951,-3.3579,-3.3056,-3.2639,-3.2366,-3.1783,-3.1383,-3.1079,-3.0991,-3.0925,-3.0742,-3.0733,-3.0851,-3.0995,-3.1151,-3.119,-3.119,-3.119,-3.119,-3.119,-3.1173,-3.0987,-3.048,-3.026,-2.9448,-2.8111,-2.7418,-2.6996,-2.664,-2.6268,-2.6218,-2.659,-2.6167,-2.5964,-2.6674,-2.6691,-2.6708,-2.6725,-2.6725,-2.6841,-2.7023,-2.7105,-2.7166,-2.7444,-2.8085,-2.8799,-5.6418,-5.6401,-5.6383,-5.6383,-5.6383,-5.6383,-5.6383,-5.6383,-5.6383,-5.6383,-5.6383,-5.641,-5.6447,-5.6438,-5.5802,-5.5143,-5.4578,-5.3941,-5.3634,-5.3512,-5.2915,-5.2516,-5.2462,-5.2444,-5.2027,-5.1375,-5.1067,-5.0307,-4.9018,-4.8818,-4.8402,-4.7627,-4.6902,-4.645,-4.6069,-4.4838,-4.4115,-4.3896,-4.3263,-4.2692,-4.23,-4.2203,-4.1567,-4.0498,-3.9941,-3.9169,-3.8214,-3.8599,-3.8954,-3.8954,-3.8937,-3.9266,-3.9706,-3.798,-3.6518,-3.5802,-3.5633,-3.5616,-3.5616,-3.5616,-3.5616,-3.5616,-3.5616,-3.5616,-3.5616,-3.5616,-3.5616,-3.56,-3.5391,-3.4976,-3.4381,-3.4024,-3.365,-3.3043,-3.2909,-3.246,-3.1807,-3.1736,-3.1408,-3.0979,-3.0944,-3.1036,-3.1185,-3.119,-3.119,-3.119,-3.119,-3.119,-3.119,-3.119,-3.1123,-3.0987,-3.0497,-2.96,-2.8213,-2.7655,-2.7334,-2.686,-2.6522,-2.6623,-2.6657,-2.6674,-2.6657,-2.6691,-2.6708,-2.6725,-2.6725,-2.6841,-2.7019,-2.7164,-2.7261,-2.74,-2.7695,-2.8731,-2.9397,-5.6383,-5.6383,-5.6383,-5.6383,-5.6383,-5.6383,-5.6383,-5.6383,-5.6383,-5.6383,-5.6428,-5.6492,-5.66,-5.6742,-5.6533,-5.606,-5.5397,-5.5171,-5.4587,-5.3838,-5.3911,-5.3766,-5.3295,-5.3259,-5.315,-5.2752,-5.1774,-5.0741,-4.98,-4.9655,-4.9257,-4.8547,-4.8206,-4.7572,-4.6504,-4.5417,-4.4621,-4.4077,-4.3299,-4.2673,-4.2216,-4.1927,-4.1402,-4.0706,-4.0481,-4.0065,-3.9317,-3.9588,-3.9706,-3.9723,-3.9706,-3.9825,-3.991,-3.8447,-3.6941,-3.5769,-3.5616,-3.5616,-3.5616,-3.5616,-3.5616,-3.5616,-3.5616,-3.5633,-3.5616,-3.5616,-3.5616,-3.5594,-3.5543,-3.5284,-3.4964,-3.4493,-3.4063,-3.3679,-3.3223,-3.2845,-3.2491,-3.2381,-3.2287,-3.2091,-3.1888,-3.1567,-3.1303,-3.119,-3.119,-3.119,-3.119,-3.1173,-3.119,-3.119,-3.119,-3.1173,-3.0954,-3.0446,-2.9516,-2.8331,-2.7553,-2.686,-2.6488,-2.6776,-2.6894,-2.6404,-2.6234,-2.6945,-2.6962,-2.6708,-2.6725,-2.6859,-2.7035,-2.683,-2.6961,-2.7507,-2.7911,-2.8646,-2.9265,-5.6383,-5.6383,-5.6383,-5.6383,-5.6383,-5.6383,-5.6383,-5.6383,-5.6383,-5.6383,-5.6428,-5.6546,-5.668,-5.6794,-5.6951,-5.6757,-5.6248,-5.6095,-5.5414,-5.4508,-5.478,-5.4617,-5.4182,-5.4092,-5.3947,-5.3548,-5.2353,-5.1249,-5.0583,-5.047,-4.9927,-4.8945,-4.8891,-4.8239,-4.6975,-4.6087,-4.5291,-4.4476,-4.3697,-4.2902,-4.2068,-4.1656,-4.119,-4.0683,-4.058,-4.0434,-4.0096,-4.0113,-4.0113,-4.0113,-4.0113,-3.9994,-3.9673,-3.8802,-3.7584,-3.6231,-3.5994,-3.5994,-3.596,-3.5752,-3.5819,-3.6276,-3.6129,-3.6062,-3.6299,-3.6124,-3.5988,-3.5909,-3.5582,-3.5383,-3.5184,-3.4777,-3.4447,-3.4312,-3.3866,-3.3428,-3.3145,-3.3089,-3.2901,-3.2534,-3.2257,-3.1968,-3.1593,-3.1106,-3.1123,-3.1427,-3.1207,-3.0903,-3.1123,-3.119,-3.119,-3.119,-3.1173,-3.0784,-3.0006,-2.8956,-2.8398,-2.7757,-2.6877,-2.7046,-2.7012,-2.6387,-2.6269,-2.7012,-2.7165,-2.6843,-2.6758,-2.6875,-2.6748,-2.6521,-2.6857,-2.7415,-2.784,-2.8285,-2.8887,-5.6383,-5.6383,-5.6383,-5.6383,-5.6383,-5.6383,-5.6383,-5.6383,-5.6383,-5.6383,-5.6455,-5.6546,-5.6689,-5.6821,-5.6977,-5.7043,-5.6946,-5.641,-5.5993,-5.574,-5.5323,-5.5033,-5.4907,-5.4907,-5.4436,-5.3693,-5.2842,-5.2045,-5.1339,-5.1249,-5.056,-4.9253,-4.9054,-4.8619,-4.7678,-4.683,-4.6051,-4.5291,-4.44,-4.3209,-4.1758,-4.1494,-4.1024,-4.0254,-4.0146,-4.0146,-4.0113,-4.0113,-4.0113,-4.0113,-4.0113,-3.9757,-3.9191,-3.8937,-3.8294,-3.7043,-3.6778,-3.6778,-3.6728,-3.6129,-3.6366,-3.7256,-3.7161,-3.7066,-3.7415,-3.7043,-3.6631,-3.6397,-3.5809,-3.5268,-3.5135,-3.5045,-3.5012,-3.5055,-3.4785,-3.4486,-3.4139,-3.3904,-3.3372,-3.2495,-3.2298,-3.2307,-3.2005,-3.1275,-3.1038,-3.1684,-3.1258,-3.0666,-3.1106,-3.119,-3.119,-3.119,-3.1173,-3.0937,-3.0243,-2.955,-2.9245,-2.884,-2.7875,-2.7418,-2.735,-2.6945,-2.6674,-2.7165,-2.7029,-2.6725,-2.6437,-2.657,-2.6851,-2.6785,-2.7141,-2.7365,-2.7805,-2.822,-2.8515,-5.6383,-5.6383,-5.6383,-5.6383,-5.6383,-5.6383,-5.6383,-5.6383,-5.6383,-5.6455,-5.6546,-5.668,-5.6839,-5.6933,-5.7079,-5.7156,-5.717,-5.6899,-5.6518,-5.612,-5.6301,-5.6156,-5.5721,-5.5649,-5.4979,-5.3748,-5.2878,-5.2389,-5.219,-5.21,-5.1556,-5.0651,-4.9981,-4.9329,-4.8478,-4.721,-4.6323,-4.5974,-4.4446,-4.317,-4.2321,-4.1446,-4.0707,-4.0196,-4.0113,-4.0113,-4.0113,-4.0113,-4.0113,-4.0113,-4.0113,-3.9774,-3.9157,-3.8988,-3.8531,-3.7669,-3.7066,-3.7083,-3.7398,-3.6891,-3.684,-3.7652,-3.7686,-3.7652,-3.7787,-3.7286,-3.6834,-3.6599,-3.5906,-3.5337,-3.5135,-3.5088,-3.5088,-3.497,-3.5105,-3.5197,-3.5105,-3.5099,-3.4479,-3.3351,-3.2925,-3.2643,-3.2255,-3.159,-3.1664,-3.2107,-3.1802,-3.1512,-3.1241,-3.119,-3.119,-3.119,-3.1157,-3.114,-3.0649,-3.0209,-2.9888,-2.9314,-2.8416,-2.7875,-2.7757,-2.7452,-2.7215,-2.7046,-2.6894,-2.6657,-2.6352,-2.6401,-2.67,-2.6873,-2.7013,-2.7345,-2.7779,-2.8047,-2.8237,-5.6383,-5.6383,-5.6383,-5.6383,-5.6383,-5.6383,-5.6383,-5.6383,-5.6383,-5.6482,-5.66,-5.676,-5.6873,-5.6984,-5.7138,-5.7188,-5.7188,-5.7188,-5.6917,-5.6554,-5.6917,-5.6899,-5.6391,-5.6102,-5.5558,-5.4526,-5.3458,-5.2951,-5.2933,-5.2607,-5.2082,-5.1307,-5.08,-4.9963,-4.8924,-4.7746,-4.6884,-4.61,-4.4724,-4.3464,-4.2451,-4.1631,-4.0854,-4.0222,-4.0113,-4.0113,-4.0113,-4.0113,-4.0113,-4.0113,-4.0113,-3.9859,-3.9445,-3.9402,-3.9073,-3.8396,-3.7939,-3.7855,-3.8193,-3.7635,-3.7669,-3.843,-3.8464,-3.8464,-3.8497,-3.8048,-3.757,-3.7357,-3.6454,-3.5756,-3.5559,-3.5368,-3.5251,-3.5171,-3.5327,-3.556,-3.5803,-3.5955,-3.5292,-3.4138,-3.3451,-3.2983,-3.2513,-3.1888,-3.1996,-3.2114,-3.2036,-3.1836,-3.1326,-3.119,-3.119,-3.119,-3.1173,-3.1173,-3.1157,-3.0852,-3.0531,-2.9719,-2.8805,-2.8484,-2.8298,-2.7757,-2.7367,-2.7317,-2.7182,-2.6776,-2.6488,-2.6572,-2.679,-2.6845,-2.6882,-2.7149,-2.7463,-2.7554,-2.7772,-5.641,-5.6428,-5.6383,-5.6383,-5.6383,-5.6383,-5.6383,-5.6383,-5.6383,-5.6492,-5.6609,-5.676,-5.6873,-5.7028,-5.7156,-5.7188,-5.7188,-5.7188,-5.717,-5.7073,-5.7112,-5.6989,-5.6819,-5.6269,-5.5835,-5.5496,-5.4243,-5.3675,-5.3512,-5.2842,-5.2118,-5.1484,-5.1249,-5.0597,-4.9332,-4.8447,-4.7329,-4.6212,-4.5229,-4.3847,-4.2265,-4.1815,-4.1327,-4.0273,-4.0146,-4.0113,-4.0113,-4.0171,-4.0171,-4.0096,-4.0146,-4.0187,-4.0137,-4.0146,-3.9789,-3.9251,-3.9103,-3.9035,-3.8926,-3.8482,-3.857,-3.9639,-3.9459,-3.9334,-3.969,-3.9148,-3.8567,-3.831,-3.7237,-3.6403,-3.6219,-3.6104,-3.5904,-3.579,-3.5883,-3.5989,-3.6211,-3.6378,-3.5706,-3.4523,-3.3879,-3.3456,-3.2733,-3.1907,-3.1842,-3.1992,-3.1885,-3.1647,-3.132,-3.1271,-3.121,-3.119,-3.1171,-3.1171,-3.1154,-3.1038,-3.0683,-3.0057,-2.9279,-2.9042,-2.8671,-2.8061,-2.7604,-2.7519,-2.7266,-2.6877,-2.6691,-2.6725,-2.6742,-2.6756,-2.6855,-2.6941,-2.7106,-2.7282,-2.7726,-5.6546,-5.6519,-5.6455,-5.6383,-5.6383,-5.6383,-5.6383,-5.6383,-5.6383,-5.6564,-5.6715,-5.6794,-5.6925,-5.713,-5.7163,-5.7188,-5.7188,-5.7188,-5.7188,-5.7112,-5.6732,-5.6573,-5.6473,-5.6172,-5.5794,-5.5297,-5.4411,-5.3711,-5.3639,-5.2909,-5.2366,-5.2154,-5.157,-5.1117,-5.0511,-4.8926,-4.7984,-4.718,-4.5303,-4.4196,-4.3467,-4.2074,-4.1274,-4.0942,-4.04,-4.013,-4.0146,-4.0451,-4.0434,-4.0163,-4.0434,-4.0628,-4.0604,-4.0604,-4.0634,-4.0608,-4.0008,-3.9787,-4.0062,-3.9633,-3.957,-4.0018,-4.0236,-4.027,-4.0053,-3.9436,-3.8736,-3.8166,-3.7521,-3.7253,-3.7046,-3.7223,-3.7445,-3.7509,-3.7062,-3.6774,-3.686,-3.6882,-3.6299,-3.4839,-3.4276,-3.3742,-3.312,-3.2841,-3.2667,-3.2789,-3.2571,-3.2109,-3.1656,-3.1252,-3.1131,-3.1151,-3.1151,-3.1151,-3.1137,-3.1055,-3.0768,-3.0277,-2.9803,-2.9567,-2.9025,-2.8315,-2.7959,-2.7739,-2.7165,-2.6725,-2.6691,-2.6725,-2.6708,-2.6708,-2.6978,-2.7162,-2.7125,-2.7255,-2.7922,-5.6877,-5.6519,-5.641,-5.6383,-5.6383,-5.6383,-5.6383,-5.6428,-5.6482,-5.66,-5.6768,-5.6873,-5.7003,-5.7206,-5.7188,-5.7188,-5.7188,-5.7188,-5.7061,-5.6758,-5.6492,-5.6357,-5.6268,-5.6149,-5.6057,-5.5931,-5.5085,-5.4538,-5.408,-5.3159,-5.2636,-5.2351,-5.1782,-5.1292,-5.0736,-4.9257,-4.7939,-4.7159,-4.539,-4.4255,-4.3757,-4.2438,-4.1594,-4.117,-4.0519,-4.0171,-4.041,-4.0832,-4.0885,-4.0666,-4.0855,-4.1024,-4.0908,-4.1042,-4.1213,-4.1464,-4.0834,-4.0676,-4.092,-4.0676,-4.0562,-4.0681,-4.0995,-4.0949,-4.0733,-4.0236,-3.9725,-3.9211,-3.8897,-3.8545,-3.822,-3.8264,-3.8391,-3.8468,-3.8157,-3.7711,-3.7428,-3.73,-3.6732,-3.5736,-3.5039,-3.4394,-3.3472,-3.3558,-3.3331,-3.2998,-3.2792,-3.23,-3.1828,-3.14,-3.1165,-3.1275,-3.1221,-3.1205,-3.1221,-3.1173,-3.0987,-3.0497,-3.0243,-3.004,-2.9448,-2.8738,-2.8416,-2.8027,-2.7249,-2.6708,-2.6708,-2.6708,-2.6708,-2.6826,-2.713,-2.7418,-2.7467,-2.7738,-2.836,-5.728,-5.6428,-5.6383,-5.6383,-5.6383,-5.6383,-5.6383,-5.641,-5.6519,-5.6653,-5.6812,-5.6925,-5.7036,-5.7188,-5.7188,-5.7188,-5.7188,-5.7188,-5.6714,-5.6402,-5.6211,-5.6257,-5.6128,-5.6385,-5.6562,-5.6662,-5.628,-5.5613,-5.4731,-5.3548,-5.2752,-5.2444,-5.1932,-5.1201,-5.0443,-4.918,-4.7867,-4.6765,-4.5381,-4.4336,-4.3732,-4.2871,-4.2219,-4.1677,-4.09,-4.0629,-4.0907,-4.1298,-4.1415,-4.1145,-4.1415,-4.1415,-4.1253,-4.1437,-4.1613,-4.1678,-4.1625,-4.1499,-4.1552,-4.1516,-4.1512,-4.1499,-4.1521,-4.1565,-4.1459,-4.1283,-4.0964,-4.036,-4.0453,-4.0113,-3.9864,-3.9258,-3.919,-3.9388,-3.921,-3.8545,-3.7989,-3.7738,-3.7417,-3.6577,-3.6094,-3.5223,-3.4374,-3.3914,-3.3858,-3.3387,-3.3055,-3.2546,-3.2088,-3.1653,-3.1564,-3.1672,-3.1509,-3.1238,-3.1275,-3.1292,-3.1072,-3.0784,-3.0615,-3.0378,-2.9922,-2.9347,-2.8993,-2.8434,-2.7351,-2.681,-2.6708,-2.6708,-2.6708,-2.6962,-2.7317,-2.7742,-2.8117,-2.8578,-2.9141,-5.7397,-5.6546,-5.6455,-5.6383,-5.6383,-5.6383,-5.6383,-5.6383,-5.6437,-5.66,-5.6768,-5.6821,-5.6977,-5.7188,-5.7188,-5.7188,-5.7188,-5.7112,-5.6599,-5.5652,-5.6101,-5.5961,-5.5932,-5.6429,-5.6758,-5.6534,-5.618,-5.5896,-5.5302,-5.3867,-5.2794,-5.2612,-5.1889,-5.1266,-5.048,-4.9117,-4.8146,-4.7158,-4.5567,-4.4547,-4.4198,-4.3504,-4.2997,-4.2695,-4.1929,-4.1484,-4.1448,-4.1803,-4.1994,-4.199,-4.199,-4.2011,-4.1909,-4.1973,-4.2198,-4.236,-4.2198,-4.2053,-4.2053,-4.2053,-4.2011,-4.1927,-4.199,-4.2011,-4.1864,-4.1674,-4.1244,-4.0775,-4.0911,-4.1278,-4.1382,-4.1193,-4.0867,-4.0617,-3.9878,-3.9068,-3.8798,-3.8635,-3.7936,-3.7022,-3.6575,-3.6146,-3.5181,-3.468,-3.4363,-3.3858,-3.3372,-3.285,-3.2441,-3.2052,-3.2176,-3.2419,-3.1866,-3.163,-3.1596,-3.1515,-3.1106,-3.0954,-3.0852,-3.0378,-2.9939,-2.9685,-2.9228,-2.8366,-2.7283,-2.6928,-2.6725,-2.6708,-2.6725,-2.7114,-2.7589,-2.8135,-2.8699,-2.9248,-2.9868,-5.7684,-5.6527,-5.6428,-5.6383,-5.6383,-5.6383,-5.6383,-5.6428,-5.6465,-5.6573,-5.6715,-5.6821,-5.6959,-5.7087,-5.7163,-5.7188,-5.7112,-5.6889,-5.6429,-5.5887,-5.5932,-5.5865,-5.5876,-5.6128,-5.6266,-5.624,-5.6205,-5.5863,-5.4964,-5.4073,-5.3104,-5.2369,-5.166,-5.0947,-5.0185,-4.8843,-4.7813,-4.697,-4.5541,-4.4598,-4.4451,-4.3842,-4.3338,-4.3251,-4.2737,-4.2397,-4.2457,-4.2604,-4.2657,-4.2566,-4.2536,-4.2418,-4.2279,-4.2418,-4.2653,-4.2787,-4.271,-4.2536,-4.2536,-4.2536,-4.2498,-4.2416,-4.2496,-4.2458,-4.2418,-4.2239,-4.1914,-4.1547,-4.1769,-4.2282,-4.2462,-4.1932,-4.1722,-4.1413,-4.0528,-3.9644,-3.9193,-3.8726,-3.8205,-3.745,-3.7271,-3.684,-3.6226,-3.5643,-3.4993,-3.4523,-3.4521,-3.4014,-3.3593,-3.3266,-3.3287,-3.3218,-3.2471,-3.2091,-3.2015,-3.1735,-3.114,-3.1021,-3.097,-3.0294,-2.9583,-2.9465,-2.9347,-2.8416,-2.7503,-2.6911,-2.6708,-2.6708,-2.7063,-2.7573,-2.8118,-2.8665,-2.9385,-3.0212,-3.073,-5.7968,-5.6401,-5.6383,-5.6383,-5.6383,-5.6383,-5.6383,-5.641,-5.6519,-5.6573,-5.6653,-5.6847,-5.6899,-5.6984,-5.7105,-5.7163,-5.7087,-5.6767,-5.6456,-5.6184,-5.5876,-5.595,-5.6063,-5.5848,-5.5848,-5.6257,-5.6295,-5.5674,-5.5099,-5.4259,-5.3549,-5.2369,-5.135,-5.0742,-4.9768,-4.8424,-4.7384,-4.6758,-4.5541,-4.4665,-4.4586,-4.4054,-4.3748,-4.34,-4.3649,-4.3541,-4.3529,-4.348,-4.3378,-4.3099,-4.2973,-4.2692,-4.2555,-4.2634,-4.2919,-4.2919,-4.2862,-4.2825,-4.2825,-4.2844,-4.2862,-4.2919,-4.2882,-4.2882,-4.2862,-4.2787,-4.256,-4.2501,-4.2575,-4.2787,-4.2846,-4.2393,-4.1975,-4.1721,-4.1106,-4.0275,-3.9481,-3.8653,-3.8275,-3.7933,-3.7788,-3.7427,-3.7085,-3.6614,-3.5874,-3.5281,-3.5298,-3.5164,-3.4705,-3.4428,-3.439,-3.3947,-3.3181,-3.2388,-3.2204,-3.2124,-3.1549,-3.1055,-3.1038,-3.0362,-2.9534,-2.9314,-2.9161,-2.8636,-2.7892,-2.7436,-2.7267,-2.7555,-2.7895,-2.8253,-2.8801,-2.9505,-3.0331,-3.1193,-3.1488,-5.7968,-5.6383,-5.6383,-5.6383,-5.6383,-5.6383,-5.6383,-5.6383,-5.641,-5.6492,-5.66,-5.6635,-5.6742,-5.6847,-5.6959,-5.7061,-5.7061,-5.6941,-5.6688,-5.6311,-5.609,-5.6229,-5.6146,-5.5705,-5.5762,-5.6174,-5.6311,-5.625,-5.5964,-5.5101,-5.4068,-5.3416,-5.1887,-5.0708,-4.9778,-4.8506,-4.742,-4.6946,-4.5883,-4.5142,-4.4947,-4.4847,-4.4751,-4.4358,-4.4841,-4.4844,-4.4432,-4.4178,-4.3946,-4.3842,-4.3244,-4.2917,-4.2769,-4.2844,-4.2882,-4.2919,-4.2919,-4.2919,-4.2919,-4.2919,-4.2919,-4.2919,-4.2919,-4.2919,-4.2919,-4.2919,-4.2825,-4.2825,-4.2806,-4.2919,-4.2919,-4.2665,-4.2683,-4.2465,-4.1867,-4.1107,-4.0366,-3.9606,-3.8847,-3.8396,-3.8233,-3.8052,-3.7657,-3.7313,-3.6699,-3.621,-3.6145,-3.5971,-3.5612,-3.5413,-3.5332,-3.4688,-3.3857,-3.3041,-3.234,-3.2297,-3.1989,-3.1224,-3.0954,-3.0598,-2.9871,-2.9365,-2.8976,-2.8808,-2.8707,-2.8488,-2.8438,-2.8439,-2.8714,-2.9058,-2.9693,-3.033,-3.0883,-3.1419,-3.1609,-5.7555,-5.6418,-5.6383,-5.6383,-5.6383,-5.6383,-5.6383,-5.6383,-5.6383,-5.641,-5.6492,-5.6573,-5.6635,-5.6742,-5.6925,-5.6933,-5.6811,-5.7087,-5.6661,-5.6073,-5.6146,-5.6311,-5.6257,-5.5705,-5.6045,-5.6447,-5.6501,-5.6257,-5.6221,-5.5352,-5.4449,-5.341,-5.1949,-5.0774,-4.9904,-4.8562,-4.7911,-4.7438,-4.6622,-4.5994,-4.5925,-4.5918,-4.573,-4.6262,-4.6129,-4.6034,-4.569,-4.5454,-4.4892,-4.4222,-4.3733,-4.3336,-4.3064,-4.2919,-4.2919,-4.2919,-4.2919,-4.2919,-4.2919,-4.2919,-4.2919,-4.2919,-4.2919,-4.2919,-4.2919,-4.2919,-4.2919,-4.2919,-4.2919,-4.2919,-4.2919,-4.2919,-4.2919,-4.2755,-4.2212,-4.1614,-4.1089,-4.0401,-3.9677,-3.8915,-3.8519,-3.8303,-3.8104,-3.7742,-3.7398,-3.718,-3.6998,-3.6745,-3.6453,-3.6454,-3.638,-3.563,-3.4793,-3.3751,-3.3029,-3.2822,-3.2649,-3.1884,-3.1326,-3.0954,-3.0615,-3.026,-2.9824,-2.9488,-2.9405,-2.9492,-2.9103,-2.8935,-2.9382,-2.9849,-3.0245,-3.0694,-3.1161,-3.1524,-3.1749,-5.7142,-5.6383,-5.6383,-5.6383,-5.6383,-5.6383,-5.6383,-5.6383,-5.6383,-5.6383,-5.641,-5.651,-5.6546,-5.6609,-5.6768,-5.6732,-5.6366,-5.6915,-5.6564,-5.5961,-5.609,-5.6339,-5.6311,-5.6063,-5.6128,-5.6889,-5.6785,-5.6174,-5.5848,-5.5432,-5.4673,-5.3535,-5.2094,-5.0931,-5.0166,-4.8724,-4.8545,-4.8203,-4.7674,-4.7187,-4.7377,-4.7015,-4.6967,-4.7925,-4.741,-4.6938,-4.6711,-4.6393,-4.5798,-4.4928,-4.4277,-4.3788,-4.3244,-4.301,-4.2919,-4.2919,-4.2919,-4.2919,-4.2919,-4.2919,-4.2919,-4.2919,-4.2919,-4.2919,-4.2919,-4.2919,-4.2919,-4.2919,-4.2919,-4.2919,-4.2919,-4.2919,-4.2919,-4.281,-4.2375,-4.1831,-4.1542,-4.1035,-4.0438,-3.9731,-3.9025,-3.859,-3.8409,-3.8119,-3.7757,-3.7703,-3.754,-3.754,-3.7339,-3.7576,-3.7395,-3.668,-3.5764,-3.4565,-3.3874,-3.3567,-3.3305,-3.2848,-3.2425,-3.2104,-3.1749,-3.141,-3.0995,-3.0683,-3.0534,-3.0519,-2.9959,-2.9743,-3.0384,-3.08,-3.0835,-3.1024,-3.1456,-3.1751,-3.1942,-5.7142,-5.6383,-5.6383,-5.6383,-5.6383,-5.6383,-5.6383,-5.6383,-5.6383,-5.6383,-5.6383,-5.6428,-5.6437,-5.6519,-5.6715,-5.6599,-5.6555,-5.6837,-5.6793,-5.6201,-5.6311,-5.6635,-5.6915,-5.6474,-5.6537,-5.7094,-5.7087,-5.6758,-5.6156,-5.5647,-5.5059,-5.4029,-5.2418,-5.1131,-5.0876,-4.9273,-4.8264,-4.8676,-4.8451,-4.8496,-4.8834,-4.8283,-4.808,-4.8041,-4.7841,-4.7557,-4.737,-4.6957,-4.6359,-4.6051,-4.4802,-4.4168,-4.386,-4.3263,-4.2992,-4.2919,-4.2919,-4.2919,-4.2919,-4.2919,-4.2919,-4.2919,-4.2919,-4.2919,-4.2919,-4.2919,-4.2919,-4.2919,-4.2919,-4.2919,-4.2919,-4.2919,-4.2919,-4.2901,-4.2719,-4.2266,-4.1904,-4.185,-4.1252,-4.0709,-4.0075,-3.9242,-3.8717,-3.8426,-3.8154,-3.8136,-3.81,-3.8082,-3.803,-3.8087,-3.7913,-3.7074,-3.6381,-3.526,-3.4692,-3.438,-3.391,-3.3601,-3.3494,-3.3168,-3.2703,-3.2385,-3.2485,-3.2188,-3.1961,-3.174,-3.144,-3.1427,-3.167,-3.1652,-3.1562,-3.1613,-3.1733,-3.1995,-3.2469,-5.6704,-5.6401,-5.6383,-5.6383,-5.6383,-5.6383,-5.6383,-5.6383,-5.6383,-5.6383,-5.6383,-5.6383,-5.6437,-5.6546,-5.6715,-5.6564,-5.6393,-5.6863,-5.6863,-5.6528,-5.6608,-5.6941,-5.7061,-5.6941,-5.7018,-5.7069,-5.7138,-5.6837,-5.6366,-5.6019,-5.5546,-5.4612,-5.3123,-5.1988,-5.1602,-5.0201,-5.0018,-5.0207,-5.0197,-5.0175,-5.0165,-4.9708,-4.9217,-4.9185,-4.8641,-4.8203,-4.7772,-4.7446,-4.692,-4.6576,-4.5671,-4.4983,-4.4313,-4.3733,-4.3445,-4.2919,-4.2919,-4.2919,-4.2919,-4.2919,-4.2919,-4.2919,-4.2919,-4.2919,-4.2919,-4.2919,-4.2919,-4.2919,-4.2919,-4.2919,-4.2919,-4.2919,-4.2919,-4.2919,-4.2919,-4.2737,-4.2429,-4.2429,-4.214,-4.1633,-4.1089,-4.0311,-3.9586,-3.9242,-3.8897,-3.848,-3.8354,-3.8227,-3.8036,-3.7862,-3.7614,-3.7183,-3.6543,-3.5849,-3.5494,-3.5166,-3.4491,-3.4231,-3.4487,-3.4117,-3.3535,-3.3298,-3.3441,-3.333,-3.2957,-3.2825,-3.2827,-3.2458,-3.2125,-3.2157,-3.224,-3.2506,-3.2806,-3.3419,-3.3915,-5.6383,-5.6383,-5.6383,-5.6383,-5.6383,-5.6383,-5.6383,-5.6383,-5.6383,-5.6383,-5.6383,-5.6383,-5.6465,-5.6528,-5.6555,-5.6347,-5.6182,-5.6706,-5.6661,-5.6608,-5.6837,-5.7138,-5.7163,-5.7163,-5.7163,-5.7188,-5.7138,-5.6933,-5.6653,-5.6384,-5.6026,-5.5148,-5.3587,-5.2744,-5.2116,-5.137,-5.106,-5.1272,-5.1419,-5.1501,-5.1389,-5.052,-5.0285,-4.9999,-4.9492,-4.871,-4.8369,-4.804,-4.7606,-4.7316,-4.6595,-4.5798,-4.5037,-4.4313,-4.3824,-4.3317,-4.3155,-4.2919,-4.2919,-4.2919,-4.2919,-4.2919,-4.2919,-4.2919,-4.2919,-4.2919,-4.2919,-4.2919,-4.2919,-4.2919,-4.2919,-4.2919,-4.2919,-4.2919,-4.2919,-4.2919,-4.2901,-4.2737,-4.2647,-4.2339,-4.1868,-4.1506,-4.0854,-4.0329,-3.9731,-3.8989,-3.8627,-3.8445,-3.8183,-3.7954,-3.7721,-3.7433,-3.7046,-3.6475,-3.6067,-3.569,-3.509,-3.4919,-3.5191,-3.517,-3.4658,-3.4456,-3.4513,-3.4297,-3.3987,-3.3988,-3.4041,-3.3231,-3.2546,-3.3196,-3.3706,-3.3776,-3.4094,-3.4747,-3.5208,-5.6383,-5.6383,-5.6383,-5.6383,-5.6383,-5.6383,-5.6383,-5.6383,-5.6383,-5.6383,-5.6383,-5.641,-5.6482,-5.6474,-5.6292,-5.6154,-5.6126,-5.6284,-5.6366,-5.6555,-5.6863,-5.7083,-5.7109,-5.7134,-5.7098,-5.7073,-5.7058,-5.7036,-5.6879,-5.6639,-5.6178,-5.5307,-5.4083,-5.3285,-5.268,-5.2139,-5.1643,-5.1751,-5.188,-5.217,-5.1813,-5.1108,-5.0552,-5.0705,-4.9872,-4.9184,-4.9782,-4.9094,-4.8601,-4.8348,-4.7319,-4.654,-4.5852,-4.5019,-4.4385,-4.3824,-4.3353,-4.3099,-4.2973,-4.2919,-4.2919,-4.2919,-4.2919,-4.2919,-4.2919,-4.2919,-4.2919,-4.2919,-4.2919,-4.2919,-4.2919,-4.2919,-4.2919,-4.2919,-4.2919,-4.2919,-4.2919,-4.2901,-4.281,-4.281,-4.2556,-4.2158,-4.1959,-4.1397,-4.0582,-3.9822,-3.937,-3.9171,-3.8635,-3.8349,-3.8133,-3.7864,-3.7611,-3.7143,-3.6547,-3.6205,-3.6052,-3.596,-3.605,-3.6107,-3.5963,-3.5838,-3.5643,-3.5381,-3.5136,-3.5208,-3.5206,-3.4687,-3.4488,-3.4895,-3.5145,-3.5099,-3.5507,-3.6236,-3.645,-5.6383,-5.6383,-5.6383,-5.6383,-5.6383,-5.6383,-5.6383,-5.6383,-5.6383,-5.6383,-5.6383,-5.6383,-5.6428,-5.6437,-5.6501,-5.6237,-5.6098,-5.6564,-5.6474,-5.6322,-5.6328,-5.6631,-5.6762,-5.6758,-5.6407,-5.6602,-5.6848,-5.6787,-5.6389,-5.6527,-5.666,-5.5944,-5.4785,-5.3995,-5.3394,-5.2651,-5.2094,-5.1762,-5.1817,-5.1933,-5.1808,-5.1509,-5.1106,-5.1122,-5.0959,-5.0198,-5.0039,-4.9311,-4.8999,-4.8619,-4.779,-4.7174,-4.6613,-4.5798,-4.5055,-4.4295,-4.3751,-4.3371,-4.2973,-4.2919,-4.2919,-4.2919,-4.2919,-4.2919,-4.2919,-4.2919,-4.2919,-4.2919,-4.2919,-4.2919,-4.2919,-4.2919,-4.2919,-4.2919,-4.2919,-4.2919,-4.2919,-4.2919,-4.2919,-4.2865,-4.2847,-4.2665,-4.2556,-4.2429,-4.1542,-4.0691,-4.0257,-3.9788,-3.9174,-3.8812,-3.8612,-3.8395,-3.8155,-3.8105,-3.7579,-3.7361,-3.7147,-3.7031,-3.6891,-3.6761,-3.6721,-3.6962,-3.6766,-3.6485,-3.631,-3.6358,-3.6358,-3.6266,-3.6141,-3.5948,-3.6066,-3.627,-3.6909,-3.7655,-3.7783,-5.6383,-5.6383,-5.6383,-5.6383,-5.6383,-5.6383,-5.6383,-5.6383,-5.6383,-5.6383,-5.6383,-5.6383,-5.6383,-5.6437,-5.6365,-5.6237,-5.5936,-5.6025,-5.616,-5.6063,-5.5946,-5.6251,-5.6577,-5.6657,-5.6476,-5.645,-5.6653,-5.6736,-5.6461,-5.6324,-5.6592,-5.6494,-5.5715,-5.4635,-5.4002,-5.3018,-5.2275,-5.1957,-5.186,-5.186,-5.1891,-5.1592,-5.1664,-5.1534,-5.1357,-5.1212,-5.0818,-5.0307,-4.9673,-4.9202,-4.8514,-4.7717,-4.7102,-4.6468,-4.5761,-4.491,-4.4168,-4.3733,-4.3173,-4.2919,-4.2919,-4.2919,-4.2919,-4.2919,-4.2919,-4.2919,-4.2919,-4.2919,-4.2919,-4.2919,-4.2919,-4.2919,-4.2919,-4.2919,-4.2919,-4.2919,-4.2919,-4.2919,-4.2919,-4.2901,-4.2883,-4.2864,-4.2697,-4.2514,-4.1764,-4.0951,-4.0453,-3.9907,-3.9248,-3.9065,-3.9195,-3.8974,-3.875,-3.8742,-3.8732,-3.8274,-3.7867,-3.7709,-3.7561,-3.7261,-3.7246,-3.7487,-3.7488,-3.7058,-3.7022,-3.7372,-3.7394,-3.7269,-3.69,-3.6517,-3.6829,-3.7244,-3.7982,-3.8644,-3.8969,-5.6383,-5.6383,-5.6355,-5.6373,-5.6328,-5.6401,-5.6383,-5.6383,-5.6383,-5.6355,-5.6328,-5.6355,-5.6328,-5.6273,-5.6088,-5.5841,-5.5525,-5.5277,-5.5314,-5.5611,-5.5625,-5.6137,-5.6583,-5.6709,-5.6402,-5.6953,-5.6974,-5.6861,-5.6757,-5.6783,-5.692,-5.6664,-5.5817,-5.4798,-5.4671,-5.3277,-5.2534,-5.2434,-5.2345,-5.2298,-5.2125,-5.1669,-5.1752,-5.2022,-5.1774,-5.1647,-5.1719,-5.1176,-5.0488,-4.98,-4.9094,-4.8275,-4.7569,-4.6957,-4.6214,-4.5399,-4.4657,-4.3914,-4.3118,-4.301,-4.2992,-4.2937,-4.2919,-4.2919,-4.2919,-4.2919,-4.2919,-4.2919,-4.2919,-4.2919,-4.2919,-4.2919,-4.2919,-4.2919,-4.2919,-4.2919,-4.2919,-4.2919,-4.2919,-4.2919,-4.2919,-4.2863,-4.2692,-4.241,-4.1792,-4.1141,-4.0602,-4.0038,-3.9446,-3.9599,-3.9884,-3.9656,-3.9452,-3.9458,-3.9425,-3.894,-3.8571,-3.8431,-3.822,-3.7953,-3.7667,-3.7667,-3.7614,-3.7471,-3.7611,-3.7805,-3.8036,-3.8198,-3.7716,-3.7339,-3.778,-3.8269,-3.8997,-3.9527,-3.9728,-5.6383,-5.6355,-5.5911,-5.5722,-5.5797,-5.6245,-5.6383,-5.6383,-5.6355,-5.6126,-5.5883,-5.6144,-5.6116,-5.5929,-5.6037,-5.5758,-5.5044,-5.5942,-5.6015,-5.5036,-5.5187,-5.6008,-5.6445,-5.6319,-5.6085,-5.6261,-5.6407,-5.6549,-5.6154,-5.6696,-5.7043,-5.6805,-5.5932,-5.4798,-5.3621,-5.2602,-5.2364,-5.1957,-5.1884,-5.1884,-5.1873,-5.1706,-5.1814,-5.248,-5.2154,-5.219,-5.2426,-5.1737,-5.0995,-5.0184,-4.9365,-4.8583,-4.7898,-4.7246,-4.6884,-4.625,-4.5653,-4.5345,-4.4548,-4.4095,-4.3407,-4.3136,-4.2919,-4.2919,-4.2919,-4.2919,-4.2919,-4.2919,-4.2919,-4.2919,-4.2919,-4.2919,-4.2919,-4.2919,-4.2919,-4.2919,-4.2919,-4.2919,-4.2919,-4.2919,-4.2919,-4.2673,-4.2478,-4.216,-4.1584,-4.1235,-4.0739,-4.0406,-3.9875,-4.0448,-4.0858,-4.0472,-4.0219,-4.0253,-4.0093,-3.9605,-3.9382,-3.9301,-3.9031,-3.867,-3.84,-3.8043,-3.7915,-3.7861,-3.8018,-3.8207,-3.8105,-3.8053,-3.8223,-3.8236,-3.8171,-3.8619,-3.938,-3.9873,-4.022,-5.5679,-5.557,-5.4902,-5.4606,-5.474,-5.5407,-5.5826,-5.5978,-5.5794,-5.5515,-5.5554,-5.607,-5.6042,-5.5709,-5.5733,-5.5612,-5.4536,-5.4857,-5.5132,-5.4209,-5.4598,-5.533,-5.5784,-5.5999,-5.6142,-5.6105,-5.6355,-5.6507,-5.633,-5.676,-5.6845,-5.6566,-5.5993,-5.4689,-5.3476,-5.2958,-5.2653,-5.2234,-5.2072,-5.2048,-5.2006,-5.1994,-5.2108,-5.2387,-5.2444,-5.2498,-5.2353,-5.19,-5.1217,-5.0289,-4.9528,-4.8749,-4.8098,-4.7609,-4.7262,-4.6757,-4.6142,-4.5816,-4.5164,-4.4458,-4.3806,-4.3462,-4.3137,-4.2937,-4.2919,-4.2919,-4.2919,-4.2919,-4.2919,-4.2919,-4.2919,-4.2919,-4.2919,-4.2919,-4.2919,-4.2919,-4.2919,-4.2919,-4.2919,-4.2919,-4.2825,-4.2557,-4.2198,-4.1807,-4.1411,-4.1133,-4.0868,-4.0556,-4.0246,-4.0683,-4.1071,-4.0718,-4.055,-4.0513,-4.0442,-4.0276,-4.0144,-4.0185,-3.9841,-3.9408,-3.8903,-3.8528,-3.838,-3.816,-3.8074,-3.7934,-3.7774,-3.7774,-3.7739,-3.7721,-3.765,-3.8384,-3.9568,-4.013,-4.051,-5.4248,-5.4125,-5.3383,-5.3035,-5.3206,-5.3762,-5.4491,-5.5244,-5.4606,-5.4653,-5.5255,-5.5717,-5.5483,-5.5197,-5.5172,-5.4827,-5.4282,-5.3655,-5.3539,-5.358,-5.4198,-5.4893,-5.5598,-5.6098,-5.626,-5.6528,-5.6689,-5.6626,-5.674,-5.6915,-5.6682,-5.5998,-5.5558,-5.4454,-5.3729,-5.3326,-5.3013,-5.2521,-5.2322,-5.2298,-5.2298,-5.2387,-5.2387,-5.2498,-5.2498,-5.2498,-5.2444,-5.2281,-5.143,-5.0673,-5.0021,-4.9039,-4.8279,-4.7735,-4.7192,-4.6631,-4.5943,-4.5761,-4.5399,-4.4765,-4.4204,-4.3842,-4.3281,-4.3046,-4.2919,-4.2919,-4.2919,-4.2919,-4.2919,-4.2919,-4.2919,-4.2919,-4.2919,-4.2919,-4.2919,-4.2919,-4.2919,-4.2919,-4.2919,-4.2881,-4.2806,-4.2518,-4.1952,-4.1543,-4.1162,-4.0784,-4.0556,-4.041,-4.0146,-4.0146,-4.0458,-4.0434,-4.0373,-4.0607,-4.0602,-4.0639,-4.0656,-4.0649,-4.0436,-4.0039,-3.9517,-3.9139,-3.9102,-3.8814,-3.8026,-3.7757,-3.7935,-3.7588,-3.7075,-3.711,-3.7475,-3.8106,-3.9262,-4.0199,-4.0791,-5.3194,-5.2721,-5.2031,-5.173,-5.162,-5.0968,-5.2067,-5.4273,-5.3868,-5.3531,-5.3232,-5.3801,-5.3892,-5.3175,-5.451,-5.4224,-5.402,-5.3993,-5.4056,-5.4145,-5.4127,-5.5178,-5.5839,-5.6178,-5.6429,-5.6492,-5.6492,-5.6546,-5.6662,-5.6873,-5.6201,-5.5176,-5.5383,-5.4484,-5.3766,-5.3403,-5.3023,-5.2715,-5.2516,-5.2498,-5.2498,-5.2498,-5.2498,-5.2498,-5.2498,-5.2498,-5.2498,-5.2426,-5.1556,-5.0416,-5.0148,-4.9311,-4.7898,-4.7699,-4.7482,-4.7425,-4.7102,-4.683,-4.616,-4.5399,-4.4693,-4.4059,-4.3372,-4.3028,-4.2919,-4.2919,-4.2919,-4.2919,-4.2919,-4.2919,-4.2919,-4.2919,-4.2919,-4.2919,-4.2919,-4.2919,-4.2919,-4.2919,-4.29,-4.2749,-4.2673,-4.2177,-4.1609,-4.1271,-4.0879,-4.0483,-4.0221,-4.0146,-4.0113,-4.0113,-4.0113,-4.0113,-4.0303,-4.0604,-4.0926,-4.1016,-4.1057,-4.1074,-4.0885,-4.0662,-4.0219,-3.9932,-3.9896,-3.941,-3.858,-3.8326,-3.836,-3.7734,-3.6693,-3.7311,-3.7752,-3.8276,-3.8925,-3.9951,-4.0706,-5.1679,-5.1281,-5.0606,-5.0425,-5.0484,-4.9799,-5.0767,-5.23,-5.2173,-5.1999,-5.2301,-5.2922,-5.2736,-5.2466,-5.3533,-5.3752,-5.3082,-5.3145,-5.3208,-5.3191,-5.401,-5.4545,-5.5205,-5.5847,-5.6097,-5.624,-5.641,-5.6437,-5.6573,-5.6661,-5.6199,-5.5812,-5.5785,-5.4677,-5.3851,-5.3367,-5.2915,-5.2643,-5.2498,-5.2498,-5.2498,-5.2498,-5.2498,-5.2498,-5.2498,-5.2498,-5.2426,-5.2335,-5.1339,-5.0198,-4.9945,-4.9257,-4.8224,-4.8185,-4.8206,-4.8094,-4.7714,-4.7171,-4.645,-4.5671,-4.4928,-4.4168,-4.3371,-4.3028,-4.2919,-4.2919,-4.2919,-4.2919,-4.2919,-4.2919,-4.2919,-4.2919,-4.2919,-4.2919,-4.2919,-4.2919,-4.2919,-4.2919,-4.2787,-4.2595,-4.2218,-4.1717,-4.1298,-4.0972,-4.0676,-4.0328,-4.0171,-4.0121,-4.0113,-4.0113,-4.0113,-4.0113,-4.0353,-4.0635,-4.0972,-4.1298,-4.1503,-4.1505,-4.1348,-4.1123,-4.0807,-4.0503,-4.0244,-3.9722,-3.9074,-3.878,-3.8408,-3.7184,-3.6366,-3.7078,-3.7662,-3.7945,-3.8703,-3.995,-4.058,-4.998,-4.9883,-4.9125,-4.9185,-4.9632,-4.9673,-4.9869,-4.99,-4.9999,-5.0606,-5.1678,-5.2468,-5.2265,-5.1824,-5.273,-5.302,-5.2618,-5.2547,-5.2618,-5.1869,-5.2868,-5.3671,-5.4384,-5.4822,-5.5598,-5.6097,-5.6365,-5.641,-5.6455,-5.6546,-5.6642,-5.6814,-5.5588,-5.4591,-5.4146,-5.332,-5.2832,-5.257,-5.2498,-5.2498,-5.2498,-5.2498,-5.2498,-5.2498,-5.2498,-5.248,-5.2317,-5.181,-5.1013,-5.0234,-4.9691,-4.9311,-4.9036,-4.8601,-4.8619,-4.8547,-4.8058,-4.7298,-4.6558,-4.5761,-4.4947,-4.415,-4.3371,-4.3046,-4.2919,-4.2919,-4.2919,-4.2919,-4.2919,-4.2919,-4.2919,-4.2919,-4.2919,-4.2919,-4.2919,-4.2919,-4.2919,-4.2768,-4.2496,-4.2257,-4.1825,-4.1321,-4.0873,-4.0531,-4.0483,-4.0196,-4.0113,-4.0113,-4.0171,-4.0171,-4.0196,-4.0196,-4.0458,-4.0731,-4.0949,-4.1343,-4.1846,-4.1926,-4.1768,-4.1774,-4.1622,-4.1119,-4.0498,-4.0348,-4.0189,-3.8891,-3.808,-3.7283,-3.6808,-3.6814,-3.7274,-3.7505,-3.8435,-3.9847,-4.0163,-4.8906,-4.8494,-4.8311,-4.8307,-4.8403,-4.8458,-4.875,-4.9108,-4.8654,-4.904,-4.9816,-5.0343,-5.0587,-5.0656,-5.2022,-5.2418,-5.1981,-5.1995,-5.2503,-5.2381,-5.2622,-5.29,-5.3886,-5.4438,-5.5151,-5.5633,-5.5972,-5.6329,-5.6428,-5.6465,-5.6304,-5.5881,-5.5205,-5.4954,-5.4086,-5.3243,-5.296,-5.2529,-5.2625,-5.257,-5.2498,-5.2498,-5.2498,-5.2498,-5.2498,-5.2498,-5.2389,-5.2263,-5.1665,-5.1086,-5.0886,-5.0434,-4.9854,-4.8713,-4.842,-4.8601,-4.8149,-4.7373,-4.6595,-4.5834,-4.511,-4.424,-4.3516,-4.3118,-4.2919,-4.2919,-4.2919,-4.2937,-4.2919,-4.2919,-4.2919,-4.2919,-4.2919,-4.2919,-4.29,-4.29,-4.29,-4.2555,-4.2216,-4.1782,-4.1388,-4.0972,-4.0524,-4.0296,-4.0179,-4.0146,-4.0096,-4.0146,-4.032,-4.0353,-4.0427,-4.0458,-4.0611,-4.0855,-4.1094,-4.1477,-4.2035,-4.2218,-4.2065,-4.2181,-4.2329,-4.2014,-4.1604,-4.1683,-4.138,-3.9858,-3.8765,-3.8434,-3.7983,-3.7398,-3.7625,-3.8108,-3.8599,-3.9809,-3.9727,-4.8307,-4.8001,-4.8001,-4.8001,-4.8001,-4.8001,-4.8195,-4.8386,-4.8147,-4.8233,-4.8646,-4.9134,-4.9411,-4.9499,-5.0931,-5.1501,-5.1034,-5.1253,-5.1207,-5.1402,-5.1837,-5.2147,-5.2881,-5.3646,-5.4154,-5.4634,-5.5446,-5.5937,-5.6357,-5.642,-5.6215,-5.5839,-5.5675,-5.5007,-5.3963,-5.3634,-5.3105,-5.2477,-5.2759,-5.2806,-5.2625,-5.2534,-5.2498,-5.2498,-5.2498,-5.2498,-5.2317,-5.2226,-5.1719,-5.1416,-5.1212,-5.076,-5.0126,-4.9383,-4.8931,-4.8677,-4.8131,-4.7373,-4.6649,-4.6033,-4.5436,-4.4657,-4.3878,-4.357,-4.3553,-4.3535,-4.3208,-4.3172,-4.2955,-4.2919,-4.2919,-4.2919,-4.2919,-4.2919,-4.2863,-4.2825,-4.2653,-4.2358,-4.1846,-4.1253,-4.0972,-4.0761,-4.0377,-4.0196,-4.0121,-4.0121,-4.0096,-4.0303,-4.0451,-4.0724,-4.0731,-4.0855,-4.1094,-4.1321,-4.163,-4.1931,-4.232,-4.238,-4.232,-4.2306,-4.2336,-4.2658,-4.2754,-4.246,-4.174,-4.04,-3.9505,-3.9068,-3.8397,-3.7678,-3.821,-3.8996,-3.9436,-3.9715,-3.9665,-4.7736,-4.7852,-4.7968,-4.8001,-4.8001,-4.8033,-4.8033,-4.8033,-4.8049,-4.8066,-4.8148,-4.8625,-4.8807,-4.908,-4.9482,-4.9688,-4.9942,-5.0291,-5.0097,-5.0224,-5.012,-5.0989,-5.1637,-5.2112,-5.3183,-5.4189,-5.5036,-5.5776,-5.6383,-5.6392,-5.6393,-5.6367,-5.5812,-5.505,-5.445,-5.3812,-5.3087,-5.293,-5.3038,-5.3163,-5.2951,-5.2625,-5.2625,-5.2589,-5.2498,-5.2498,-5.2245,-5.1955,-5.1502,-5.1393,-5.1375,-5.0904,-5.0343,-4.9745,-4.9293,-4.8858,-4.8131,-4.7446,-4.6866,-4.6522,-4.6033,-4.5454,-4.4675,-4.4277,-4.4258,-4.4095,-4.3788,-4.3444,-4.3208,-4.301,-4.3028,-4.2919,-4.2919,-4.2844,-4.2787,-4.2653,-4.2398,-4.2074,-4.1432,-4.0802,-4.0635,-4.0483,-4.0353,-4.0146,-4.0121,-4.0121,-4.0254,-4.0458,-4.0731,-4.1111,-4.1321,-4.1543,-4.1807,-4.2035,-4.2032,-4.232,-4.2577,-4.2438,-4.2358,-4.23,-4.236,-4.2711,-4.2845,-4.2679,-4.1828,-4.0775,-3.9935,-3.9378,-3.8665,-3.8082,-3.8792,-3.9495,-3.9614,-3.9817,-3.9817,-4.656,-4.7156,-4.7752,-4.8001,-4.8001,-4.8115,-4.8115,-4.8049,-4.826,-4.8324,-4.8162,-4.8243,-4.8528,-4.8944,-4.9541,-4.9688,-4.9499,-4.9588,-5.0199,-5.0602,-4.9764,-5.028,-5.1182,-5.2074,-5.3217,-5.4224,-5.508,-5.5651,-5.6276,-5.6383,-5.641,-5.6384,-5.5687,-5.4954,-5.4235,-5.3656,-5.3271,-5.3141,-5.3309,-5.3508,-5.3579,-5.3313,-5.3005,-5.2806,-5.2498,-5.2498,-5.2426,-5.2353,-5.2299,-5.21,-5.1665,-5.1194,-5.0633,-4.9999,-4.9438,-4.8931,-4.8185,-4.7751,-4.7298,-4.6902,-4.645,-4.6305,-4.5599,-4.5091,-4.5073,-4.5073,-4.4657,-4.4114,-4.3806,-4.3463,-4.3336,-4.301,-4.29,-4.2692,-4.2595,-4.232,-4.2074,-4.1543,-4.0926,-4.0587,-4.0385,-4.0311,-4.0279,-4.0196,-4.0246,-4.0328,-4.0587,-4.0784,-4.1042,-4.1455,-4.1885,-4.2139,-4.242,-4.2059,-4.1807,-4.2478,-4.2731,-4.2537,-4.2438,-4.2518,-4.2634,-4.2787,-4.2845,-4.2734,-4.2279,-4.1402,-4.0613,-3.9697,-3.935,-3.8967,-3.9494,-3.9969,-3.9995,-3.9799,-3.9653]}]]